[[{"header":{"parameterUnit":"m.s-1","parameterCategory":1,"la1":31.0,"la2":29.5877,"lo1":-88.7671,"lo2":-86.6584,"dy":0.0162,"dx":0.0185,"nx":115,"ny":88,"refTime":"2026-03-14T00:00:00:Z","depth":0,"parameterNumber":2,"parameterNumberName":"U-component_of_WINDS"},"data":[0.0,0.0,0.0,0.0,0.0,0.0,0.0,0.0,0.0,0.0,0.0,0.0,0.0,0.0,0.0,0.0,0.0,0.0,0.0,0.0,0.0,0.0,0.0,0.0,0.0,0.0,0.0,0.0,0.0,0.0,0.0,0.0,0.0,0.0,0.0,0.0,0.0,0.0,0.0,0.0,0.0,0.0,0.0,0.0,0.0,0.0,0.0,0.0,0.0,0.0,0.0,0.0,0.0,0.0,0.0,0.0,0.0,0.0,0.0,0.0,0.0,0.0,0.0,0.0,0.0,0.0,0.0,0.0,0.0,0.0,0.0,0.0,0.0,0.0,0.0,0.0,0.0,0.0,0.0,0.0,0.0,0.0,0.0,0.0,0.0,0.0,0.0,0.0,0.0,0.0,0.0,0.0,0.0,0.0,0.0,0.0,0.0,0.0,0.0,0.0,0.0,0.0,0.0,0.0,0.0,0.0,0.0,0.0,0.0,0.0,0.0,0.0,0.0,0.0,0.0,0.0,0.0,0.0,0.0,0.0,0.0,0.0,0.0,0.0,0.0,0.0,0.0,0.0,0.0,0.0,0.0,0.0,0.0,0.0,0.0,0.0,0.0,0.0,0.0,0.0,0.0,0.0,0.0,0.0,0.0,0.0,0.0,0.0,0.0,0.0,0.0,0.0,0.0,0.0,0.0,0.0,0.0,0.0,0.0,0.0,0.0,0.0,0.0,0.0,0.0,0.0,0.0,0.0,0.0,0.0,0.0,0.0,0.0,0.0,0.0,0.0,0.0,0.0,0.0,0.0,0.0,0.0,0.0,0.0,0.0,0.0,0.0,0.0,0.0,0.0,0.0,0.0,0.0,0.0,0.0,0.0,0.0,0.0,0.0,0.0,0.0,0.0,0.0,0.0,0.0,0.0,0.0,0.0,0.0,0.0,0.0,0.0,0.0,0.0,0.0,0.0,0.0,0.0,0.0,0.0,0.0,0.0,0.0,0.0,0.0,0.0,0.0,0.0,0.0,0.0,0.0,0.0,0.0,0.0,0.0,0.0,0.0,0.0,0.0,0.0,0.0,0.0,0.0,0.0,0.0,0.0,0.0,0.0,0.0,0.0,0.0,0.0,0.0,0.0,0.0,0.0,0.0,0.0,0.0,0.0,0.0,0.0,0.0,0.0,0.0,0.0,0.0,0.0,0.0,0.0,0.0,0.0,0.0,0.0,0.0,0.0,0.0,0.0,0.0,0.0,0.0,0.0,0.0,0.0,0.0,0.0,0.0,0.0,0.0,0.0,0.0,0.0,0.0,0.0,0.0,0.0,0.0,0.0,0.0,0.0,0.0,0.0,0.0,0.0,0.0,0.0,0.0,0.0,0.0,0.0,0.0,0.0,0.0,0.0,0.0,0.0,0.0,0.0,0.0,0.0,0.0,0.0,0.0,0.0,0.0,0.0,0.0,0.0,0.0,0.0,0.0,0.0,0.0,0.0,0.0,0.0,0.0,0.0,0.0,0.0,0.0,0.0,0.0,0.0,0.0,0.0,0.0,0.0,0.0,0.0,0.0,0.0,0.0,0.0,0.0,0.0,0.0,0.0,0.0,0.0,0.0,0.0,0.0,0.0,0.0,0.0,0.0,0.0,0.0,0.0,0.0,0.0,0.0,0.0,0.0,0.0,0.0,0.0,0.0,0.0,0.0,0.0,0.0,0.0,0.0,0.0,0.0,0.0,0.0,0.0,0.0,0.0,0.0,0.0,0.0,0.0,0.0,0.0,0.0,0.0,0.0,0.0,0.0,0.0,0.0,0.0,0.0,0.0,0.0,0.0,0.0,0.0,0.0,0.0,0.0,0.0,0.0,0.0,0.0,0.0,0.0,0.0,0.0,0.0,0.0,0.0,0.0,0.0,0.0,0.0,0.0,0.0,0.0,0.0,0.0,0.0,0.0,0.0,0.0,0.0,0.0,0.0,0.0,0.0,0.0,0.0,0.0,0.0,0.0,0.0,0.0,0.0,0.0,0.0,0.0,0.0,0.0,0.0,0.0,0.0,0.0,0.0,0.0,0.0,0.0,0.0,0.0,0.0,0.0,0.0,0.0,0.0,0.0,0.0,0.0,0.0,0.0,0.0,0.0,0.0,0.0,0.0,0.0,0.0,0.0,0.0,0.0,0.0,0.0,0.0,0.0,0.0,0.0,0.0,0.0,0.0,0.0,0.0,0.0,0.0,0.0,0.0,0.0,0.0,0.0,0.0,0.0,0.0,0.0,0.0,0.0,0.0,0.0,0.0,0.0,0.0,0.0,0.0,0.0,0.0,0.0,0.0,0.0,0.0,0.0,0.0,0.0,0.0,0.0,0.0,0.0,0.0,0.0,0.0,0.0,0.0,0.0,0.0,0.0,0.0,0.0,0.0,0.0,0.0,0.0,0.0,0.0,0.0,0.0,0.0,0.0,0.0,0.0,0.0,0.0,0.0,0.0,0.0,0.0,0.0,0.0,0.0,0.0,0.0,0.0,0.0,0.0,0.0,0.0,0.0,0.0,0.0,0.0,0.0,0.0,0.0,0.0,0.0,0.0,0.0,0.0,0.0,0.0,0.0,0.0,0.0,0.0,0.0,0.0,0.0,0.0,0.0,0.0,0.0,0.0,0.0,0.0,0.0,0.0,0.0,0.0,0.0,0.0,0.0,0.0,0.0,0.0,0.0,0.0,0.0,0.0,0.0,0.0,0.0,0.0,0.0,0.0,0.0,0.0,0.0,0.0,0.0,0.0,0.0,0.0,0.0,0.0,0.0,0.0,0.0,0.0,0.0,0.0,0.0,0.0,0.0,0.0,0.0,0.0,0.0,0.0,0.0,0.0,0.0,0.0,0.0,0.0,0.0,0.0,0.0,0.0,0.0,0.0,0.0,0.0,0.0,0.0,0.0,0.0,0.0,0.0,0.0,0.0,0.0,0.0,0.0,0.0,0.0,0.0,0.0,0.0,0.0,0.0,0.0,0.0,0.0,0.0,0.0,0.0,0.0,0.0,0.0,0.0,0.0,0.0,0.0,0.0,0.0,0.0,0.0,0.0,0.0,0.0,0.0,0.0,0.0,0.0,0.0,0.0,0.0,0.0,0.0,0.0,0.0,0.0,0.0,0.0,0.0,0.0,0.0,0.0,0.0,0.0,0.0,0.0,0.0,0.0,0.0,0.0,0.0,0.0,0.0,0.0,0.0,0.0,0.0,0.0,0.0,0.0,0.0,0.0,0.0,0.0,0.0,0.0,0.0,0.0,0.0,0.0,0.0,0.0,0.0,0.0,0.0,0.0,0.0,0.0,0.0,0.0,0.0,0.0,0.0,0.0,0.0,0.0,0.0,0.0,0.0,0.0,0.0,0.0,0.0,0.0,0.0,0.0,0.0,0.0,0.0,0.0,0.0,0.0,0.0,0.0,0.0,0.0,0.0,0.0,0.0,0.0,0.0,0.0,0.0,0.0,0.0,0.0,0.0,0.0,0.0,0.0,0.0,0.0,0.0,0.0,0.0,0.0,0.0,0.0,0.0,0.0,0.0,0.0,0.0,0.0,0.0,0.0,0.0,0.0,0.0,0.0,0.0,0.0,0.0,0.0,0.0,0.0,0.0,0.0,0.0,0.0,0.0,0.0,0.0,0.0,0.0,0.0,0.0,0.0,0.0,0.0,0.0,0.0,0.0,0.0,0.0,0.0,0.0,0.0,0.0,0.0,0.0,0.0,0.0,0.0,0.0,0.0,0.0,0.0,0.0,0.0,0.0,0.0,0.0,0.0,0.0,0.0,0.0,0.0,0.0,0.0,0.0,0.0,0.0,0.0,0.0,0.0,0.0,0.0,0.0,0.0,0.0,0.0,0.0,0.0,0.0,0.0,0.0,0.0,0.0,0.0,0.0,0.0,0.0,0.0,0.0,0.0,0.0,0.0,0.0,0.0,0.0,0.0,0.0,0.0,0.0,0.0,0.0,0.0,0.0,0.0,0.0,0.0,0.0,0.0,0.0,0.0,0.0,0.0,0.0,0.0,0.0,0.0,0.0,0.0,0.0,0.0,0.0,0.0,0.0,0.0,0.0,0.0,0.0,0.0,0.0,0.0,0.0,0.0,0.0,0.0,0.0,0.0,0.0,0.0,0.0,0.0,0.0,0.0,0.0,0.0,0.0,0.0,0.0,0.0,0.0,0.0,0.0,0.0,0.0,0.0,0.0,0.0,0.0,0.0,0.0,0.0,0.0,0.0,0.0,0.0,0.0,0.0,0.0,0.0,0.0,0.0,0.0,5.868,0.0,0.0,0.0,0.0,0.0,0.0,0.0,0.0,0.0,0.0,0.0,0.0,0.0,0.0,0.0,0.0,0.0,0.0,0.0,0.0,0.0,0.0,0.0,0.0,0.0,0.0,0.0,0.0,0.0,0.0,0.0,0.0,0.0,0.0,0.0,0.0,0.0,0.0,0.0,0.0,0.0,0.0,0.0,0.0,0.0,0.0,0.0,0.0,0.0,0.0,0.0,0.0,0.0,0.0,0.0,0.0,0.0,0.0,0.0,0.0,0.0,0.0,0.0,0.0,0.0,0.0,0.0,0.0,0.0,0.0,0.0,0.0,0.0,0.0,0.0,0.0,0.0,0.0,0.0,0.0,0.0,0.0,0.0,0.0,0.0,0.0,0.0,0.0,0.0,0.0,0.0,0.0,0.0,0.0,0.0,0.0,0.0,0.0,0.0,0.0,0.0,0.0,0.0,0.0,0.0,0.0,0.0,0.0,0.0,0.0,6.5356,6.5639,6.4518,6.3048,6.1268,0.0,0.0,0.0,0.0,0.0,0.0,0.0,0.0,0.0,0.0,0.0,0.0,0.0,0.0,0.0,0.0,0.0,0.0,0.0,0.0,0.0,0.0,0.0,0.0,0.0,0.0,0.0,0.0,0.0,0.0,0.0,0.0,0.0,0.0,0.0,0.0,0.0,0.0,0.0,0.0,0.0,0.0,0.0,0.0,0.0,0.0,0.0,0.0,0.0,0.0,0.0,0.0,0.0,0.0,0.0,0.0,0.0,0.0,0.0,0.0,0.0,0.0,0.0,0.0,0.0,0.0,0.0,0.0,0.0,0.0,0.0,0.0,0.0,0.0,0.0,0.0,0.0,0.0,0.0,0.0,0.0,0.0,0.0,0.0,0.0,0.0,0.0,0.0,0.0,0.0,0.0,0.0,0.0,0.0,0.0,0.0,0.0,0.0,0.0,0.0,0.0,0.0,0.0,0.0,0.0,0.0,0.0,0.0,0.0,0.0,0.0,0.0,6.6671,6.4957,6.2431,0.0,0.0,0.0,0.0,0.0,0.0,0.0,0.0,0.0,0.0,0.0,0.0,0.0,0.0,0.0,0.0,0.0,0.0,0.0,0.0,0.0,0.0,0.0,0.0,0.0,0.0,0.0,0.0,0.0,0.0,0.0,0.0,0.0,0.0,0.0,0.0,0.0,0.0,0.0,0.0,0.0,0.0,0.0,0.0,0.0,0.0,0.0,0.0,0.0,0.0,0.0,0.0,0.0,0.0,0.0,0.0,0.0,0.0,0.0,0.0,0.0,0.0,0.0,0.0,0.0,0.0,0.0,0.0,0.0,0.0,0.0,0.0,0.0,0.0,0.0,0.0,0.0,0.0,0.0,0.0,0.0,0.0,0.0,0.0,0.0,0.0,0.0,0.0,0.0,0.0,0.0,0.0,0.0,0.0,0.0,0.0,0.0,0.0,0.0,0.0,0.0,0.0,0.0,0.0,0.0,0.0,0.0,0.0,0.0,0.0,6.9376,6.9173,6.8359,0.0,6.0609,0.0,0.0,0.0,0.0,0.0,0.0,0.0,0.0,0.0,0.0,0.0,0.0,0.0,0.0,0.0,0.0,0.0,0.0,0.0,0.0,0.0,0.0,0.0,0.0,0.0,0.0,0.0,0.0,0.0,0.0,0.0,0.0,0.0,0.0,0.0,0.0,0.0,0.0,0.0,0.0,0.0,0.0,0.0,0.0,0.0,0.0,0.0,0.0,0.0,0.0,0.0,0.0,0.0,0.0,0.0,0.0,0.0,0.0,0.0,0.0,0.0,0.0,0.0,0.0,0.0,0.0,0.0,0.0,0.0,0.0,0.0,0.0,0.0,0.0,0.0,0.0,0.0,0.0,0.0,0.0,0.0,0.0,0.0,0.0,0.0,0.0,0.0,0.0,0.0,0.0,0.0,0.0,0.0,0.0,0.0,0.0,0.0,0.0,0.0,0.0,0.0,0.0,0.0,0.0,0.0,0.0,0.0,0.0,0.0,0.0,0.0,7.0273,6.8896,6.6258,0.0,0.0,0.0,0.0,0.0,0.0,0.0,0.0,0.0,0.0,0.0,0.0,0.0,0.0,0.0,0.0,0.0,0.0,0.0,0.0,0.0,0.0,0.0,0.0,0.0,0.0,0.0,0.0,0.0,0.0,0.0,0.0,0.0,0.0,0.0,0.0,0.0,0.0,0.0,0.0,0.0,0.0,0.0,0.0,0.0,0.0,0.0,0.0,0.0,0.0,0.0,0.0,0.0,0.0,0.0,0.0,0.0,0.0,0.0,0.0,0.0,0.0,0.0,0.0,0.0,0.0,0.0,0.0,0.0,0.0,0.0,0.0,0.0,0.0,0.0,0.0,0.0,0.0,0.0,0.0,0.0,0.0,0.0,0.0,0.0,0.0,0.0,0.0,0.0,0.0,0.0,0.0,0.0,0.0,0.0,0.0,0.0,0.0,0.0,0.0,0.0,0.0,0.0,0.0,0.0,0.0,0.0,0.0,0.0,0.0,6.9709,0.0,7.0792,6.9118,6.6543,6.3408,0.0,0.0,0.0,0.0,0.0,0.0,0.0,0.0,0.0,0.0,0.0,0.0,0.0,0.0,0.0,0.0,0.0,0.0,0.0,0.0,0.0,0.0,0.0,0.0,0.0,0.0,0.0,0.0,0.0,0.0,0.0,0.0,0.0,0.0,0.0,0.0,0.0,0.0,0.0,0.0,0.0,0.0,0.0,0.0,0.0,0.0,0.0,0.0,0.0,0.0,0.0,0.0,0.0,0.0,0.0,0.0,0.0,0.0,0.0,0.0,0.0,0.0,0.0,0.0,0.0,0.0,0.0,0.0,0.0,0.0,0.0,0.0,0.0,0.0,0.0,0.0,0.0,0.0,0.0,0.0,0.0,0.0,0.0,0.0,0.0,0.0,0.0,0.0,0.0,0.0,0.0,0.0,0.0,0.0,0.0,0.0,0.0,0.0,0.0,0.0,0.0,0.0,0.0,0.0,0.0,0.0,0.0,0.0,0.0,7.0461,7.0858,7.0825,6.9181,6.6522,0.0,0.0,0.0,0.0,0.0,0.0,0.0,0.0,0.0,0.0,0.0,0.0,0.0,0.0,0.0,0.0,0.0,0.0,0.0,0.0,0.0,0.0,0.0,0.0,0.0,0.0,0.0,0.0,0.0,0.0,0.0,0.0,0.0,0.0,0.0,0.0,0.0,0.0,0.0,0.0,0.0,0.0,0.0,0.0,0.0,0.0,0.0,0.0,0.0,0.0,0.0,0.0,0.0,0.0,0.0,0.0,0.0,0.0,0.0,0.0,0.0,0.0,0.0,0.0,0.0,0.0,0.0,0.0,0.0,0.0,0.0,0.0,0.0,0.0,0.0,0.0,0.0,0.0,0.0,0.0,0.0,0.0,0.0,0.0,0.0,0.0,0.0,0.0,0.0,0.0,0.0,0.0,0.0,0.0,0.0,0.0,0.0,0.0,0.0,0.0,0.0,0.0,0.0,0.0,0.0,0.0,0.0,0.0,0.0,6.844,6.9566,6.9964,6.9467,6.8413,6.6245,0.0,0.0,0.0,0.0,0.0,0.0,0.0,0.0,0.0,0.0,0.0,0.0,0.0,0.0,0.0,0.0,0.0,0.0,0.0,0.0,0.0,0.0,0.0,0.0,0.0,0.0,0.0,0.0,0.0,0.0,0.0,0.0,0.0,0.0,0.0,0.0,0.0,0.0,0.0,0.0,0.0,0.0,0.0,0.0,0.0,0.0,0.0,0.0,0.0,0.0,0.0,0.0,0.0,0.0,0.0,0.0,0.0,0.0,0.0,0.0,0.0,0.0,0.0,0.0,0.0,0.0,0.0,0.0,0.0,0.0,0.0,0.0,0.0,0.0,0.0,0.0,0.0,0.0,0.0,0.0,0.0,0.0,0.0,0.0,0.0,0.0,0.0,0.0,0.0,0.0,0.0,0.0,0.0,0.0,0.0,0.0,0.0,0.0,0.0,0.0,0.0,0.0,0.0,0.0,0.0,0.0,0.0,0.0,0.0,6.7976,0.0,6.9301,0.0,6.7877,6.5898,0.0,0.0,0.0,0.0,0.0,0.0,0.0,0.0,0.0,0.0,0.0,0.0,0.0,0.0,0.0,0.0,0.0,0.0,0.0,0.0,0.0,0.0,0.0,0.0,0.0,0.0,0.0,0.0,0.0,0.0,0.0,0.0,0.0,0.0,0.0,0.0,0.0,0.0,0.0,0.0,0.0,0.0,0.0,0.0,0.0,0.0,0.0,0.0,0.0,0.0,0.0,0.0,0.0,0.0,0.0,0.0,0.0,0.0,0.0,0.0,0.0,0.0,0.0,0.0,0.0,0.0,0.0,0.0,0.0,0.0,0.0,0.0,0.0,0.0,0.0,0.0,0.0,0.0,0.0,0.0,0.0,0.0,0.0,0.0,0.0,0.0,0.0,0.0,0.0,0.0,0.0,0.0,0.0,0.0,0.0,0.0,0.0,0.0,0.0,0.0,0.0,0.0,0.0,0.0,0.0,0.0,0.0,0.0,0.0,6.8639,6.8705,6.9103,6.9699,6.7711,6.5525,0.0,0.0,0.0,0.0,0.0,0.0,0.0,0.0,0.0,0.0,0.0,0.0,0.0,0.0,0.0,0.0,0.0,0.0,0.0,0.0,0.0,0.0,0.0,0.0,0.0,0.0,0.0,0.0,0.0,0.0,0.0,0.0,0.0,0.0,0.0,0.0,0.0,0.0,0.0,0.0,0.0,0.0,0.0,0.0,0.0,0.0,0.0,0.0,0.0,0.0,0.0,0.0,0.0,0.0,0.0,0.0,0.0,0.0,0.0,0.0,0.0,0.0,0.0,0.0,0.0,0.0,0.0,0.0,0.0,0.0,0.0,0.0,0.0,0.0,0.0,0.0,0.0,0.0,0.0,0.0,0.0,0.0,0.0,0.0,0.0,0.0,0.0,0.0,0.0,0.0,0.0,0.0,0.0,0.0,0.0,0.0,0.0,0.0,0.0,0.0,0.0,0.0,0.0,0.0,0.0,0.0,0.0,0.0,0.0,6.8672,6.9169,6.9566,6.9732,6.8175,6.6022,0.0,0.0,0.0,0.0,0.0,0.0,0.0,0.0,0.0,0.0,0.0,0.0,0.0,0.0,0.0,0.0,0.0,0.0,0.0,0.0,0.0,0.0,0.0,0.0,0.0,0.0,0.0,0.0,0.0,0.0,0.0,0.0,0.0,0.0,0.0,0.0,0.0,0.0,0.0,0.0,0.0,0.0,0.0,0.0,0.0,0.0,0.0,0.0,0.0,0.0,0.0,0.0,0.0,0.0,0.0,0.0,0.0,0.0,0.0,0.0,0.0,0.0,0.0,0.0,0.0,0.0,0.0,0.0,0.0,0.0,0.0,0.0,0.0,0.0,0.0,0.0,0.0,0.0,0.0,0.0,0.0,0.0,0.0,0.0,0.0,0.0,0.0,0.0,0.0,0.0,0.0,0.0,0.0,0.0,0.0,0.0,0.0,0.0,0.0,0.0,0.0,0.0,0.0,0.0,0.0,0.0,0.0,0.0,0.0,7.1057,7.1057,7.1289,7.1819,6.9898,6.7479,6.4564,0.0,0.0,0.0,0.0,0.0,0.0,0.0,0.0,0.0,0.0,0.0,0.0,0.0,0.0,0.0,0.0,0.0,0.0,0.0,0.0,0.0,0.0,0.0,0.0,0.0,0.0,0.0,0.0,0.0,0.0,0.0,0.0,0.0,0.0,0.0,0.0,0.0,0.0,0.0,0.0,0.0,0.0,0.0,0.0,0.0,0.0,0.0,0.0,0.0,0.0,0.0,0.0,0.0,0.0,0.0,0.0,0.0,0.0,0.0,0.0,0.0,0.0,0.0,0.0,0.0,0.0,0.0,0.0,0.0,0.0,0.0,0.0,0.0,0.0,0.0,0.0,0.0,0.0,0.0,0.0,0.0,0.0,0.0,0.0,0.0,0.0,0.0,0.0,0.0,0.0,0.0,0.0,0.0,0.0,0.0,0.0,0.0,0.0,0.0,0.0,0.0,0.0,0.0,0.0,0.0,0.0,0.0,0.0,7.5529,7.4403,7.437,7.543,7.2713,6.9765,0.0,0.0,0.0,0.0,0.0,0.0,0.0,0.0,0.0,0.0,0.0,0.0,0.0,0.0,0.0,0.0,0.0,0.0,0.0,0.0,0.0,0.0,0.0,0.0,0.0,0.0,0.0,0.0,0.0,0.0,0.0,0.0,0.0,0.0,0.0,0.0,0.0,0.0,0.0,0.0,0.0,0.0,0.0,0.0,0.0,0.0,0.0,0.0,0.0,0.0,0.0,0.0,0.0,0.0,0.0,0.0,0.0,0.0,0.0,0.0,0.0,0.0,0.0,0.0,0.0,0.0,0.0,0.0,0.0,0.0,0.0,0.0,0.0,0.0,0.0,0.0,0.0,0.0,0.0,0.0,0.0,0.0,0.0,0.0,0.0,0.0,0.0,0.0,0.0,0.0,0.0,0.0,0.0,0.0,0.0,0.0,0.0,0.0,0.0,0.0,0.0,0.0,0.0,0.0,0.0,0.0,0.0,0.0,0.0,7.9107,8.1028,8.0863,7.8544,7.6159,7.3011,0.0,0.0,0.0,0.0,0.0,0.0,0.0,0.0,0.0,0.0,0.0,0.0,0.0,0.0,0.0,0.0,0.0,0.0,0.0,0.0,0.0,0.0,0.0,0.0,0.0,0.0,0.0,0.0,0.0,0.0,0.0,0.0,0.0,0.0,0.0,0.0,0.0,0.0,0.0,0.0,0.0,0.0,0.0,0.0,0.0,0.0,0.0,0.0,0.0,0.0,0.0,0.0,0.0,0.0,0.0,0.0,0.0,0.0,0.0,0.0,0.0,0.0,0.0,0.0,0.0,0.0,0.0,0.0,0.0,0.0,0.0,0.0,0.0,0.0,0.0,0.0,0.0,0.0,0.0,0.0,0.0,0.0,0.0,0.0,0.0,0.0,0.0,0.0,0.0,0.0,0.0,0.0,0.0,0.0,0.0,0.0,0.0,0.0,0.0,0.0,0.0,0.0,0.0,0.0,0.0,0.0,0.0,0.0,7.7252,8.1989,8.5567,8.6362,8.4241,8.0598,7.6291,0.0,0.0,0.0,0.0,0.0,0.0,0.0,0.0,0.0,0.0,0.0,0.0,0.0,0.0,0.0,0.0,0.0,0.0,0.0,0.0,0.0,0.0,0.0,0.0,0.0,0.0,0.0,0.0,0.0,0.0,0.0,0.0,0.0,0.0,0.0,0.0,0.0,0.0,0.0,0.0,0.0,0.0,0.0,0.0,0.0,0.0,0.0,0.0,0.0,0.0,0.0,0.0,0.0,0.0,0.0,0.0,0.0,0.0,0.0,0.0,0.0,0.0,0.0,0.0,0.0,0.0,0.0,0.0,0.0,0.0,0.0,0.0,0.0,0.0,0.0,0.0,0.0,0.0,0.0,0.0,0.0,0.0,0.0,0.0,0.0,0.0,0.0,0.0,0.0,0.0,0.0,0.0,0.0,0.0,0.0,0.0,0.0,0.0,0.0,0.0,0.0,0.0,0.0,0.0,0.0,0.0,0.0,0.0,7.9935,8.4374,8.8714,9.0966,9.0801,8.5302,7.9504,0.0,0.0,0.0,0.0,0.0,0.0,0.0,0.0,0.0,0.0,0.0,0.0,0.0,0.0,0.0,0.0,0.0,0.0,0.0,0.0,0.0,0.0,0.0,0.0,0.0,0.0,0.0,0.0,0.0,0.0,0.0,0.0,0.0,0.0,0.0,0.0,0.0,0.0,0.0,0.0,0.0,0.0,0.0,0.0,0.0,0.0,0.0,0.0,0.0,0.0,0.0,0.0,0.0,0.0,0.0,0.0,0.0,0.0,0.0,0.0,0.0,0.0,0.0,0.0,0.0,0.0,0.0,0.0,0.0,0.0,0.0,0.0,0.0,0.0,0.0,0.0,0.0,0.0,0.0,0.0,0.0,0.0,0.0,0.0,0.0,0.0,0.0,0.0,0.0,0.0,0.0,0.0,0.0,0.0,0.0,0.0,0.0,0.0,0.0,0.0,0.0,0.0,0.0,0.0,0.0,0.0,0.0,0.0,8.2386,8.7322,9.1695,9.3981,9.3948,8.8283,8.2486,0.0,0.0,0.0,0.0,0.0,0.0,0.0,0.0,0.0,0.0,0.0,0.0,0.0,0.0,0.0,0.0,0.0,0.0,0.0,0.0,0.0,0.0,0.0,0.0,0.0,0.0,0.0,0.0,0.0,0.0,0.0,0.0,0.0,0.0,0.0,0.0,0.0,0.0,0.0,0.0,0.0,0.0,0.0,0.0,0.0,0.0,0.0,0.0,5.576,0.0,0.0,0.0,0.0,0.0,0.0,0.0,0.0,0.0,0.0,0.0,0.0,0.0,0.0,0.0,0.0,0.0,0.0,0.0,0.0,0.0,0.0,0.0,0.0,0.0,0.0,0.0,0.0,0.0,0.0,0.0,0.0,0.0,0.0,0.0,0.0,0.0,0.0,0.0,0.0,0.0,0.0,0.0,0.0,0.0,0.0,0.0,0.0,0.0,0.0,0.0,0.0,0.0,0.0,0.0,0.0,0.0,0.0,0.0,8.4208,8.9244,9.3318,9.5438,9.524,9.0734,8.5136,0.0,0.0,0.0,0.0,0.0,0.0,0.0,0.0,0.0,0.0,0.0,0.0,0.0,0.0,0.0,0.0,0.0,0.0,0.0,0.0,0.0,0.0,0.0,0.0,0.0,0.0,0.0,0.0,0.0,0.0,0.0,0.0,0.0,0.0,0.0,0.0,0.0,0.0,0.0,0.0,0.0,0.0,0.0,0.0,0.0,0.0,0.0,0.0,0.0,0.0,0.0,0.0,0.0,0.0,0.0,0.0,0.0,0.0,0.0,0.0,0.0,0.0,0.0,0.0,0.0,0.0,0.0,0.0,0.0,0.0,0.0,0.0,0.0,0.0,0.0,0.0,0.0,0.0,0.0,0.0,0.0,0.0,0.0,0.0,0.0,0.0,0.0,0.0,0.0,0.0,0.0,0.0,0.0,0.0,0.0,0.0,0.0,0.0,0.0,0.0,0.0,0.0,0.0,0.0,0.0,0.0,0.0,8.0266,8.5832,9.0734,9.4544,9.6399,9.6134,9.2523,8.7223,8.02,0.0,0.0,0.0,0.0,0.0,0.0,0.0,0.0,0.0,0.0,0.0,0.0,0.0,0.0,0.0,0.0,0.0,0.0,0.0,0.0,0.0,0.0,0.0,0.0,0.0,0.0,0.0,0.0,0.0,0.0,0.0,0.0,0.0,0.0,0.0,0.0,0.0,0.0,5.2979,5.7052,0.0,0.0,0.0,0.0,0.0,0.0,0.0,0.0,5.8715,0.0,0.0,0.0,0.0,0.0,0.0,0.0,0.0,0.0,0.0,0.0,0.0,0.0,0.0,0.0,0.0,0.0,0.0,0.0,0.0,0.0,0.0,0.0,0.0,0.0,0.0,0.0,0.0,0.0,0.0,0.0,0.0,0.0,0.0,0.0,0.0,0.0,0.0,0.0,0.0,0.0,0.0,0.0,0.0,0.0,0.0,0.0,0.0,0.0,0.0,0.0,0.0,0.0,0.0,0.0,0.0,7.4138,8.1724,8.7819,9.2258,9.6532,9.8155,9.6896,9.2755,8.7654,8.1624,0.0,0.0,0.0,0.0,0.0,0.0,0.0,0.0,0.0,0.0,0.0,0.0,0.0,0.0,0.0,0.0,0.0,0.0,0.0,0.0,0.0,0.0,0.0,0.0,0.0,0.0,0.0,0.0,0.0,0.0,0.0,0.0,0.0,0.0,0.0,0.0,0.0,0.0,0.0,5.9727,6.1612,0.0,0.0,0.0,0.0,0.0,0.0,0.0,0.0,5.9664,0.0,0.0,0.0,0.0,0.0,0.0,0.0,0.0,0.0,0.0,0.0,0.0,0.0,0.0,0.0,0.0,0.0,0.0,0.0,0.0,0.0,0.0,0.0,0.0,0.0,0.0,0.0,0.0,0.0,0.0,0.0,0.0,0.0,0.0,0.0,0.0,0.0,0.0,0.0,0.0,0.0,0.0,0.0,0.0,0.0,0.0,0.0,0.0,0.0,0.0,0.0,0.0,0.0,0.0,0.0,7.5894,8.3049,8.9045,9.3749,9.7426,9.8585,9.7062,9.2821,8.7786,0.0,0.0,0.0,0.0,0.0,0.0,0.0,0.0,0.0,0.0,0.0,0.0,0.0,0.0,0.0,0.0,0.0,0.0,0.0,0.0,0.0,0.0,0.0,0.0,0.0,0.0,0.0,0.0,0.0,0.0,0.0,0.0,0.0,0.0,0.0,0.0,0.0,0.0,0.0,0.0,6.1659,6.3871,6.5482,0.0,0.0,0.0,0.0,0.0,0.0,6.2436,6.1916,0.0,0.0,0.0,0.0,0.0,0.0,0.0,0.0,0.0,0.0,0.0,0.0,0.0,0.0,0.0,0.0,0.0,0.0,0.0,0.0,0.0,0.0,0.0,0.0,0.0,0.0,0.0,0.0,0.0,0.0,0.0,0.0,0.0,0.0,0.0,0.0,0.0,0.0,0.0,0.0,0.0,0.0,0.0,0.0,0.0,0.0,0.0,0.0,0.0,0.0,0.0,0.0,0.0,0.0,0.0,7.7384,8.4208,9.0105,9.4975,9.7989,9.8652,9.6896,9.2623,8.7554,0.0,0.0,0.0,0.0,0.0,0.0,0.0,0.0,0.0,0.0,0.0,0.0,0.0,0.0,0.0,0.0,0.0,0.0,0.0,0.0,0.0,0.0,0.0,0.0,0.0,0.0,0.0,0.0,0.0,0.0,0.0,0.0,0.0,0.0,0.0,0.0,0.0,0.0,0.0,0.0,0.0,6.6257,6.8857,6.8585,0.0,0.0,0.0,0.0,6.6635,6.5952,0.0,0.0,0.0,0.0,0.0,0.0,0.0,0.0,0.0,0.0,0.0,0.0,0.0,0.0,0.0,0.0,0.0,0.0,0.0,0.0,0.0,0.0,0.0,0.0,0.0,0.0,0.0,0.0,0.0,0.0,0.0,0.0,0.0,0.0,0.0,0.0,0.0,0.0,0.0,0.0,0.0,0.0,0.0,0.0,0.0,0.0,0.0,0.0,0.0,0.0,0.0,0.0,0.0,0.0,0.0,0.0,7.7417,8.5169,9.1331,9.5736,9.8685,9.8883,9.6167,9.1828,8.6792,0.0,0.0,0.0,0.0,0.0,0.0,0.0,0.0,0.0,0.0,0.0,0.0,0.0,0.0,0.0,0.0,0.0,0.0,0.0,0.0,0.0,0.0,0.0,0.0,0.0,0.0,0.0,0.0,0.0,0.0,0.0,0.0,0.0,0.0,0.0,0.0,0.0,0.0,0.0,0.0,0.0,6.8681,7.1068,7.1325,7.107,0.0,0.0,7.0355,7.1076,7.0799,0.0,0.0,0.0,0.0,0.0,0.0,0.0,0.0,0.0,0.0,0.0,0.0,0.0,0.0,0.0,0.0,0.0,0.0,0.0,0.0,0.0,0.0,0.0,0.0,0.0,0.0,0.0,0.0,0.0,0.0,0.0,0.0,0.0,0.0,0.0,0.0,0.0,0.0,0.0,0.0,0.0,0.0,0.0,0.0,0.0,0.0,0.0,0.0,0.0,0.0,0.0,0.0,0.0,0.0,0.0,7.1653,7.861,8.6163,9.2192,9.6498,9.9049,9.8917,9.6068,9.1728,8.6494,0.0,0.0,0.0,0.0,0.0,0.0,0.0,0.0,0.0,0.0,0.0,0.0,0.0,0.0,0.0,0.0,0.0,0.0,0.0,0.0,0.0,0.0,0.0,0.0,0.0,0.0,0.0,0.0,0.0,0.0,0.0,0.0,0.0,0.0,0.0,0.0,0.0,0.0,0.0,0.0,0.0,0.0,7.3944,7.4678,0.0,0.0,0.0,7.457,7.5292,0.0,0.0,0.0,0.0,0.0,0.0,0.0,0.0,0.0,0.0,0.0,0.0,0.0,0.0,0.0,0.0,0.0,0.0,0.0,0.0,0.0,0.0,0.0,0.0,0.0,0.0,0.0,0.0,0.0,0.0,0.0,0.0,0.0,0.0,0.0,0.0,0.0,0.0,0.0,0.0,0.0,0.0,0.0,0.0,0.0,0.0,0.0,0.0,0.0,0.0,0.0,0.0,0.0,0.0,0.0,0.0,0.0,7.9802,8.7057,9.2921,9.726,9.9281,9.9016,9.63,9.1993,0.0,0.0,0.0,0.0,0.0,0.0,0.0,0.0,0.0,0.0,0.0,0.0,0.0,0.0,0.0,0.0,0.0,0.0,0.0,0.0,0.0,0.0,0.0,0.0,0.0,0.0,0.0,4.598,0.0,0.0,0.0,0.0,0.0,0.0,0.0,0.0,0.0,0.0,0.0,0.0,0.0,0.0,7.1714,7.6299,7.7697,7.8683,0.0,0.0,7.8914,7.9474,7.8705,7.6998,0.0,0.0,0.0,0.0,0.0,0.0,0.0,0.0,0.0,0.0,0.0,0.0,0.0,0.0,0.0,0.0,0.0,0.0,0.0,0.0,0.0,0.0,0.0,0.0,0.0,0.0,0.0,0.0,0.0,0.0,0.0,0.0,0.0,0.0,0.0,0.0,0.0,0.0,0.0,0.0,0.0,0.0,0.0,0.0,0.0,0.0,0.0,0.0,0.0,0.0,0.0,0.0,0.0,0.0,0.0,8.0564,8.7819,9.3649,9.7956,9.9546,9.9281,9.7062,9.2755,8.7687,0.0,0.0,0.0,0.0,0.0,0.0,0.0,0.0,0.0,0.0,0.0,0.0,0.0,0.0,0.0,0.0,0.0,0.0,0.0,0.0,0.0,0.0,0.0,0.0,0.0,0.0,0.0,0.0,0.0,0.0,0.0,0.0,0.0,0.0,0.0,0.0,0.0,0.0,0.0,0.0,0.0,7.3318,7.7151,8.0096,8.2213,0.0,0.0,8.3579,8.3612,8.2419,8.0421,7.7289,0.0,0.0,0.0,0.0,0.0,0.0,0.0,0.0,0.0,0.0,0.0,0.0,0.0,0.0,0.0,0.0,0.0,0.0,0.0,0.0,0.0,0.0,0.0,0.0,0.0,0.0,0.0,0.0,0.0,0.0,0.0,0.0,0.0,0.0,0.0,0.0,0.0,0.0,0.0,0.0,0.0,0.0,0.0,0.0,0.0,0.0,0.0,0.0,0.0,0.0,0.0,0.0,0.0,7.4072,8.1293,8.8117,9.3716,9.7989,9.9579,9.9513,9.779,9.3484,8.8415,0.0,0.0,0.0,0.0,0.0,0.0,0.0,0.0,0.0,0.0,0.0,0.0,0.0,0.0,0.0,0.0,0.0,0.0,0.0,0.0,0.0,0.0,0.0,0.0,0.0,0.0,0.0,0.0,5.0608,5.0396,4.9434,0.0,0.0,0.0,0.0,0.0,0.0,0.0,0.0,0.0,0.0,7.4314,7.9219,8.1374,0.0,0.0,8.4687,8.4573,8.5268,8.3745,8.1381,7.8254,7.3797,0.0,0.0,0.0,0.0,0.0,0.0,0.0,0.0,0.0,0.0,0.0,0.0,0.0,0.0,0.0,0.0,0.0,0.0,0.0,0.0,0.0,0.0,0.0,0.0,0.0,0.0,0.0,0.0,0.0,0.0,0.0,0.0,0.0,0.0,0.0,0.0,0.0,0.0,0.0,0.0,0.0,0.0,0.0,0.0,0.0,0.0,0.0,0.0,0.0,0.0,0.0,0.0,7.4701,8.1757,8.8482,9.3948,9.8088,9.9579,9.9745,9.842,9.4445,8.9707,0.0,0.0,0.0,0.0,0.0,0.0,0.0,0.0,0.0,0.0,0.0,0.0,0.0,0.0,0.0,0.0,0.0,0.0,0.0,0.0,0.0,0.0,0.0,0.0,0.0,0.0,0.0,0.0,5.1606,5.0725,4.9643,0.0,0.0,0.0,0.0,0.0,0.0,0.0,0.0,0.0,0.0,7.5016,8.0227,8.2247,8.3942,8.5976,8.5636,8.5347,8.5567,8.3844,8.148,7.8428,0.0,0.0,0.0,0.0,0.0,0.0,0.0,0.0,0.0,0.0,0.0,0.0,0.0,0.0,0.0,0.0,0.0,0.0,0.0,0.0,0.0,0.0,0.0,0.0,0.0,0.0,0.0,0.0,0.0,0.0,5.9911,0.0,0.0,0.0,0.0,0.0,0.0,0.0,0.0,0.0,0.0,0.0,0.0,0.0,0.0,0.0,0.0,0.0,0.0,0.0,0.0,0.0,0.0,0.0,8.1757,8.8945,9.4445,9.8055,9.9579,9.9977,9.9215,9.567,9.1662,8.7157,0.0,0.0,0.0,0.0,0.0,0.0,0.0,0.0,0.0,0.0,0.0,0.0,0.0,0.0,0.0,0.0,0.0,0.0,0.0,0.0,0.0,0.0,0.0,0.0,0.0,0.0,5.2849,5.1182,5.0272,0.0,0.0,0.0,0.0,0.0,0.0,0.0,0.0,0.0,0.0,7.0295,7.5451,7.9489,8.2707,8.4689,8.5187,8.6009,8.6105,8.444,8.2817,8.0829,0.0,0.0,0.0,0.0,0.0,0.0,0.0,0.0,0.0,0.0,0.0,0.0,0.0,0.0,0.0,0.0,0.0,0.0,0.0,0.0,0.0,0.0,0.0,0.0,0.0,0.0,0.0,6.5463,6.4724,0.0,0.0,0.0,0.0,0.0,0.0,0.0,0.0,0.0,0.0,0.0,7.1951,7.2216,0.0,0.0,0.0,0.0,0.0,0.0,0.0,0.0,0.0,0.0,0.0,0.0,7.596,8.2486,8.9244,9.4478,9.8055,9.9579,10.0209,9.9944,9.6929,9.1828,8.4573,0.0,0.0,0.0,0.0,0.0,0.0,0.0,0.0,0.0,0.0,0.0,0.0,0.0,0.0,0.0,0.0,0.0,0.0,0.0,0.0,0.0,0.0,0.0,0.0,0.0,5.5405,0.0,0.0,0.0,0.0,0.0,0.0,0.0,0.0,0.0,0.0,0.0,6.2263,6.7365,7.1442,7.5496,7.9795,8.1666,8.3288,0.0,0.0,0.0,0.0,0.0,0.0,0.0,0.0,0.0,0.0,0.0,0.0,0.0,0.0,6.62,6.1901,6.0606,6.0176,6.0386,0.0,0.0,0.0,0.0,0.0,0.0,0.0,0.0,0.0,0.0,0.0,0.0,0.0,0.0,6.9736,0.0,6.6953,0.0,0.0,0.0,0.0,0.0,0.0,0.0,0.0,7.2182,7.4701,7.6821,7.7351,7.7318,0.0,7.5098,7.1421,0.0,0.0,0.0,0.0,0.0,0.0,0.0,0.0,7.6954,8.3248,8.9741,9.4743,9.8055,9.9579,10.0308,10.0242,9.726,9.2093,8.4639,7.9537,7.48,0.0,0.0,0.0,0.0,0.0,0.0,0.0,0.0,0.0,0.0,0.0,0.0,0.0,0.0,0.0,0.0,0.0,0.0,0.0,0.0,0.0,0.0,0.0,5.5956,0.0,0.0,0.0,0.0,0.0,0.0,0.0,0.0,0.0,5.7092,6.0445,6.4352,6.888,7.2085,7.5389,7.9088,0.0,0.0,0.0,0.0,0.0,0.0,0.0,8.2519,8.1359,8.0962,8.0554,7.9903,7.899,7.8578,7.8875,0.0,0.0,6.8515,6.6763,6.6342,6.646,6.6819,6.7358,6.8256,6.9004,6.9752,0.0,0.0,0.0,0.0,0.0,0.0,0.0,0.0,7.5372,7.5071,0.0,7.1259,0.0,0.0,0.0,0.0,0.0,6.8219,0.0,0.0,7.702,7.9869,8.2022,8.338,8.3347,8.1956,7.9769,7.7616,7.5198,6.9003,0.0,0.0,0.0,0.0,0.0,0.0,7.8212,8.401,9.0436,9.5173,9.8088,9.9546,10.0242,10.0142,9.683,9.2656,8.7654,8.3943,7.9968,7.5662,7.0626,0.0,0.0,0.0,0.0,0.0,0.0,0.0,0.0,0.0,0.0,0.0,0.0,0.0,0.0,0.0,0.0,0.0,0.0,0.0,0.0,5.709,0.0,0.0,0.0,0.0,0.0,0.0,0.0,0.0,0.0,0.0,6.0505,6.3199,6.6252,6.9356,0.0,0.0,0.0,0.0,8.2683,8.4172,8.5498,8.6371,8.631,8.5732,8.5037,8.4341,0.0,0.0,8.6798,8.6732,8.6157,8.5728,8.5025,8.2713,7.5846,7.3637,7.2912,7.3087,7.3103,7.3582,7.4749,7.5377,7.6066,8.4088,0.0,0.0,0.0,0.0,7.7513,7.8515,7.8941,7.9702,7.9063,7.7395,7.6038,0.0,0.0,0.0,0.0,0.0,0.0,7.5831,7.861,8.1227,8.4142,8.719,8.6627,8.6627,8.7123,8.4506,8.2618,8.1326,7.6954,7.1819,6.6154,0.0,0.0,0.0,0.0,7.9438,8.4771,9.0204,9.4676,9.8088,9.9082,9.9314,9.8784,9.7293,9.4809,9.1264,8.8117,8.4672,8.0829,7.5827,0.0,0.0,0.0,0.0,0.0,0.0,0.0,0.0,0.0,0.0,0.0,0.0,0.0,0.0,0.0,0.0,0.0,0.0,0.0,5.9935,5.9649,5.8656,0.0,0.0,0.0,0.0,0.0,0.0,0.0,0.0,0.0,6.6819,6.7537,6.9183,0.0,0.0,7.6313,7.8654,8.104,8.324,8.5373,8.6755,0.0,8.8754,8.8526,8.8283,8.8614,8.9674,9.0834,9.1636,9.1262,9.0848,9.0607,8.9256,8.709,8.467,8.1197,7.8971,7.8633,7.8549,7.8789,7.9597,7.9986,8.0285,8.984,8.4365,8.2151,8.0822,8.0215,8.2085,8.2832,8.2942,8.4105,8.3427,8.1459,8.0276,7.8358,7.5801,7.4306,0.0,0.0,0.0,7.9769,8.2088,8.4871,8.7488,8.9741,8.9873,9.0006,9.0171,8.8217,8.6726,8.5666,8.2618,7.861,7.3707,0.0,0.0,7.0991,7.639,8.1393,8.5931,9.0701,9.4643,9.7691,9.8453,9.8486,9.779,9.7327,9.6001,9.3649,9.1297,8.8647,8.5567,8.0631,7.586,0.0,0.0,0.0,0.0,0.0,0.0,0.0,0.0,0.0,0.0,0.0,5.5123,0.0,0.0,0.0,0.0,5.9102,6.0627,6.1945,6.1916,0.0,0.0,0.0,0.0,0.0,0.0,0.0,6.3528,6.637,6.9213,7.1936,7.2654,7.3492,7.5078,7.6288,7.7684,7.9667,0.0,8.4195,8.6921,8.8468,8.9968,9.1597,9.1784,9.2132,9.302,9.3815,9.4809,9.577,9.5408,9.4735,9.4206,9.2525,9.0642,8.9199,8.6273,8.3642,8.262,8.235,8.2589,8.3187,8.3337,8.3517,9.4312,9.2556,8.8413,8.5911,8.4983,8.6414,8.7294,8.7654,8.8349,8.7819,8.6295,8.4308,8.2188,8.0001,7.8643,0.0,7.8146,8.0995,8.3115,8.4672,8.8084,9.0105,9.0966,9.2854,9.3119,9.1828,9.1066,9.0006,8.8614,8.6494,8.4738,8.3215,7.7848,7.4999,7.4966,7.9537,8.3745,8.7322,9.1496,9.4776,9.7062,9.779,9.7857,9.7128,9.7062,9.63,9.4842,9.3384,9.1629,8.9409,8.4672,8.0001,7.5662,0.0,0.0,0.0,0.0,0.0,0.0,0.0,0.0,0.0,0.0,0.0,0.0,0.0,0.0,0.0,6.2015,0.0,6.4188,6.435,0.0,0.0,0.0,6.2439,6.3416,6.4748,6.634,6.8286,0.0,0.0,7.5976,7.7891,7.8489,7.6754,7.7725,7.9224,8.0658,8.296,8.554,8.8499,9.0606,9.2495,9.4147,9.4945,9.5508,9.6433,9.7161,9.7558,9.8718,9.8368,9.7773,9.7068,9.5258,9.2938,9.0804,8.8899,8.7426,8.5168,8.4833,8.5013,8.5492,8.5611,8.5761,9.6532,9.5074,9.3445,9.1289,8.9232,9.0659,9.1057,9.0635,9.1331,9.0502,8.8614,8.8084,8.6362,8.3778,8.3446,8.3281,8.3413,8.5699,8.7554,8.9045,9.0999,9.2589,9.3848,9.3848,9.3914,9.4014,9.2788,9.1993,9.1529,8.9442,8.7919,8.6925,8.454,8.1923,7.9339,8.2022,8.5003,8.8051,9.0734,9.3749,9.6995,9.7823,9.7823,9.7128,9.6565,9.5571,9.4113,9.2623,9.1099,8.9442,8.5633,8.1724,7.7914,7.2051,0.0,0.0,0.0,0.0,0.0,0.0,0.0,0.0,0.0,5.7044,5.9065,0.0,5.9827,0.0,6.4431,6.7114,6.873,6.9343,0.0,0.0,6.8102,6.8458,6.888,6.9742,7.1009,7.3013,7.5258,7.7203,7.8699,8.0584,8.1841,8.1841,8.1539,8.1804,8.3247,8.5593,8.7826,8.964,9.1699,9.3507,9.4636,9.5558,9.6465,9.6962,9.7558,9.8254,9.9149,9.8566,9.8035,9.7749,9.6173,9.4143,9.1791,9.0375,8.9052,8.7205,8.6367,8.624,8.6419,8.6419,8.6479,9.7989,9.6929,9.6167,9.4743,9.302,9.3484,9.3252,9.2656,9.3351,9.2623,9.0834,8.984,8.8349,8.6593,8.6892,8.7024,8.719,8.9277,9.0701,9.1562,9.2987,9.4113,9.4875,9.4809,9.4809,9.4875,9.4047,9.3484,9.3119,9.196,9.0834,8.9741,8.8979,8.7223,8.4705,8.5169,8.656,8.878,9.1629,9.4213,9.6498,9.6664,9.6532,9.6101,9.4743,9.3649,9.2821,9.1099,8.9741,8.8879,8.5765,8.2618,7.9604,7.4568,6.9798,0.0,0.0,0.0,0.0,0.0,0.0,0.0,0.0,0.0,0.0,0.0,6.3935,6.6353,6.8876,7.1226,7.3171,7.3763,7.3921,7.3675,7.3634,7.3912,7.4279,7.5097,7.6223,7.7352,7.9238,8.0734,8.1512,8.3008,8.4205,8.4564,8.4359,8.4545,8.5455,8.6944,8.8617,9.0477,9.231,9.4025,9.5242,9.631,9.7023,9.7325,9.7789,9.832,9.8718,9.8345,9.7888,9.7742,9.6384,9.4641,9.2707,9.1509,9.0097,8.8468,8.7845,8.7621,8.6907,8.6689,8.6689,9.8917,9.8254,9.7525,9.6896,9.6233,9.5571,9.4842,9.4146,9.4776,9.4246,9.2854,9.0867,8.9641,8.9078,8.9674,8.9972,9.0105,9.2059,9.2987,9.3053,9.4411,9.5041,9.5074,9.5703,9.567,9.5041,9.5041,9.471,9.408,9.3981,9.3285,9.2026,9.1728,9.0966,8.9707,8.8349,8.8415,8.984,9.3086,9.5173,9.5968,9.5273,9.4842,9.4676,9.2623,9.1297,9.0999,8.9012,8.7819,8.7554,8.5103,8.2751,8.0598,7.6689,7.2614,0.0,6.6287,0.0,0.0,0.0,0.0,0.0,0.0,0.0,0.0,6.7115,6.9202,7.2548,7.4237,7.5856,7.7594,7.8068,7.8437,7.873,7.8911,7.9009,7.9268,8.0264,8.1141,8.1391,8.2888,8.3965,8.3995,8.5073,8.5821,8.5791,8.612,8.6525,8.7062,8.7493,8.8624,9.0949,9.2416,9.4025,9.5651,9.6676,9.7085,9.7253,9.749,9.7923,9.8022,9.7754,9.7409,9.7307,9.6343,9.4859,9.3448,9.2412,9.1131,8.9299,8.9514,8.9294,8.7524,8.7147,8.7057,9.9182,9.9016,9.8287,9.789,9.7757,9.7592,9.6797,9.5604,9.5736,9.5306,9.4445,9.3418,9.2888,9.2788,9.2921,9.2987,9.302,9.4014,9.4478,9.4511,9.5372,9.5803,9.5803,9.5935,9.5935,9.5803,9.5803,9.5736,9.5571,9.4975,9.4544,9.4213,9.2457,9.1463,9.1132,0.0,0.0,0.0,9.3351,9.4643,9.5902,9.5273,9.461,9.3981,9.1861,0.0,8.815,8.656,8.5169,8.3976,8.2817,0.0,0.0,0.0,0.0,0.0,0.0,0.0,0.0,0.0,0.0,0.0,7.3475,7.2581,7.0196,7.268,7.5231,7.7152,7.914,8.0763,8.1645,8.2888,8.3509,8.3072,8.3513,8.3673,8.3581,8.4115,8.4572,8.4517,8.5237,8.5624,8.5372,8.6,8.6479,8.6539,8.6599,8.6787,8.7169,8.8001,8.9235,9.074,9.2353,9.3815,9.4717,9.523,9.5701,9.5837,9.6135,9.6664,9.7194,9.7027,9.6822,9.7069,9.6408,9.5239,9.3866,9.3655,9.2984,9.1131,9.1385,9.1022,8.8571,8.8396,8.8607,9.9579,0.0,9.8883,9.8519,0.0,9.8188,9.7757,9.7095,9.7062,9.6465,9.5405,9.4676,9.4146,9.3815,9.4179,9.4345,9.4378,9.5107,9.5438,9.5471,9.5836,9.6001,9.6001,9.6001,9.6001,9.6001,9.6001,9.6001,9.6001,9.5637,9.5273,9.4875,9.3782,9.3053,9.2689,9.2324,9.249,9.3219,9.3948,9.4875,9.5935,9.5273,9.4544,9.3749,0.0,0.0,0.0,0.0,0.0,0.0,0.0,0.0,0.0,0.0,0.0,7.6887,7.5463,7.4668,7.4701,7.533,7.639,7.7848,7.9935,7.9637,7.5993,7.8411,8.0564,8.1691,8.3446,8.4937,8.603,8.6942,8.7569,8.7659,8.7625,8.7444,8.6948,8.7197,8.7204,8.6549,8.688,8.7054,8.6945,8.7087,8.7317,8.7616,8.7676,8.7686,8.7863,8.8117,8.9021,9.0845,9.2171,9.3398,9.4052,9.4637,9.4874,9.5175,9.5574,9.6134,9.6498,9.64,9.6333,9.6588,9.648,9.5799,9.4735,9.4728,9.441,9.2847,9.3087,9.3172,9.1175,9.0393,8.9698,9.9977,9.948,9.9447,9.9115,9.8552,9.8552,9.8552,9.8552,0.0,0.0,0.0,9.5538,9.4875,9.4246,9.4842,9.5107,9.514,9.5736,9.6001,9.6001,9.6001,9.6001,9.6001,9.6001,9.6001,9.6001,9.6001,9.6001,9.6001,9.6001,9.5703,9.514,9.4975,9.461,9.4014,9.3981,9.4047,9.4213,9.4776,9.5438,9.6167,9.5471,9.4743,9.3981,9.1165,8.8945,8.7488,8.4904,8.3413,8.3281,8.2121,8.2022,8.3148,8.2121,8.1492,8.1426,8.0929,8.0399,7.9935,8.1128,8.2022,8.2386,8.5434,8.5832,8.232,8.3943,8.5467,8.6196,8.7455,8.8714,8.9873,9.0387,9.0773,9.1436,9.1133,9.0574,8.9892,8.9963,8.973,8.8592,8.847,8.8461,8.8375,8.8146,8.8065,8.8514,8.8574,8.8676,8.8526,8.8304,8.9053,9.0967,9.2048,9.2872,9.3679,9.4502,9.4874,9.5041,9.5574,9.6001,9.6001,9.6001,9.6102,9.6366,9.6331,9.5894,9.5278,9.5489,9.536,9.385,9.4424,9.5022,9.3762,9.2165,9.0768,10.0242,10.0175,10.0175,10.0109,10.001,10.001,10.001,9.991,9.8718,9.7724,9.6962,9.6863,9.6399,9.5703,9.5803,9.5869,9.5836,9.5968,9.6001,0.0,9.6001,9.6001,9.6001,9.6001,9.6001,9.6001,9.6001,9.6001,9.6001,9.6001,9.5935,9.5803,9.5206,9.4842,9.4743,9.4743,9.5041,9.567,9.577,9.62,9.6929,9.6233,9.5505,9.4676,9.1927,8.9674,8.8184,8.6593,8.5434,8.4838,8.4606,8.4606,8.4771,8.4639,8.4473,8.4473,8.4407,8.4573,8.507,8.5865,8.7157,8.9012,9.0767,9.0469,8.762,8.8714,8.9906,9.0602,9.1397,9.1993,9.2258,9.2666,9.2971,9.3104,9.3461,9.3501,9.266,9.3004,9.2826,9.1326,9.096,9.0244,8.9418,8.9159,8.8897,8.8856,8.8813,8.8826,8.9038,8.9047,8.957,9.0789,9.1665,9.2525,9.3679,9.4469,9.4874,9.5276,9.5706,9.6001,9.6001,9.6001,9.6068,9.6036,9.5937,9.5639,9.5372,9.5661,9.5643,9.5058,9.5425,9.5371,9.4239,9.319,9.2102,10.0672,10.0341,10.0308,10.0308,10.0308,10.0308,10.0308,10.0242,9.9612,9.895,9.8221,9.7459,9.6929,9.6565,9.6167,9.6001,9.6001,9.6001,9.6001,9.6035,9.6432,9.6598,9.6631,9.6995,9.7194,9.7161,9.6797,9.6598,9.6598,9.62,9.6001,9.6001,9.567,9.5505,9.5505,9.5505,9.567,9.6001,9.6001,9.6366,9.7062,9.6399,9.5836,9.5505,9.3384,9.1596,9.0138,8.9078,8.8184,8.7455,8.7455,8.762,8.8018,8.8051,8.8217,8.8581,8.8614,8.878,8.9078,8.9807,9.0999,9.2755,9.3881,9.4113,9.3186,9.2954,9.302,9.3384,9.4411,9.5074,9.5107,9.5606,9.5904,9.5639,9.5964,9.5781,9.5122,9.5045,9.4601,9.3276,9.2373,9.1609,9.0881,9.0304,9.0003,8.9948,8.9665,8.9365,8.9852,8.9675,8.9944,9.0938,9.1627,9.2557,9.354,9.4333,9.5009,9.5276,9.5706,9.6001,9.6001,9.6001,9.6001,9.6001,9.587,9.5706,9.5408,9.5868,9.6026,9.5813,9.6027,9.5716,9.4891,9.3574,9.1917,10.1103,10.0573,10.0374,10.0308,10.0308,10.0308,10.0308,10.0308,10.0308,10.001,9.938,9.8155,9.7492,9.7293,9.6763,9.6498,9.6498,9.6498,9.6498,9.6565,9.7095,9.736,9.7393,9.7923,9.8188,9.8122,9.7592,9.726,9.7062,9.6532,9.6167,9.6035,9.6001,9.6001,9.6001,9.6001,9.6001,9.6001,9.6001,9.6366,9.7062,9.6565,9.6266,9.6167,9.4809,9.3484,9.2358,9.1629,9.0999,9.0469,9.0403,9.0668,9.1231,9.143,9.1761,9.2258,9.2324,9.2391,9.2589,9.3086,9.408,9.5505,9.6167,9.673,9.7161,9.6465,9.5803,9.5803,9.6631,9.726,9.7293,9.7724,9.8021,9.7751,9.7916,9.7677,9.7128,9.6734,9.6123,9.5081,9.3899,9.3091,9.2566,9.1613,9.1021,9.1027,9.0519,9.0085,9.0322,9.0265,9.055,9.1235,9.1869,9.2558,9.3594,9.4431,9.5041,9.5408,9.5706,9.6001,9.6001,9.6001,9.6001,9.6001,9.6001,9.587,9.5607,9.597,9.6199,9.5996,9.6087,9.5897,9.4568,9.2826,9.133,10.1368,10.1202,10.0606,10.0308,10.0308,10.0308,10.0308,10.0308,10.0308,10.0275,10.0076,9.9414,9.8685,9.8122,9.7956,9.789,9.789,9.7956,9.7923,9.7923,9.8055,9.8088,9.8088,9.8155,9.8188,9.8221,9.8122,9.779,9.726,9.7062,9.6664,9.6068,9.6001,9.6001,9.6001,9.6001,9.6001,9.6001,9.6001,9.6366,9.7062,9.7062,9.7028,9.6995,9.5571,9.4743,9.4544,9.3881,9.3484,9.3384,9.3384,9.3418,9.355,9.4113,9.4511,9.4577,9.4577,9.4875,9.5505,9.5637,9.63,9.7691,9.7857,9.7989,9.8122,9.8552,9.8552,9.8055,9.7989,9.8122,9.8088,9.8188,9.832,9.8387,9.8682,9.9046,9.8533,9.8469,9.7976,9.7221,9.6062,9.5046,9.3934,9.3149,9.2445,9.1432,9.0849,9.0429,9.0564,9.0768,9.0989,9.1446,9.2003,9.2855,9.3673,9.4312,9.5005,9.5309,9.5706,9.6001,9.6001,9.6001,9.6001,9.6001,9.6001,9.6001,9.6001,9.6101,9.6003,9.597,9.5637,9.5001,9.325,9.1867,9.0674,10.2196,10.1401,10.1103,10.0705,10.0341,10.0308,10.0308,10.0308,10.0308,10.0308,10.0275,10.001,9.948,9.8817,9.8353,9.8188,9.8188,9.8188,9.8188,9.8221,9.8618,9.8817,9.885,9.9248,9.9447,9.938,9.9016,9.8652,9.8287,9.7525,9.6962,9.6631,9.6233,9.6001,9.6001,9.6001,9.6001,9.6001,9.6001,9.6366,9.7028,9.7128,9.7293,9.7592,9.673,9.62,9.62,9.5902,9.577,9.577,9.6167,9.6399,9.6366,9.6664,9.683,9.683,9.683,9.6962,9.726,9.7293,9.7724,9.8751,9.8817,9.8983,9.9414,9.9712,9.9745,9.9513,9.9414,9.9447,9.9414,9.9447,9.9447,9.948,9.9712,9.9877,9.9604,9.9454,9.9058,9.8458,9.7414,9.6412,9.5356,9.4121,9.3048,9.2084,9.1463,9.1134,9.0939,9.1221,9.1557,9.1888,9.2692,9.3331,9.3803,9.452,9.5062,9.544,9.5706,9.6001,9.6001,9.6001,9.6001,9.6001,9.6001,9.6001,9.6001,9.6001,9.6001,9.587,9.5142,9.4301,9.2917,9.2126,9.1369,10.2991,10.2031,10.16,10.1004,10.0308,10.0308,10.0308,10.0308,10.0308,10.0308,10.0308,10.0308,10.0043,9.9546,9.8983,9.8751,9.8751,9.8751,9.8751,9.8817,9.9314,9.9546,9.9612,10.0043,10.0308,10.0242,9.9811,9.948,9.9149,9.8055,9.7293,9.7062,9.6565,9.62,9.6035,9.6001,9.6001,9.6001,9.6001,9.6366,9.7028,9.7293,9.7658,9.8055,9.7691,9.7393,9.7393,9.7393,9.7393,9.7426,9.789,9.8188,9.8188,9.8353,9.8486,9.8486,9.8486,9.8486,9.8486,9.8453,9.8784,9.9447,9.9579,9.9778,10.0209,10.0308,10.0308,10.0275,10.0308,10.0275,10.0308,10.0308,10.0308,10.0308,10.0308,10.0308,10.0308,10.0067,9.9651,9.9339,9.8315,9.7446,9.6412,9.4742,9.3335,9.2888,9.2276,9.1626,9.1626,9.1759,9.2084,9.2084,9.3186,9.3945,9.3896,9.4497,9.5115,9.5304,9.5574,9.5837,9.6001,9.6001,9.6001,9.6001,9.6001,9.6001,9.6001,9.6001,9.6001,9.587,9.5276,9.4301,9.3475,9.31,9.2268,10.3554,10.3256,10.1964,10.1004,10.0341,10.0308,10.0308,10.0308,10.0308,10.0308,10.0308,10.0308,10.0275,10.0209,10.0109,10.0175,10.0175,10.0109,10.0109,10.0076,10.0175,10.0242,10.0242,10.0308,10.0308,10.0308,10.0209,9.9877,9.9314,9.8519,9.779,9.7161,9.7028,9.6697,9.6101,9.6001,9.6001,9.6001,9.6068,9.6399,9.7128,9.779,9.8155,9.8287,9.8155,9.8122,9.8122,9.8122,9.8122,9.8122,9.8221,9.8254,9.8254,9.8883,9.9215,9.9248,9.9215,9.9215,9.9215,9.9215,9.9513,10.0109,10.0175,10.0275,10.0308,10.0308,10.0308,10.0308,10.0374,10.0407,10.0407,10.0341,10.0308,10.0308,10.0308,10.0308,10.0308,10.0067,9.979,9.9651,9.9058,9.8171,9.7038,9.5356,9.4432,9.3808,9.3048,9.2407,9.2084,9.2246,9.2568,9.2728,9.3527,9.4241,9.3827,9.441,9.4831,9.5001,9.5309,9.5574,9.587,9.6001,9.6001,9.6001,9.6001,9.6001,9.6001,9.6001,9.6001,9.587,9.5574,9.4842,9.4027,9.3809,9.3241,10.4018,10.3455,10.2031,10.1269,10.1004,10.054,10.0308,10.0308,10.0308,10.0308,10.0308,10.0308,10.0308,10.0308,10.0308,10.0308,10.0308,10.0308,10.0308,10.0308,10.0308,10.0308,10.0308,10.0308,10.0308,10.0308,10.0308,10.0175,9.991,9.9215,9.8519,9.779,9.7327,9.673,9.6134,9.6001,9.6001,9.6068,9.6465,9.7062,9.7757,9.8486,9.9082,9.948,9.9082,9.8883,9.8883,9.8883,9.8883,9.8883,9.9281,9.9546,9.9579,9.9778,9.9944,9.9944,9.9944,9.9944,9.9944,9.9944,10.001,10.0242,10.0308,10.0341,10.0308,10.0308,10.0308,10.0407,10.0805,10.1004,10.0937,10.0606,10.0308,10.0308,10.0308,10.0341,10.0308,10.0204,10.0067,10.0034,9.9479,9.8742,9.798,9.6858,9.5811,9.5356,9.4432,9.3493,9.2888,9.2888,9.2888,9.2888,9.3335,9.3996,9.3856,9.4552,9.5102,9.4854,9.4907,9.5276,9.5574,9.587,9.587,9.6134,9.6101,9.6001,9.6001,9.6001,9.6001,9.6001,9.5706,9.5309,9.4436,9.4487,9.4026,10.425,10.3488,10.2527,10.1964,10.1699,10.097,10.0672,10.0639,10.0407,10.0308,10.0308,10.0308,10.0308,10.0308,10.0308,10.0308,10.0308,10.0308,10.0308,10.0308,10.0308,10.0308,10.0308,10.0308,10.0308,10.0308,10.0308,10.0308,10.0275,9.9844,9.9215,9.8519,9.7823,9.7095,9.6465,9.6134,9.6001,9.6134,9.673,9.7426,9.8155,9.8917,9.9612,10.0142,9.9844,9.9612,9.9612,9.9612,9.9612,9.9679,10.0076,10.0308,10.0308,10.0308,10.0308,10.0308,10.0308,10.044,10.0639,10.0672,10.0772,10.1004,10.1037,10.0937,10.0739,10.0871,10.0904,10.0904,10.1335,10.1766,10.1699,10.1335,10.0937,10.0739,10.0672,10.0573,10.0341,10.0308,10.044,10.0535,10.0152,9.9798,9.9537,9.84,9.757,9.7061,9.5849,9.4587,9.3839,9.3524,9.3207,9.3048,9.3554,9.3996,9.4139,9.4736,9.4986,9.4895,9.4632,9.4973,9.544,9.5673,9.6036,9.6266,9.6233,9.6101,9.6035,9.6035,9.6001,9.6035,9.5903,9.5507,9.5296,9.5359,9.4874,10.4283,10.3654,10.3588,10.3091,10.2461,10.1732,10.1401,10.1236,10.0639,10.0407,10.0341,10.0308,10.0308,10.0308,10.0308,10.0308,10.0308,10.0308,10.0308,10.0308,10.0308,10.0308,10.0308,10.0308,10.0308,10.0308,10.0308,10.0308,10.0308,10.0209,9.9844,9.9215,9.8519,9.7823,9.7128,9.6565,9.6167,9.6366,9.6962,9.7592,9.8188,9.8983,9.9679,10.0242,10.0242,10.0242,10.0242,10.0242,10.0209,10.0242,10.0275,10.0308,10.0308,10.0308,10.0308,10.0407,10.0374,10.0705,10.1302,10.1401,10.1732,10.213,10.2395,10.2031,10.16,10.1964,10.2064,10.1666,10.2064,10.2527,10.2527,10.2527,10.2196,10.1534,10.1335,10.1037,10.0573,10.0374,10.0606,10.1169,10.1091,10.1174,10.1395,10.0419,9.9128,9.8315,9.704,9.545,9.465,9.4152,9.3681,9.3524,9.3839,9.4245,9.4422,9.4735,9.4793,9.4819,9.4465,9.4457,9.5333,9.5802,9.63,9.6532,9.683,9.6697,9.6366,9.6333,9.6134,9.6134,9.6003,9.6036,9.5927,9.5897,9.5833,10.4548,10.4283,10.3786,10.3455,10.3157,10.2494,10.1898,10.1434,10.1136,10.0805,10.0374,10.0308,10.0308,10.0308,10.0308,10.0308,10.0308,10.0308,10.0308,10.0308,10.0308,10.0308,10.0308,10.0308,10.0308,10.0308,10.0308,10.0308,10.0308,10.0308,9.9977,9.9347,9.9049,9.8552,9.789,9.7625,9.7492,9.7592,9.8221,9.8751,9.8983,9.9612,10.0076,10.0275,10.0308,10.0308,10.0308,10.0308,10.0308,10.0341,10.0308,10.0308,10.0308,10.0308,10.054,10.1004,10.107,10.1401,10.2031,10.2163,10.2262,10.2494,10.2561,10.2428,10.2229,10.2395,10.2461,10.2262,10.2826,10.3256,10.3322,10.372,10.3422,10.2296,10.1732,10.1401,10.1169,10.107,10.1169,10.1401,10.1726,10.2123,10.2148,10.1384,10.0583,9.9581,9.8348,9.7167,9.5697,9.4959,9.465,9.4339,9.4463,9.4587,9.4736,9.4877,9.4906,9.5019,9.4678,9.4627,9.5278,9.6026,9.6493,9.7093,9.726,9.726,9.6929,9.673,9.6598,9.6465,9.6433,9.6532,9.6427,9.6434,9.644,10.4681,10.4614,10.4184,10.3985,10.3919,10.3223,10.266,10.2163,10.1633,10.1136,10.0739,10.044,10.0308,10.0308,10.0308,10.0308,10.0308,10.0308,10.0308,10.0308,10.0308,10.0308,10.0308,10.0308,10.0308,10.0308,10.0308,10.0308,10.0308,10.0308,10.0076,9.9712,9.9414,9.9082,9.8585,9.8287,9.8188,9.8287,9.8883,9.9281,9.9414,9.9944,10.0308,10.0341,10.0573,10.0705,10.0739,10.097,10.1004,10.0838,10.097,10.1136,10.1136,10.1169,10.1368,10.1699,10.1865,10.213,10.2792,10.2925,10.3057,10.3256,10.3322,10.319,10.3057,10.3091,10.3256,10.3057,10.3554,10.3985,10.4051,10.4349,10.4217,10.3455,10.2693,10.213,10.1931,10.1832,10.1997,10.2262,10.266,10.2991,10.3082,10.2742,10.2086,10.0844,9.9598,9.8329,9.674,9.5729,9.5207,9.4836,9.4804,9.4773,9.5081,9.4951,9.4971,9.5086,9.5002,9.5096,9.5609,9.6375,9.6851,9.7688,9.8055,9.8022,9.7757,9.7558,9.7426,9.726,9.7128,9.7325,9.7517,9.7502,9.7384,10.4681,10.4681,10.4681,10.4648,10.4548,10.3919,10.3554,10.3289,10.2229,10.16,10.1368,10.0904,10.0573,10.0507,10.0672,10.0672,10.0474,10.0606,10.0672,10.0639,10.0606,10.0573,10.0341,10.0308,10.0308,10.0308,10.0308,10.0308,10.0308,10.0308,10.0308,10.0175,9.9679,9.938,9.9248,9.8652,9.8453,9.8618,9.9082,9.9414,9.9447,9.9977,10.0374,10.044,10.1004,10.1368,10.1567,10.2097,10.2163,10.1666,10.2031,10.2296,10.2461,10.2494,10.2395,10.2527,10.2594,10.3091,10.3554,10.3985,10.4217,10.4747,10.478,10.4548,10.4151,10.4515,10.4614,10.4118,10.4548,10.4846,10.4813,10.4813,10.4747,10.4581,10.3753,10.3124,10.2594,10.2527,10.2792,10.3289,10.3621,10.3853,10.4383,10.3701,10.3118,10.2114,10.0718,9.914,9.7978,9.6906,9.5823,9.5486,9.5675,9.5549,9.5765,9.5203,9.5104,9.5273,9.5329,9.566,9.6091,9.6841,9.7672,9.8312,9.8649,9.8718,9.8552,9.8353,9.7955,9.7723,9.7921,9.8283,9.8341,9.8085,9.7851,10.4681,10.4681,10.4681,10.4681,10.4648,10.4449,10.4084,10.3588,10.319,10.2627,10.2262,10.2064,10.1865,10.1931,10.1898,10.1931,10.1865,10.1865,10.1931,10.1964,10.1931,10.1269,10.0507,10.0308,10.0341,10.0341,10.0341,10.0308,10.0308,10.0374,10.0374,10.0308,10.0175,10.0043,9.9977,9.9778,9.9745,9.9745,9.991,10.0043,10.0076,10.0242,10.0606,10.1103,10.1335,10.1766,10.2229,10.2925,10.2958,10.2329,10.2395,10.2527,10.266,10.266,10.2925,10.3422,10.3886,10.4416,10.5111,10.5641,10.6072,10.6271,10.6171,10.6238,10.6072,10.6171,10.6205,10.6072,10.6238,10.6039,10.5641,10.5509,10.531,10.4714,10.4217,10.3488,10.2925,10.2991,10.3389,10.3588,10.4084,10.4416,10.4548,10.4372,10.3866,10.3007,10.1937,10.0718,9.9378,9.8458,9.7471,9.7383,9.7294,9.6856,9.6387,9.5671,9.5387,9.5597,9.5677,9.5881,9.6753,9.7697,9.8642,9.9362,9.9373,9.9241,9.9112,9.8848,9.8448,9.8114,9.8072,9.8329,9.8216,9.8025,9.7925,10.4681,10.4681,10.4681,10.4681,10.4681,10.4681,10.4449,10.4051,10.3687,10.3356,10.2958,10.2627,10.2527,10.2527,10.2527,10.2527,10.2527,10.2527,10.2494,10.2494,10.2461,10.1997,10.1335,10.1004,10.0772,10.0705,10.0474,10.0507,10.0739,10.0772,10.0937,10.1169,10.0937,10.0772,10.0739,10.044,10.0308,10.0341,10.0573,10.0772,10.0772,10.1103,10.1434,10.1898,10.2163,10.2759,10.3786,10.4614,10.4383,10.3389,10.3256,10.3588,10.3886,10.3886,10.4217,10.4946,10.5409,10.584,10.6205,10.6701,10.6867,10.69,10.69,10.69,10.6834,10.69,10.69,10.6834,10.69,10.6668,10.637,10.6271,10.6072,10.5741,10.5244,10.4681,10.3985,10.4018,10.4217,10.4449,10.4614,10.4681,10.4681,10.4681,10.4339,10.3722,10.2896,10.1776,10.083,10.001,9.9185,9.8699,9.8049,9.7394,9.6553,9.5835,9.5086,9.5269,9.5513,9.5818,9.6806,9.798,9.86,9.9273,9.9585,9.9691,9.9223,9.8855,9.8756,9.8552,9.8371,9.8155,9.7925,9.7527,9.756,10.478,10.4681,10.4681,10.4681,10.4681,10.4681,10.4648,10.4548,10.4051,10.3753,10.3588,10.3057,10.2958,10.2726,10.3024,10.2826,10.2826,10.2958,10.2892,10.2925,10.2925,10.2792,10.2693,10.1865,10.1567,10.1467,10.0838,10.1037,10.1401,10.1534,10.1865,10.2064,10.1766,10.1567,10.1467,10.097,10.0606,10.0805,10.1269,10.1534,10.16,10.2031,10.2428,10.2958,10.3753,10.4548,10.5575,10.6271,10.5906,10.4051,10.4581,10.5178,10.5774,10.584,10.6105,10.6569,10.6735,10.6933,10.7033,10.7165,10.7231,10.7298,10.7298,10.7132,10.7298,10.7397,10.7397,10.7397,10.7165,10.7198,10.7033,10.6966,10.6768,10.6635,10.6701,10.6536,10.6072,10.5376,10.5144,10.5641,10.5144,10.4879,10.4714,10.4681,10.4505,10.4163,10.3435,10.2802,10.1923,10.1284,10.0344,9.9273,9.8526,9.7682,9.6714,9.5868,9.5086,9.4618,9.4993,9.5395,9.6398,9.7346,9.8092,9.86,9.8425,9.8698,9.8828,9.8698,9.8523,9.8607,9.819,9.7947,9.7557,9.6902,9.6612,10.5211,10.4681,10.4681,10.4681,10.4681,10.4681,10.4681,10.4681,10.4515,10.4383,10.4416,10.425,10.4151,10.4151,10.4084,10.4217,10.4084,10.4084,10.4217,10.4217,10.4217,10.4217,10.3919,10.2925,10.2329,10.2229,10.2163,10.213,10.2262,10.2296,10.2362,10.2494,10.2494,10.2262,10.2229,10.2031,10.2031,10.2064,10.2229,10.2329,10.2395,10.266,10.3289,10.4184,10.5443,10.6205,10.6536,10.6834,10.6668,10.637,10.6337,10.6536,10.6635,10.6668,10.6801,10.7099,10.753,10.7761,10.7861,10.8225,10.859,10.849,10.8457,10.8623,10.8656,10.8557,10.859,10.8623,10.8623,10.8292,10.7828,10.7231,10.7099,10.7099,10.7066,10.7165,10.7298,10.6834,10.6238,10.594,10.5674,10.5343,10.4813,10.4714,10.4681,10.4505,10.4151,10.3586,10.313,10.2494,10.144,10.0186,9.9192,9.8378,9.6868,9.5827,9.4821,9.4352,9.4548,9.4772,9.5772,9.6349,9.689,9.7082,9.7089,9.7493,9.8007,9.7955,9.7626,9.7892,9.8061,9.7414,9.6734,9.6115,9.5648,10.5575,10.5178,10.4813,10.4681,10.4681,10.4681,10.4681,10.4681,10.4681,10.4681,10.4681,10.4681,10.4681,10.4681,10.4681,10.4681,10.4681,10.4681,10.4681,10.4648,10.4648,10.4681,10.4614,10.3985,10.3422,10.3057,10.2627,10.2693,10.2925,10.3057,10.3223,10.3455,10.3223,10.3024,10.2925,10.2792,10.2494,10.266,10.3223,10.3554,10.3588,10.4283,10.478,10.5708,10.6801,10.743,10.743,10.7795,10.7927,10.7927,10.7927,10.7728,10.7463,10.743,10.7563,10.796,10.8225,10.8523,10.8689,10.8855,10.9087,10.9153,10.912,10.912,10.912,10.912,10.912,10.912,10.9053,10.8888,10.8557,10.8258,10.796,10.7927,10.7927,10.8126,10.8258,10.7596,10.6966,10.6635,10.6238,10.5741,10.531,10.5078,10.4813,10.467,10.4637,10.4217,10.3684,10.3115,10.2407,10.1221,10.0171,9.8915,9.7204,9.577,9.4402,9.4157,9.4229,9.4198,9.4623,9.5047,9.543,9.5711,9.6202,9.6639,9.7082,9.6805,9.6681,9.6714,9.6714,9.6398,9.6049,9.5419,9.4975,10.5973,10.5906,10.5178,10.4913,10.5012,10.5078,10.5144,10.5078,10.5012,10.5111,10.4879,10.4846,10.4913,10.4714,10.4681,10.4681,10.4681,10.4681,10.4681,10.4681,10.4681,10.4681,10.4648,10.4515,10.4217,10.372,10.3289,10.3322,10.3654,10.3786,10.3985,10.4449,10.425,10.4051,10.3819,10.3588,10.3554,10.3819,10.4581,10.5045,10.5111,10.6072,10.6635,10.7066,10.7728,10.8159,10.8292,10.8623,10.902,10.912,10.912,10.8788,10.8391,10.8358,10.8557,10.9219,10.9385,10.9517,10.955,10.955,10.955,10.9418,10.9484,10.9385,10.9385,10.9352,10.9285,10.9153,10.912,10.912,10.9087,10.8921,10.8954,10.8987,10.9053,10.912,10.8888,10.7927,10.7728,10.7596,10.7066,10.6503,10.6006,10.5674,10.531,10.5012,10.4979,10.4835,10.4481,10.3834,10.3193,10.1977,10.0708,9.8783,9.6921,9.5637,9.4259,9.4001,9.3911,9.3911,9.3971,9.4561,9.5035,9.5284,9.5703,9.5889,9.6013,9.5946,9.5816,9.5655,9.574,9.5946,9.5465,9.4665,9.4243,10.6735,10.6668,10.594,10.594,10.647,10.6503,10.6436,10.6536,10.6403,10.6171,10.5641,10.5575,10.5211,10.4846,10.4681,10.4681,10.4681,10.4681,10.4681,10.4681,10.4681,10.4681,10.4681,10.4681,10.4581,10.4548,10.4283,10.4349,10.4383,10.4515,10.4614,10.478,10.5178,10.5343,10.5509,10.5807,10.5741,10.5608,10.6171,10.6403,10.6668,10.7033,10.7563,10.8027,10.8656,10.8855,10.8921,10.902,10.912,10.912,10.912,10.902,10.902,10.9385,10.9782,10.9948,11.0412,11.0577,11.061,11.0743,11.0842,11.0875,11.071,11.0445,11.0147,10.9948,10.9749,10.9318,10.9186,10.9153,10.912,10.912,10.912,10.912,10.912,10.912,10.902,10.8788,10.8358,10.8159,10.7728,10.7331,10.6801,10.6403,10.6105,10.5973,10.5973,10.5861,10.557,10.4933,10.3994,10.2493,10.0935,9.8774,9.642,9.5429,9.4301,9.4132,9.3932,9.3932,9.4113,9.4393,9.4644,9.4987,9.4983,9.4818,9.494,9.5153,9.5367,9.5489,9.5597,9.5672,9.5231,9.4591,9.4301,10.7463,10.7397,10.6668,10.6569,10.6867,10.69,10.69,10.69,10.69,10.6701,10.6337,10.5973,10.5608,10.5244,10.4813,10.4681,10.4681,10.4681,10.4681,10.4681,10.4681,10.4681,10.4747,10.4747,10.4681,10.4813,10.5012,10.5045,10.478,10.5111,10.5211,10.5443,10.6006,10.637,10.6403,10.6602,10.6933,10.6966,10.7265,10.7662,10.8126,10.859,10.9318,10.9583,10.955,10.965,10.9583,10.9219,10.912,10.912,10.912,10.912,10.9385,11.0014,11.0544,11.0379,11.0875,11.124,11.1207,11.1207,11.1174,11.1174,11.124,11.1074,11.0809,11.0644,11.0345,10.9882,10.9617,10.9484,10.9153,10.912,10.912,10.912,10.912,10.912,10.912,10.912,10.8888,10.8523,10.8093,10.7761,10.753,10.7198,10.6966,10.69,10.6966,10.6853,10.6773,10.5968,10.5012,10.3227,10.1601,9.9249,9.7091,9.5824,9.4814,9.4303,9.4162,9.4162,9.408,9.4409,9.4551,9.4504,9.4464,9.4422,9.4494,9.4905,9.5006,9.5157,9.5096,9.5066,9.4955,9.4693,9.4342,10.8093,10.8159,10.743,10.7198,10.7331,10.7364,10.7364,10.7331,10.7397,10.7298,10.7033,10.6403,10.5973,10.5641,10.5078,10.4681,10.4714,10.4813,10.4979,10.5045,10.5211,10.5211,10.5178,10.5144,10.5277,10.5476,10.5708,10.5608,10.5244,10.5674,10.5973,10.6205,10.6768,10.7132,10.7165,10.743,10.7298,10.753,10.7894,10.859,10.9451,11.0478,11.1207,11.114,11.0544,11.0113,11.0014,10.9451,10.9153,10.912,10.912,10.912,10.9352,11.0445,11.0909,11.061,11.1174,11.1571,11.1704,11.1737,11.1869,11.1902,11.1737,11.1604,11.1339,11.1207,11.0942,11.0511,11.0147,10.9948,10.9484,10.9219,10.912,10.912,10.912,10.912,10.912,10.912,10.912,10.8788,10.8457,10.8325,10.8225,10.8126,10.7894,10.7861,10.7894,10.7861,10.768,10.6956,10.5816,10.3994,10.2144,9.9818,9.8002,9.6695,9.5747,9.5006,9.4693,9.4693,9.4611,9.4588,9.4671,9.4611,9.4551,9.4603,9.4558,9.4618,9.4761,9.4904,9.4588,9.4588,9.4731,9.4881,9.4738,10.8391,10.8921,10.8192,10.8258,10.8755,10.8788,10.8822,10.8788,10.8722,10.8457,10.7828,10.7066,10.637,10.5674,10.5012,10.4714,10.4913,10.5277,10.5575,10.5708,10.6171,10.6403,10.6536,10.6635,10.6403,10.637,10.6635,10.6337,10.6072,10.6503,10.6768,10.6933,10.7463,10.7861,10.7927,10.8292,10.8855,10.8822,10.8921,10.9385,11.0113,11.0942,11.1306,11.1174,11.0743,11.0312,11.0246,10.965,10.9219,10.912,10.912,10.912,10.9352,11.0445,11.1041,11.1505,11.2234,11.3161,11.2996,11.2896,11.2896,11.2863,11.2962,11.2764,11.23,11.1704,11.1372,11.114,11.0644,11.018,10.9915,10.9484,10.9252,10.912,10.912,10.912,10.912,10.9418,10.9385,10.9418,10.9186,10.9153,10.9087,10.8987,10.8888,10.8855,10.8822,10.8722,10.8408,10.7648,10.6674,10.4852,10.3444,10.1124,9.9447,9.8083,9.6923,9.5891,9.5579,9.5234,9.5211,9.5127,9.4858,9.4828,9.4798,9.4768,9.4828,9.4798,9.4678,9.4618,9.4618,9.4618,9.4618,9.4858,9.5157,10.9231,10.9087,10.8788,10.8822,10.9087,10.912,10.912,10.912,10.912,10.8921,10.8424,10.7364,10.6271,10.5277,10.478,10.4946,10.531,10.5708,10.6072,10.6403,10.6801,10.6966,10.6867,10.69,10.69,10.7099,10.7265,10.743,10.7231,10.7298,10.753,10.7629,10.8225,10.8623,10.8557,10.8954,10.9053,10.9318,10.9882,11.0677,11.1372,11.2035,11.2432,11.2399,11.1704,11.1174,11.0677,11.0113,10.9517,10.9252,10.912,10.912,10.9451,11.0345,11.1207,11.1372,11.2598,11.3327,11.3393,11.3426,11.3426,11.3426,11.3426,11.3227,11.2896,11.2631,11.2167,11.1836,11.1604,11.1074,11.0412,10.9915,10.9517,10.9285,10.9252,10.9186,10.9318,10.965,10.9815,10.9882,10.9981,10.9981,10.9848,10.9517,10.9318,10.9153,10.9053,10.8954,10.8772,10.8458,10.7147,10.5679,10.4271,10.2846,10.1179,9.9687,9.8655,9.7516,9.6686,9.6339,9.602,9.5785,9.5516,9.5396,9.5456,9.5366,9.5187,9.4858,9.4648,9.4618,9.4618,9.4738,9.4888,9.5187,9.5486,10.9936,10.9383,10.9235,10.9235,10.9235,10.912,10.912,10.912,10.912,10.902,10.8457,10.7265,10.5873,10.5012,10.4946,10.531,10.5774,10.6171,10.6635,10.7066,10.7364,10.753,10.7629,10.7563,10.7563,10.743,10.806,10.8225,10.8258,10.8292,10.8258,10.8292,10.8722,10.902,10.9087,10.912,10.9186,10.9583,11.0809,11.167,11.2234,11.2929,11.3261,11.3128,11.2697,11.2068,11.1505,11.0809,11.0113,10.9583,10.9451,10.9418,10.9385,11.0379,11.114,11.1538,11.2598,11.3393,11.3426,11.3426,11.3426,11.3426,11.3426,11.3393,11.336,11.3393,11.3294,11.2598,11.2267,11.167,11.0975,11.0511,10.9915,10.9617,10.9484,10.9418,10.9484,11.0047,11.0412,11.0511,11.0644,11.0842,11.061,11.0113,10.9749,10.9451,10.9285,10.9186,10.9004,10.8887,10.8073,10.6724,10.5346,10.4182,10.2812,10.1424,10.0235,9.8883,9.8023,9.7267,9.662,9.6384,9.6234,9.6174,9.6144,9.5995,9.5845,9.5217,9.4618,9.4618,9.4678,9.5007,9.5247,9.5606,9.5995,11.0514,11.0048,10.9757,10.9611,10.9497,10.9235,10.912,10.9235,10.9087,10.8623,10.7974,10.6602,10.5509,10.5012,10.531,10.5674,10.5873,10.7231,10.7695,10.8093,10.8557,10.8689,10.8689,10.8656,10.8788,10.8788,10.8855,10.8888,10.902,10.902,10.9053,10.9087,10.9153,10.912,10.9186,10.9318,10.9617,11.0213,11.1439,11.2134,11.2565,11.3029,11.3393,11.3261,11.2764,11.2267,11.2167,11.1505,11.0809,11.0147,11.0113,10.9882,10.9815,11.071,11.1339,11.1737,11.2631,11.3327,11.3426,11.3426,11.3426,11.3426,11.3426,11.3426,11.3426,11.3426,11.3327,11.3194,11.2764,11.2366,11.1704,11.114,11.0511,11.018,11.008,11.0113,11.0279,11.0776,11.1107,11.114,11.1372,11.167,11.1571,11.1107,11.0511,11.018,10.9882,10.9782,10.9401,10.9218,10.8836,10.7803,10.6483,10.5261,10.4154,10.2707,10.093,9.9545,9.8509,9.7659,9.698,9.6773,9.7012,9.6833,9.6773,9.6623,9.6384,9.5755,9.5217,9.4798,9.4798,9.5277,9.5905,9.6414,9.6862,11.1117,11.0942,11.0514,11.0193,10.9903,10.979,10.979,10.969,10.9323,10.8423,10.7213,10.647,10.5838,10.5364,10.5619,10.6072,10.6536,10.7496,10.8159,10.8623,10.8987,10.912,10.912,10.912,10.9087,10.912,10.912,10.9418,10.9749,10.9683,11.0113,11.008,10.9617,10.9517,10.9583,10.9848,11.0213,11.0875,11.177,11.2465,11.3029,11.3194,11.3426,11.336,11.3261,11.2697,11.2333,11.2068,11.1472,11.1008,11.0842,11.0577,11.0445,11.1306,11.1737,11.1902,11.2896,11.3327,11.3426,11.3426,11.3426,11.3426,11.3426,11.3426,11.3426,11.3426,11.3426,11.3294,11.3161,11.283,11.22,11.1803,11.1439,11.1008,11.0809,11.0809,11.1074,11.1538,11.1836,11.1902,11.23,11.2731,11.2499,11.2167,11.1538,11.0942,11.061,11.0345,10.9963,10.9798,10.9364,10.8743,10.7485,10.5971,10.489,10.3339,10.1627,10.0379,9.9169,9.8408,9.7639,9.779,9.791,9.767,9.7401,9.7252,9.6892,9.6324,9.5815,9.5396,9.5426,9.5725,9.6414,9.7132,9.7551,11.1399,11.1399,11.1117,11.08,11.0337,11.0193,11.0193,11.0059,10.9456,10.8318,10.6945,10.6463,10.5955,10.5614,10.6028,10.6482,10.7178,10.7861,10.8557,10.8921,10.9087,10.912,10.912,10.912,10.912,10.912,10.9186,10.9451,11.008,11.0147,11.0677,11.0842,11.0445,11.0279,11.0379,11.0743,11.1041,11.1604,11.2267,11.2797,11.336,11.3426,11.3426,11.3426,11.336,11.3161,11.283,11.2631,11.2267,11.1803,11.1505,11.1405,11.1538,11.1803,11.2234,11.2565,11.2929,11.3393,11.3426,11.3426,11.3426,11.3426,11.3426,11.3426,11.3426,11.3426,11.3426,11.3426,11.336,11.3161,11.2598,11.2333,11.2035,11.1571,11.1538,11.1571,11.1803,11.2167,11.2432,11.2664,11.3029,11.3227,11.3095,11.2731,11.2068,11.1439,11.0975,11.0809,11.0776,11.0492,11.0209,10.9587,10.8554,10.7066,10.5496,10.383,10.2298,10.0699,9.9481,9.8924,9.8479,9.8538,9.8538,9.8209,9.797,9.785,9.7521,9.7102,9.6533,9.5995,9.6174,9.6444,9.6892,9.7611,9.8059,11.1399,11.1399,11.1399,11.1084,11.08,11.037,11.0193,11.0236,10.9566,10.8426,10.7085,10.6309,10.5974,10.6002,10.6755,10.7279,10.7568,10.8439,10.902,10.9202,10.912,10.912,10.912,10.912,10.912,10.912,10.9285,10.9683,11.0279,11.0511,11.1174,11.1803,11.1571,11.1107,11.124,11.1869,11.2234,11.2366,11.2929,11.3261,11.3393,11.3426,11.3426,11.3426,11.3426,11.3294,11.3227,11.3161,11.283,11.2399,11.23,11.2068,11.1704,11.2167,11.2432,11.2499,11.3062,11.3393,11.3426,11.3426,11.3426,11.3426,11.3426,11.3426,11.3426,11.3426,11.3426,11.3426,11.3426,11.3426,11.3095,11.2797,11.2465,11.2333,11.23,11.2333,11.2565,11.2664,11.2929,11.3062,11.3227,11.3393,11.3393,11.3194,11.2532,11.1935,11.1405,11.1273,11.1439,11.1187,11.0902,11.009,10.9272,10.765,10.6067,10.4512,10.2936,10.1263,9.9997,9.9258,9.8838,9.8598,9.8598,9.8538,9.8419,9.8179,9.8089,9.794,9.767,9.7431,9.7132,9.7311,9.767,9.797,9.8329,11.1399,11.1399,11.1399,11.1399,11.1258,11.1084,11.0942,11.0841,11.0133,10.9021,10.7808,10.7165,10.6657,10.6721,10.7246,10.7874,10.7999,10.8911,10.9497,10.935,10.9235,10.912,10.912,10.912,10.912,10.9252,10.9517,11.0147,11.0909,11.1174,11.2002,11.2697,11.2598,11.2101,11.167,11.1902,11.23,11.2432,11.2962,11.3426,11.3426,11.3426,11.3459,11.3459,11.3492,11.3559,11.3559,11.3625,11.3426,11.3161,11.3161,11.2962,11.2697,11.3062,11.3029,11.3062,11.3426,11.3393,11.3426,11.3426,11.3426,11.3426,11.3426,11.3426,11.3426,11.3426,11.3426,11.3426,11.3426,11.3426,11.3294,11.3227,11.3062,11.3062,11.3062,11.3062,11.3161,11.3227,11.3327,11.3327,11.3426,11.3426,11.3426,11.3426,11.2896,11.2764,11.2366,11.2399,11.2565,11.2047,11.1629,11.0625,10.961,10.7973,10.6439,10.5035,10.357,10.18,10.0429,9.9589,9.9077,9.8927,9.8778,9.8837,9.8688,9.8508,9.8628,9.8778,9.9107,9.9047,9.8508,9.8179,9.8389,9.8419,9.8419,11.1399,11.1399,11.1399,11.1399,11.1399,11.1399,11.1264,11.0993,11.0486,10.9572,10.842,10.7878,10.737,10.737,10.78,10.8158,10.8325,10.9057,10.9611,10.9464,10.9235,10.912,10.912,10.9153,10.9318,10.9517,10.9981,11.0577,11.1571,11.2068,11.2664,11.3161,11.3393,11.2863,11.2399,11.2565,11.2764,11.2896,11.3261,11.3426,11.3526,11.3658,11.3857,11.3923,11.4056,11.4221,11.4188,11.4155,11.4155,11.4122,11.4122,11.4122,11.4122,11.3923,11.3857,11.3791,11.3526,11.3492,11.3426,11.3426,11.3426,11.3426,11.3426,11.3426,11.3426,11.3426,11.3426,11.3426,11.3426,11.3426,11.3426,11.3426,11.3426,11.3393,11.3393,11.3393,11.3393,11.3426,11.3426,11.3426,11.3426,11.3426,11.3426,11.3426,11.3261,11.3327,11.336,11.3426,11.3426,11.2841,11.229,11.1503,11.0518,10.9135,10.7432,10.5757,10.422,10.2447,10.1246,10.0037,9.9795,9.9675,9.9406,9.9197,9.9346,9.9436,9.9406,9.9586,9.9855,9.9825,9.9466,9.9226,9.9197,9.9107,9.9017,11.1399,11.1399,11.1399,11.1399,11.1399,11.1399,11.1027,11.0418,11.0384,10.9944,10.9166,10.8456,10.7914,10.8015,10.8414,10.8578,10.8775,10.9413,10.959,10.9497,10.9235,10.9268,10.9153,10.9219,10.9583,10.9981,11.0511,11.124,11.22,11.2499,11.2896,11.3261,11.3426,11.3194,11.3161,11.3161,11.3227,11.3261,11.3327,11.3526,11.3724,11.4122,11.4387,11.4586,11.4917,11.5149,11.5215,11.5248,11.5314,11.5348,11.5414,11.548,11.5314,11.4917,11.4685,11.4387,11.389,11.3658,11.3559,11.3592,11.3426,11.3426,11.3426,11.3426,11.3426,11.3426,11.3426,11.3426,11.3426,11.3426,11.3426,11.3426,11.3426,11.3426,11.3426,11.3426,11.3426,11.3426,11.3426,11.3426,11.3426,11.3426,11.3426,11.3426,11.3492,11.3426,11.3426,11.3426,11.3426,11.3426,11.2974,11.2507,11.1396,11.0495,10.8793,10.6791,10.5315,10.3717,10.2062,10.1033,10.082,10.0364,10.0034,9.9945,10.0244,10.0364,10.0304,10.0364,10.0543,10.0453,10.0483,10.0124,10.0034,10.0004,9.9975,11.1399,11.1399,11.1399,11.1399,11.1399,11.1399,11.1264,11.1095,11.1061,11.0655,10.9944,10.9166,10.8524,10.8118,10.8691,10.8961,10.9291,10.9641,10.9992,10.9757,10.935,10.9268,10.9285,10.9583,10.9948,11.0511,11.114,11.1803,11.2333,11.2731,11.3095,11.3393,11.3426,11.3426,11.3426,11.3426,11.3426,11.3426,11.3426,11.3691,11.4022,11.4453,11.4818,11.5281,11.5579,11.5778,11.5811,11.5778,11.5745,11.5679,11.5646,11.5613,11.5546,11.5381,11.5281,11.5215,11.4685,11.4188,11.4122,11.3724,11.3426,11.3426,11.3426,11.3426,11.3426,11.3426,11.3426,11.3426,11.3426,11.3426,11.3426,11.3426,11.3426,11.3426,11.3426,11.3426,11.3426,11.3426,11.3426,11.3459,11.3459,11.3526,11.3492,11.3559,11.3625,11.3492,11.3426,11.3426,11.3426,11.3426,11.3271,11.296,11.2265,11.111,10.9638,10.7902,10.6493,10.5137,10.3454,10.2061,10.1635,10.1301,10.0817,10.0633,10.0872,10.1022,10.1112,10.1201,10.1261,10.174,10.18,10.1261,10.0872,10.0842,10.0782,11.1399,11.1399,11.1399,11.1399,11.1399,11.1399,11.1399,11.1399,11.1399,11.0993,11.0249,10.9471,10.876,10.8219,10.8794,10.92,10.9164,11.0059,11.0337,11.0048,10.9644,10.95,10.9766,11.0014,11.0511,11.1107,11.177,11.2366,11.2731,11.3062,11.3426,11.3393,11.3426,11.3426,11.3426,11.3426,11.3426,11.3426,11.3526,11.389,11.4321,11.4818,11.5381,11.5911,11.6176,11.6374,11.6408,11.6408,11.6408,11.6441,11.6474,11.6474,11.6374,11.6275,11.5778,11.5579,11.4884,11.4519,11.4321,11.3791,11.3526,11.3426,11.3426,11.3426,11.3426,11.3426,11.3426,11.3426,11.3426,11.3426,11.3426,11.3426,11.3426,11.3426,11.3426,11.3426,11.3426,11.3426,11.3459,11.3492,11.3526,11.3625,11.3691,11.3757,11.3691,11.3526,11.3426,11.3426,11.3426,11.3426,11.3426,11.3116,11.2456,11.1755,11.0295,10.8961,10.7641,10.6154,10.4606,10.3457,10.2635,10.2052,10.1716,10.1441,10.1411,10.159,10.174,10.186,10.1979,10.2368,10.2518,10.2099,10.168,10.165,10.1531,11.1399,11.1399,11.1399,11.1399,11.1399,11.1399,11.1399,11.1365,11.1298,11.0925,11.0249,10.9505,10.876,10.8287,10.8794,10.9132,10.9468,11.0234,11.0514,11.0226,10.9903,10.9763,11.0213,11.0462,11.1276,11.2021,11.2499,11.2983,11.3227,11.3426,11.3426,11.3426,11.3426,11.3426,11.3426,11.3426,11.3426,11.3426,11.3526,11.3824,11.4619,11.5281,11.5977,11.6739,11.7269,11.7666,11.77,11.7733,11.7799,11.7766,11.7733,11.7633,11.7401,11.7103,11.6474,11.5878,11.5248,11.4884,11.4519,11.3923,11.3526,11.3426,11.3426,11.3426,11.3426,11.3426,11.3426,11.3426,11.3426,11.3426,11.3426,11.3459,11.3459,11.3658,11.3791,11.3989,11.4155,11.4188,11.4188,11.4254,11.4354,11.4354,11.3956,11.4022,11.389,11.3592,11.3426,11.3426,11.3426,11.3426,11.3426,11.3271,11.2803,11.2172,11.1306,10.9965,10.8623,10.7185,10.5569,10.4309,10.3212,10.2808,10.2458,10.2189,10.192,10.2159,10.2339,10.2309,10.2279,10.2428,10.2578,10.2608,10.2518,10.2428,10.2189,11.1399,11.1399,11.1399,11.1399,11.1399,11.1399,11.1399,11.1331,11.079,11.0486,11.0181,10.9471,10.8693,10.8118,10.8794,10.9166,10.9366,11.0341,11.0665,11.0514,11.0193,11.0404,11.1071,11.1458,11.2225,11.2657,11.3256,11.3469,11.3514,11.3426,11.3426,11.3426,11.3426,11.3426,11.3426,11.3426,11.3426,11.3426,11.3492,11.4056,11.5016,11.5513,11.6109,11.7037,11.7766,11.7799,11.7799,11.7799,11.7799,11.7799,11.7799,11.7766,11.7766,11.76,11.7468,11.707,11.5977,11.5381,11.4884,11.4155,11.3526,11.3426,11.3426,11.3426,11.3426,11.3426,11.3426,11.3426,11.3426,11.3426,11.3426,11.3459,11.3592,11.3923,11.4221,11.4552,11.4884,11.495,11.495,11.5049,11.5182,11.4917,11.4486,11.4221,11.4022,11.3791,11.3526,11.3426,11.3426,11.3426,11.3426,11.3271,11.296,11.2489,11.182,11.0982,10.9465,10.7939,10.6164,10.4944,10.3913,10.3019,10.2488,10.2488,10.2428,10.2488,10.2488,10.2488,10.2488,10.2638,10.2847,10.2997,10.3176,10.3146,10.2847,11.0925,11.0959,11.1264,11.1399,11.1399,11.1399,11.123,11.0858,11.0452,10.9911,10.9302,10.8794,10.8253,10.7847,10.8659,10.9166,10.9437,11.0583,11.0807,11.08,11.0792,11.1141,11.1599,11.2235,11.2991,11.3576,11.3707,11.3854,11.3734,11.3426,11.3426,11.3426,11.3426,11.3426,11.3426,11.3426,11.3426,11.3426,11.3426,11.4056,11.5116,11.5513,11.6076,11.7037,11.76,11.77,11.7799,11.7799,11.7799,11.7799,11.7799,11.7799,11.7799,11.7766,11.7766,11.7335,11.6507,11.5579,11.5182,11.442,11.3492,11.3426,11.3426,11.3426,11.3426,11.3426,11.3426,11.3426,11.3426,11.3426,11.3426,11.3459,11.3824,11.4155,11.4387,11.4685,11.5049,11.5314,11.5314,11.5348,11.5447,11.5447,11.5083,11.4884,11.4552,11.3658,11.3426,11.3426,11.3426,11.3426,11.3426,11.3426,11.3116,11.2836,11.2489,11.1499,11.0162,10.8591,10.6899,10.5155,10.3545,10.3019,10.2488,10.2488,10.2488,10.2488,10.2488,10.2488,10.2787,10.2997,10.3236,10.3446,10.3625,10.3805,10.3655,11.0215,11.0418,11.1095,11.1331,11.1264,11.123,11.0824,11.0215,11.0012,10.9268,10.8219,10.7982,10.7441,10.761,10.8287,10.8828,10.9538,11.038,11.078,11.0942,11.0942,11.1675,11.2271,11.2617,11.3488,11.4077,11.4244,11.4159,11.3854,11.3734,11.3581,11.3426,11.3426,11.3426,11.3426,11.3426,11.3426,11.3426,11.3492,11.3757,11.4453,11.5182,11.5977,11.6706,11.7368,11.7766,11.7799,11.7799,11.7799,11.7799,11.7799,11.7799,11.7799,11.7799,11.7799,11.7435,11.6408,11.5745,11.5281,11.4254,11.3691,11.3426,11.3426,11.3426,11.3426,11.3426,11.3426,11.3426,11.3426,11.3426,11.3426,11.3492,11.3923,11.4486,11.4718,11.5149,11.5579,11.5911,11.5944,11.5911,11.5977,11.6043,11.5745,11.5546,11.4851,11.3923,11.3459,11.3426,11.3426,11.3426,11.3426,11.3426,11.3271,11.3116,11.2803,11.198,11.0819,10.913,10.7421,10.5304,10.3545,10.2862,10.2518,10.2488,10.2488,10.2488,10.2488,10.2488,10.2847,10.3146,10.3625,10.3865,10.4074,10.4284,10.4463,10.9741,11.035,11.1095,11.1061,11.0553,11.0519,11.008,10.9369,10.8727,10.8253,10.7915,10.734,10.6967,10.6934,10.7779,10.849,10.9335,11.0249,11.0892,11.1157,11.1225,11.2204,11.2939,11.3301,11.411,11.4556,11.4646,11.4311,11.4159,11.4007,11.3734,11.3426,11.3426,11.3426,11.3426,11.3426,11.3426,11.3426,11.3426,11.3592,11.3956,11.4784,11.5878,11.6673,11.7401,11.7666,11.7799,11.7799,11.7799,11.7799,11.7799,11.7799,11.7799,11.7799,11.7733,11.7335,11.6275,11.5679,11.5049,11.4122,11.3559,11.3426,11.3426,11.3426,11.3426,11.3426,11.3426,11.3426,11.3426,11.3426,11.3426,11.3426,11.3757,11.4718,11.5248,11.6209,11.6904,11.707,11.7136,11.7136,11.7136,11.6871,11.6341,11.5944,11.5248,11.442,11.3724,11.3658,11.3426,11.3426,11.3459,11.3426,11.3426,11.3116,11.2803,11.2331,11.1338,10.9632,10.7767,10.5483,10.3729,10.2862,10.2676,10.2488,10.2488,10.2488,10.2488,10.2488,10.2668,10.3027,10.3835,10.4313,10.4523,10.4702,10.4882]},{"header":{"parameterUnit":"m.s-1","parameterCategory":1,"la1":31.0,"la2":29.5877,"lo1":-88.7671,"lo2":-86.6584,"dy":0.0162,"dx":0.0185,"nx":115,"ny":88,"refTime":"2026-03-14T00:00:00:Z","depth":0,"parameterNumber":3,"parameterNumberName":"V-component_of_WINDS"},"data":[0.0,0.0,0.0,0.0,0.0,0.0,0.0,0.0,0.0,0.0,0.0,0.0,0.0,0.0,0.0,0.0,0.0,0.0,0.0,0.0,0.0,0.0,0.0,0.0,0.0,0.0,0.0,0.0,0.0,0.0,0.0,0.0,0.0,0.0,0.0,0.0,0.0,0.0,0.0,0.0,0.0,0.0,0.0,0.0,0.0,0.0,0.0,0.0,0.0,0.0,0.0,0.0,0.0,0.0,0.0,0.0,0.0,0.0,0.0,0.0,0.0,0.0,0.0,0.0,0.0,0.0,0.0,0.0,0.0,0.0,0.0,0.0,0.0,0.0,0.0,0.0,0.0,0.0,0.0,0.0,0.0,0.0,0.0,0.0,0.0,0.0,0.0,0.0,0.0,0.0,0.0,0.0,0.0,0.0,0.0,0.0,0.0,0.0,0.0,0.0,0.0,0.0,0.0,0.0,0.0,0.0,0.0,0.0,0.0,0.0,0.0,0.0,0.0,0.0,0.0,0.0,0.0,0.0,0.0,0.0,0.0,0.0,0.0,0.0,0.0,0.0,0.0,0.0,0.0,0.0,0.0,0.0,0.0,0.0,0.0,0.0,0.0,0.0,0.0,0.0,0.0,0.0,0.0,0.0,0.0,0.0,0.0,0.0,0.0,0.0,0.0,0.0,0.0,0.0,0.0,0.0,0.0,0.0,0.0,0.0,0.0,0.0,0.0,0.0,0.0,0.0,0.0,0.0,0.0,0.0,0.0,0.0,0.0,0.0,0.0,0.0,0.0,0.0,0.0,0.0,0.0,0.0,0.0,0.0,0.0,0.0,0.0,0.0,0.0,0.0,0.0,0.0,0.0,0.0,0.0,0.0,0.0,0.0,0.0,0.0,0.0,0.0,0.0,0.0,0.0,0.0,0.0,0.0,0.0,0.0,0.0,0.0,0.0,0.0,0.0,0.0,0.0,0.0,0.0,0.0,0.0,0.0,0.0,0.0,0.0,0.0,0.0,0.0,0.0,0.0,0.0,0.0,0.0,0.0,0.0,0.0,0.0,0.0,0.0,0.0,0.0,0.0,0.0,0.0,0.0,0.0,0.0,0.0,0.0,0.0,0.0,0.0,0.0,0.0,0.0,0.0,0.0,0.0,0.0,0.0,0.0,0.0,0.0,0.0,0.0,0.0,0.0,0.0,0.0,0.0,0.0,0.0,0.0,0.0,0.0,0.0,0.0,0.0,0.0,0.0,0.0,0.0,0.0,0.0,0.0,0.0,0.0,0.0,0.0,0.0,0.0,0.0,0.0,0.0,0.0,0.0,0.0,0.0,0.0,0.0,0.0,0.0,0.0,0.0,0.0,0.0,0.0,0.0,0.0,0.0,0.0,0.0,0.0,0.0,0.0,0.0,0.0,0.0,0.0,0.0,0.0,0.0,0.0,0.0,0.0,0.0,0.0,0.0,0.0,0.0,0.0,0.0,0.0,0.0,0.0,0.0,0.0,0.0,0.0,0.0,0.0,0.0,0.0,0.0,0.0,0.0,0.0,0.0,0.0,0.0,0.0,0.0,0.0,0.0,0.0,0.0,0.0,0.0,0.0,0.0,0.0,0.0,0.0,0.0,0.0,0.0,0.0,0.0,0.0,0.0,0.0,0.0,0.0,0.0,0.0,0.0,0.0,0.0,0.0,0.0,0.0,0.0,0.0,0.0,0.0,0.0,0.0,0.0,0.0,0.0,0.0,0.0,0.0,0.0,0.0,0.0,0.0,0.0,0.0,0.0,0.0,0.0,0.0,0.0,0.0,0.0,0.0,0.0,0.0,0.0,0.0,0.0,0.0,0.0,0.0,0.0,0.0,0.0,0.0,0.0,0.0,0.0,0.0,0.0,0.0,0.0,0.0,0.0,0.0,0.0,0.0,0.0,0.0,0.0,0.0,0.0,0.0,0.0,0.0,0.0,0.0,0.0,0.0,0.0,0.0,0.0,0.0,0.0,0.0,0.0,0.0,0.0,0.0,0.0,0.0,0.0,0.0,0.0,0.0,0.0,0.0,0.0,0.0,0.0,0.0,0.0,0.0,0.0,0.0,0.0,0.0,0.0,0.0,0.0,0.0,0.0,0.0,0.0,0.0,0.0,0.0,0.0,0.0,0.0,0.0,0.0,0.0,0.0,0.0,0.0,0.0,0.0,0.0,0.0,0.0,0.0,0.0,0.0,0.0,0.0,0.0,0.0,0.0,0.0,0.0,0.0,0.0,0.0,0.0,0.0,0.0,0.0,0.0,0.0,0.0,0.0,0.0,0.0,0.0,0.0,0.0,0.0,0.0,0.0,0.0,0.0,0.0,0.0,0.0,0.0,0.0,0.0,0.0,0.0,0.0,0.0,0.0,0.0,0.0,0.0,0.0,0.0,0.0,0.0,0.0,0.0,0.0,0.0,0.0,0.0,0.0,0.0,0.0,0.0,0.0,0.0,0.0,0.0,0.0,0.0,0.0,0.0,0.0,0.0,0.0,0.0,0.0,0.0,0.0,0.0,0.0,0.0,0.0,0.0,0.0,0.0,0.0,0.0,0.0,0.0,0.0,0.0,0.0,0.0,0.0,0.0,0.0,0.0,0.0,0.0,0.0,0.0,0.0,0.0,0.0,0.0,0.0,0.0,0.0,0.0,0.0,0.0,0.0,0.0,0.0,0.0,0.0,0.0,0.0,0.0,0.0,0.0,0.0,0.0,0.0,0.0,0.0,0.0,0.0,0.0,0.0,0.0,0.0,0.0,0.0,0.0,0.0,0.0,0.0,0.0,0.0,0.0,0.0,0.0,0.0,0.0,0.0,0.0,0.0,0.0,0.0,0.0,0.0,0.0,0.0,0.0,0.0,0.0,0.0,0.0,0.0,0.0,0.0,0.0,0.0,0.0,0.0,0.0,0.0,0.0,0.0,0.0,0.0,0.0,0.0,0.0,0.0,0.0,0.0,0.0,0.0,0.0,0.0,0.0,0.0,0.0,0.0,0.0,0.0,0.0,0.0,0.0,0.0,0.0,0.0,0.0,0.0,0.0,0.0,0.0,0.0,0.0,0.0,0.0,0.0,0.0,0.0,0.0,0.0,0.0,0.0,0.0,0.0,0.0,0.0,0.0,0.0,0.0,0.0,0.0,0.0,0.0,0.0,0.0,0.0,0.0,0.0,0.0,0.0,0.0,0.0,0.0,0.0,0.0,0.0,0.0,0.0,0.0,0.0,0.0,0.0,0.0,0.0,0.0,0.0,0.0,0.0,0.0,0.0,0.0,0.0,0.0,0.0,0.0,0.0,0.0,0.0,0.0,0.0,0.0,0.0,0.0,0.0,0.0,0.0,0.0,0.0,0.0,0.0,0.0,0.0,0.0,0.0,0.0,0.0,0.0,0.0,0.0,0.0,0.0,0.0,0.0,0.0,0.0,0.0,0.0,0.0,0.0,0.0,0.0,0.0,0.0,0.0,0.0,0.0,0.0,0.0,0.0,0.0,0.0,0.0,0.0,0.0,0.0,0.0,0.0,0.0,0.0,0.0,0.0,0.0,0.0,0.0,0.0,0.0,0.0,0.0,0.0,0.0,0.0,0.0,0.0,0.0,0.0,0.0,0.0,0.0,0.0,0.0,0.0,0.0,0.0,0.0,0.0,0.0,0.0,0.0,0.0,0.0,0.0,0.0,0.0,0.0,0.0,0.0,0.0,0.0,0.0,0.0,0.0,0.0,0.0,0.0,0.0,0.0,0.0,0.0,0.0,0.0,0.0,0.0,0.0,0.0,0.0,0.0,0.0,0.0,0.0,0.0,0.0,0.0,0.0,0.0,0.0,0.0,0.0,0.0,0.0,0.0,0.0,0.0,0.0,0.0,0.0,0.0,0.0,0.0,0.0,0.0,0.0,0.0,0.0,0.0,0.0,0.0,0.0,0.0,0.0,0.0,0.0,0.0,0.0,0.0,0.0,0.0,0.0,0.0,0.0,0.0,0.0,0.0,0.0,0.0,0.0,0.0,0.0,0.0,0.0,0.0,0.0,0.0,0.0,0.0,0.0,0.0,0.0,0.0,0.0,0.0,0.0,0.0,0.0,0.0,0.0,0.0,0.0,0.0,0.0,0.0,0.0,0.0,0.0,0.0,0.0,0.0,0.0,0.0,0.0,0.0,0.0,0.0,0.0,0.0,0.0,0.0,0.0,0.0,0.0,0.0,0.0,0.0,0.0,0.0,0.0,0.0,0.0,0.0,0.0,0.0,0.0,0.0,0.0,0.0,0.0,0.0,0.0,-4.7518,0.0,0.0,0.0,0.0,0.0,0.0,0.0,0.0,0.0,0.0,0.0,0.0,0.0,0.0,0.0,0.0,0.0,0.0,0.0,0.0,0.0,0.0,0.0,0.0,0.0,0.0,0.0,0.0,0.0,0.0,0.0,0.0,0.0,0.0,0.0,0.0,0.0,0.0,0.0,0.0,0.0,0.0,0.0,0.0,0.0,0.0,0.0,0.0,0.0,0.0,0.0,0.0,0.0,0.0,0.0,0.0,0.0,0.0,0.0,0.0,0.0,0.0,0.0,0.0,0.0,0.0,0.0,0.0,0.0,0.0,0.0,0.0,0.0,0.0,0.0,0.0,0.0,0.0,0.0,0.0,0.0,0.0,0.0,0.0,0.0,0.0,0.0,0.0,0.0,0.0,0.0,0.0,0.0,0.0,0.0,0.0,0.0,0.0,0.0,0.0,0.0,0.0,0.0,0.0,0.0,0.0,0.0,0.0,0.0,0.0,-4.814,-4.8349,-4.7959,-4.751,-4.7012,0.0,0.0,0.0,0.0,0.0,0.0,0.0,0.0,0.0,0.0,0.0,0.0,0.0,0.0,0.0,0.0,0.0,0.0,0.0,0.0,0.0,0.0,0.0,0.0,0.0,0.0,0.0,0.0,0.0,0.0,0.0,0.0,0.0,0.0,0.0,0.0,0.0,0.0,0.0,0.0,0.0,0.0,0.0,0.0,0.0,0.0,0.0,0.0,0.0,0.0,0.0,0.0,0.0,0.0,0.0,0.0,0.0,0.0,0.0,0.0,0.0,0.0,0.0,0.0,0.0,0.0,0.0,0.0,0.0,0.0,0.0,0.0,0.0,0.0,0.0,0.0,0.0,0.0,0.0,0.0,0.0,0.0,0.0,0.0,0.0,0.0,0.0,0.0,0.0,0.0,0.0,0.0,0.0,0.0,0.0,0.0,0.0,0.0,0.0,0.0,0.0,0.0,0.0,0.0,0.0,0.0,0.0,0.0,0.0,0.0,0.0,0.0,-4.7118,-4.6763,-4.5986,0.0,0.0,0.0,0.0,0.0,0.0,0.0,0.0,0.0,0.0,0.0,0.0,0.0,0.0,0.0,0.0,0.0,0.0,0.0,0.0,0.0,0.0,0.0,0.0,0.0,0.0,0.0,0.0,0.0,0.0,0.0,0.0,0.0,0.0,0.0,0.0,0.0,0.0,0.0,0.0,0.0,0.0,0.0,0.0,0.0,0.0,0.0,0.0,0.0,0.0,0.0,0.0,0.0,0.0,0.0,0.0,0.0,0.0,0.0,0.0,0.0,0.0,0.0,0.0,0.0,0.0,0.0,0.0,0.0,0.0,0.0,0.0,0.0,0.0,0.0,0.0,0.0,0.0,0.0,0.0,0.0,0.0,0.0,0.0,0.0,0.0,0.0,0.0,0.0,0.0,0.0,0.0,0.0,0.0,0.0,0.0,0.0,0.0,0.0,0.0,0.0,0.0,0.0,0.0,0.0,0.0,0.0,0.0,0.0,0.0,-4.6355,-4.6658,-4.6326,0.0,-4.4441,0.0,0.0,0.0,0.0,0.0,0.0,0.0,0.0,0.0,0.0,0.0,0.0,0.0,0.0,0.0,0.0,0.0,0.0,0.0,0.0,0.0,0.0,0.0,0.0,0.0,0.0,0.0,0.0,0.0,0.0,0.0,0.0,0.0,0.0,0.0,0.0,0.0,0.0,0.0,0.0,0.0,0.0,0.0,0.0,0.0,0.0,0.0,0.0,0.0,0.0,0.0,0.0,0.0,0.0,0.0,0.0,0.0,0.0,0.0,0.0,0.0,0.0,0.0,0.0,0.0,0.0,0.0,0.0,0.0,0.0,0.0,0.0,0.0,0.0,0.0,0.0,0.0,0.0,0.0,0.0,0.0,0.0,0.0,0.0,0.0,0.0,0.0,0.0,0.0,0.0,0.0,0.0,0.0,0.0,0.0,0.0,0.0,0.0,0.0,0.0,0.0,0.0,0.0,0.0,0.0,0.0,0.0,0.0,0.0,0.0,0.0,-4.5201,-4.4955,-4.4482,0.0,0.0,0.0,0.0,0.0,0.0,0.0,0.0,0.0,0.0,0.0,0.0,0.0,0.0,0.0,0.0,0.0,0.0,0.0,0.0,0.0,0.0,0.0,0.0,0.0,0.0,0.0,0.0,0.0,0.0,0.0,0.0,0.0,0.0,0.0,0.0,0.0,0.0,0.0,0.0,0.0,0.0,0.0,0.0,0.0,0.0,0.0,0.0,0.0,0.0,0.0,0.0,0.0,0.0,0.0,0.0,0.0,0.0,0.0,0.0,0.0,0.0,0.0,0.0,0.0,0.0,0.0,0.0,0.0,0.0,0.0,0.0,0.0,0.0,0.0,0.0,0.0,0.0,0.0,0.0,0.0,0.0,0.0,0.0,0.0,0.0,0.0,0.0,0.0,0.0,0.0,0.0,0.0,0.0,0.0,0.0,0.0,0.0,0.0,0.0,0.0,0.0,0.0,0.0,0.0,0.0,0.0,0.0,0.0,0.0,-4.4196,0.0,-4.4236,-4.4033,-4.3628,-4.2769,0.0,0.0,0.0,0.0,0.0,0.0,0.0,0.0,0.0,0.0,0.0,0.0,0.0,0.0,0.0,0.0,0.0,0.0,0.0,0.0,0.0,0.0,0.0,0.0,0.0,0.0,0.0,0.0,0.0,0.0,0.0,0.0,0.0,0.0,0.0,0.0,0.0,0.0,0.0,0.0,0.0,0.0,0.0,0.0,0.0,0.0,0.0,0.0,0.0,0.0,0.0,0.0,0.0,0.0,0.0,0.0,0.0,0.0,0.0,0.0,0.0,0.0,0.0,0.0,0.0,0.0,0.0,0.0,0.0,0.0,0.0,0.0,0.0,0.0,0.0,0.0,0.0,0.0,0.0,0.0,0.0,0.0,0.0,0.0,0.0,0.0,0.0,0.0,0.0,0.0,0.0,0.0,0.0,0.0,0.0,0.0,0.0,0.0,0.0,0.0,0.0,0.0,0.0,0.0,0.0,0.0,0.0,0.0,0.0,-4.4029,-4.4277,-4.4256,-4.3861,-4.2583,0.0,0.0,0.0,0.0,0.0,0.0,0.0,0.0,0.0,0.0,0.0,0.0,0.0,0.0,0.0,0.0,0.0,0.0,0.0,0.0,0.0,0.0,0.0,0.0,0.0,0.0,0.0,0.0,0.0,0.0,0.0,0.0,0.0,0.0,0.0,0.0,0.0,0.0,0.0,0.0,0.0,0.0,0.0,0.0,0.0,0.0,0.0,0.0,0.0,0.0,0.0,0.0,0.0,0.0,0.0,0.0,0.0,0.0,0.0,0.0,0.0,0.0,0.0,0.0,0.0,0.0,0.0,0.0,0.0,0.0,0.0,0.0,0.0,0.0,0.0,0.0,0.0,0.0,0.0,0.0,0.0,0.0,0.0,0.0,0.0,0.0,0.0,0.0,0.0,0.0,0.0,0.0,0.0,0.0,0.0,0.0,0.0,0.0,0.0,0.0,0.0,0.0,0.0,0.0,0.0,0.0,0.0,0.0,0.0,-4.2766,-4.347,-4.3718,-4.3408,-4.2957,-4.2,0.0,0.0,0.0,0.0,0.0,0.0,0.0,0.0,0.0,0.0,0.0,0.0,0.0,0.0,0.0,0.0,0.0,0.0,0.0,0.0,0.0,0.0,0.0,0.0,0.0,0.0,0.0,0.0,0.0,0.0,0.0,0.0,0.0,0.0,0.0,0.0,0.0,0.0,0.0,0.0,0.0,0.0,0.0,0.0,0.0,0.0,0.0,0.0,0.0,0.0,0.0,0.0,0.0,0.0,0.0,0.0,0.0,0.0,0.0,0.0,0.0,0.0,0.0,0.0,0.0,0.0,0.0,0.0,0.0,0.0,0.0,0.0,0.0,0.0,0.0,0.0,0.0,0.0,0.0,0.0,0.0,0.0,0.0,0.0,0.0,0.0,0.0,0.0,0.0,0.0,0.0,0.0,0.0,0.0,0.0,0.0,0.0,0.0,0.0,0.0,0.0,0.0,0.0,0.0,0.0,0.0,0.0,0.0,0.0,-4.2476,0.0,-4.3304,0.0,-4.2414,-4.1378,0.0,0.0,0.0,0.0,0.0,0.0,0.0,0.0,0.0,0.0,0.0,0.0,0.0,0.0,0.0,0.0,0.0,0.0,0.0,0.0,0.0,0.0,0.0,0.0,0.0,0.0,0.0,0.0,0.0,0.0,0.0,0.0,0.0,0.0,0.0,0.0,0.0,0.0,0.0,0.0,0.0,0.0,0.0,0.0,0.0,0.0,0.0,0.0,0.0,0.0,0.0,0.0,0.0,0.0,0.0,0.0,0.0,0.0,0.0,0.0,0.0,0.0,0.0,0.0,0.0,0.0,0.0,0.0,0.0,0.0,0.0,0.0,0.0,0.0,0.0,0.0,0.0,0.0,0.0,0.0,0.0,0.0,0.0,0.0,0.0,0.0,0.0,0.0,0.0,0.0,0.0,0.0,0.0,0.0,0.0,0.0,0.0,0.0,0.0,0.0,0.0,0.0,0.0,0.0,0.0,0.0,0.0,0.0,0.0,-4.289,-4.2932,-4.318,-4.3553,-4.2311,-4.0944,0.0,0.0,0.0,0.0,0.0,0.0,0.0,0.0,0.0,0.0,0.0,0.0,0.0,0.0,0.0,0.0,0.0,0.0,0.0,0.0,0.0,0.0,0.0,0.0,0.0,0.0,0.0,0.0,0.0,0.0,0.0,0.0,0.0,0.0,0.0,0.0,0.0,0.0,0.0,0.0,0.0,0.0,0.0,0.0,0.0,0.0,0.0,0.0,0.0,0.0,0.0,0.0,0.0,0.0,0.0,0.0,0.0,0.0,0.0,0.0,0.0,0.0,0.0,0.0,0.0,0.0,0.0,0.0,0.0,0.0,0.0,0.0,0.0,0.0,0.0,0.0,0.0,0.0,0.0,0.0,0.0,0.0,0.0,0.0,0.0,0.0,0.0,0.0,0.0,0.0,0.0,0.0,0.0,0.0,0.0,0.0,0.0,0.0,0.0,0.0,0.0,0.0,0.0,0.0,0.0,0.0,0.0,0.0,0.0,-4.2911,-4.3221,-4.347,-4.3573,-4.26,-4.1255,0.0,0.0,0.0,0.0,0.0,0.0,0.0,0.0,0.0,0.0,0.0,0.0,0.0,0.0,0.0,0.0,0.0,0.0,0.0,0.0,0.0,0.0,0.0,0.0,0.0,0.0,0.0,0.0,0.0,0.0,0.0,0.0,0.0,0.0,0.0,0.0,0.0,0.0,0.0,0.0,0.0,0.0,0.0,0.0,0.0,0.0,0.0,0.0,0.0,0.0,0.0,0.0,0.0,0.0,0.0,0.0,0.0,0.0,0.0,0.0,0.0,0.0,0.0,0.0,0.0,0.0,0.0,0.0,0.0,0.0,0.0,0.0,0.0,0.0,0.0,0.0,0.0,0.0,0.0,0.0,0.0,0.0,0.0,0.0,0.0,0.0,0.0,0.0,0.0,0.0,0.0,0.0,0.0,0.0,0.0,0.0,0.0,0.0,0.0,0.0,0.0,0.0,0.0,0.0,0.0,0.0,0.0,0.0,0.0,-4.4401,-4.4401,-4.4546,-4.4877,-4.3677,-4.2166,-4.0344,0.0,0.0,0.0,0.0,0.0,0.0,0.0,0.0,0.0,0.0,0.0,0.0,0.0,0.0,0.0,0.0,0.0,0.0,0.0,0.0,0.0,0.0,0.0,0.0,0.0,0.0,0.0,0.0,0.0,0.0,0.0,0.0,0.0,0.0,0.0,0.0,0.0,0.0,0.0,0.0,0.0,0.0,0.0,0.0,0.0,0.0,0.0,0.0,0.0,0.0,0.0,0.0,0.0,0.0,0.0,0.0,0.0,0.0,0.0,0.0,0.0,0.0,0.0,0.0,0.0,0.0,0.0,0.0,0.0,0.0,0.0,0.0,0.0,0.0,0.0,0.0,0.0,0.0,0.0,0.0,0.0,0.0,0.0,0.0,0.0,0.0,0.0,0.0,0.0,0.0,0.0,0.0,0.0,0.0,0.0,0.0,0.0,0.0,0.0,0.0,0.0,0.0,0.0,0.0,0.0,0.0,0.0,0.0,-4.7196,-4.6492,-4.6471,-4.7134,-4.5436,-4.3594,0.0,0.0,0.0,0.0,0.0,0.0,0.0,0.0,0.0,0.0,0.0,0.0,0.0,0.0,0.0,0.0,0.0,0.0,0.0,0.0,0.0,0.0,0.0,0.0,0.0,0.0,0.0,0.0,0.0,0.0,0.0,0.0,0.0,0.0,0.0,0.0,0.0,0.0,0.0,0.0,0.0,0.0,0.0,0.0,0.0,0.0,0.0,0.0,0.0,0.0,0.0,0.0,0.0,0.0,0.0,0.0,0.0,0.0,0.0,0.0,0.0,0.0,0.0,0.0,0.0,0.0,0.0,0.0,0.0,0.0,0.0,0.0,0.0,0.0,0.0,0.0,0.0,0.0,0.0,0.0,0.0,0.0,0.0,0.0,0.0,0.0,0.0,0.0,0.0,0.0,0.0,0.0,0.0,0.0,0.0,0.0,0.0,0.0,0.0,0.0,0.0,0.0,0.0,0.0,0.0,0.0,0.0,0.0,0.0,-4.9431,-5.0632,-5.0529,-4.908,-4.7589,-4.5623,0.0,0.0,0.0,0.0,0.0,0.0,0.0,0.0,0.0,0.0,0.0,0.0,0.0,0.0,0.0,0.0,0.0,0.0,0.0,0.0,0.0,0.0,0.0,0.0,0.0,0.0,0.0,0.0,0.0,0.0,0.0,0.0,0.0,0.0,0.0,0.0,0.0,0.0,0.0,0.0,0.0,0.0,0.0,0.0,0.0,0.0,0.0,0.0,0.0,0.0,0.0,0.0,0.0,0.0,0.0,0.0,0.0,0.0,0.0,0.0,0.0,0.0,0.0,0.0,0.0,0.0,0.0,0.0,0.0,0.0,0.0,0.0,0.0,0.0,0.0,0.0,0.0,0.0,0.0,0.0,0.0,0.0,0.0,0.0,0.0,0.0,0.0,0.0,0.0,0.0,0.0,0.0,0.0,0.0,0.0,0.0,0.0,0.0,0.0,0.0,0.0,0.0,0.0,0.0,0.0,0.0,0.0,0.0,-4.8272,-5.1232,-5.3468,-5.3965,-5.264,-5.0363,-4.7672,0.0,0.0,0.0,0.0,0.0,0.0,0.0,0.0,0.0,0.0,0.0,0.0,0.0,0.0,0.0,0.0,0.0,0.0,0.0,0.0,0.0,0.0,0.0,0.0,0.0,0.0,0.0,0.0,0.0,0.0,0.0,0.0,0.0,0.0,0.0,0.0,0.0,0.0,0.0,0.0,0.0,0.0,0.0,0.0,0.0,0.0,0.0,0.0,0.0,0.0,0.0,0.0,0.0,0.0,0.0,0.0,0.0,0.0,0.0,0.0,0.0,0.0,0.0,0.0,0.0,0.0,0.0,0.0,0.0,0.0,0.0,0.0,0.0,0.0,0.0,0.0,0.0,0.0,0.0,0.0,0.0,0.0,0.0,0.0,0.0,0.0,0.0,0.0,0.0,0.0,0.0,0.0,0.0,0.0,0.0,0.0,0.0,0.0,0.0,0.0,0.0,0.0,0.0,0.0,0.0,0.0,0.0,0.0,-4.9949,-5.2723,-5.5434,-5.6842,-5.6738,-5.3302,-4.968,0.0,0.0,0.0,0.0,0.0,0.0,0.0,0.0,0.0,0.0,0.0,0.0,0.0,0.0,0.0,0.0,0.0,0.0,0.0,0.0,0.0,0.0,0.0,0.0,0.0,0.0,0.0,0.0,0.0,0.0,0.0,0.0,0.0,0.0,0.0,0.0,0.0,0.0,0.0,0.0,0.0,0.0,0.0,0.0,0.0,0.0,0.0,0.0,0.0,0.0,0.0,0.0,0.0,0.0,0.0,0.0,0.0,0.0,0.0,0.0,0.0,0.0,0.0,0.0,0.0,0.0,0.0,0.0,0.0,0.0,0.0,0.0,0.0,0.0,0.0,0.0,0.0,0.0,0.0,0.0,0.0,0.0,0.0,0.0,0.0,0.0,0.0,0.0,0.0,0.0,0.0,0.0,0.0,0.0,0.0,0.0,0.0,0.0,0.0,0.0,0.0,0.0,0.0,0.0,0.0,0.0,0.0,0.0,-5.1481,-5.4565,-5.7297,-5.8726,-5.8705,-5.5165,-5.1543,0.0,0.0,0.0,0.0,0.0,0.0,0.0,0.0,0.0,0.0,0.0,0.0,0.0,0.0,0.0,0.0,0.0,0.0,0.0,0.0,0.0,0.0,0.0,0.0,0.0,0.0,0.0,0.0,0.0,0.0,0.0,0.0,0.0,0.0,0.0,0.0,0.0,0.0,0.0,0.0,0.0,0.0,0.0,0.0,0.0,0.0,0.0,0.0,-4.6581,0.0,0.0,0.0,0.0,0.0,0.0,0.0,0.0,0.0,0.0,0.0,0.0,0.0,0.0,0.0,0.0,0.0,0.0,0.0,0.0,0.0,0.0,0.0,0.0,0.0,0.0,0.0,0.0,0.0,0.0,0.0,0.0,0.0,0.0,0.0,0.0,0.0,0.0,0.0,0.0,0.0,0.0,0.0,0.0,0.0,0.0,0.0,0.0,0.0,0.0,0.0,0.0,0.0,0.0,0.0,0.0,0.0,0.0,0.0,-5.2619,-5.5766,-5.8312,-5.9636,-5.9512,-5.6697,-5.3199,0.0,0.0,0.0,0.0,0.0,0.0,0.0,0.0,0.0,0.0,0.0,0.0,0.0,0.0,0.0,0.0,0.0,0.0,0.0,0.0,0.0,0.0,0.0,0.0,0.0,0.0,0.0,0.0,0.0,0.0,0.0,0.0,0.0,0.0,0.0,0.0,0.0,0.0,0.0,0.0,0.0,0.0,0.0,0.0,0.0,0.0,0.0,0.0,0.0,0.0,0.0,0.0,0.0,0.0,0.0,0.0,0.0,0.0,0.0,0.0,0.0,0.0,0.0,0.0,0.0,0.0,0.0,0.0,0.0,0.0,0.0,0.0,0.0,0.0,0.0,0.0,0.0,0.0,0.0,0.0,0.0,0.0,0.0,0.0,0.0,0.0,0.0,0.0,0.0,0.0,0.0,0.0,0.0,0.0,0.0,0.0,0.0,0.0,0.0,0.0,0.0,0.0,0.0,0.0,0.0,0.0,0.0,-5.0156,-5.3633,-5.6697,-5.9078,-6.0237,-6.0071,-5.7815,-5.4503,-5.0115,0.0,0.0,0.0,0.0,0.0,0.0,0.0,0.0,0.0,0.0,0.0,0.0,0.0,0.0,0.0,0.0,0.0,0.0,0.0,0.0,0.0,0.0,0.0,0.0,0.0,0.0,0.0,0.0,0.0,0.0,0.0,0.0,0.0,0.0,0.0,0.0,0.0,0.0,-4.2141,-4.5178,0.0,0.0,0.0,0.0,0.0,0.0,0.0,0.0,-4.6287,0.0,0.0,0.0,0.0,0.0,0.0,0.0,0.0,0.0,0.0,0.0,0.0,0.0,0.0,0.0,0.0,0.0,0.0,0.0,0.0,0.0,0.0,0.0,0.0,0.0,0.0,0.0,0.0,0.0,0.0,0.0,0.0,0.0,0.0,0.0,0.0,0.0,0.0,0.0,0.0,0.0,0.0,0.0,0.0,0.0,0.0,0.0,0.0,0.0,0.0,0.0,0.0,0.0,0.0,0.0,0.0,-4.6326,-5.1067,-5.4875,-5.7649,-6.032,-6.1334,-6.0547,-5.796,-5.4772,-5.1005,0.0,0.0,0.0,0.0,0.0,0.0,0.0,0.0,0.0,0.0,0.0,0.0,0.0,0.0,0.0,0.0,0.0,0.0,0.0,0.0,0.0,0.0,0.0,0.0,0.0,0.0,0.0,0.0,0.0,0.0,0.0,0.0,0.0,0.0,0.0,0.0,0.0,0.0,0.0,-4.7085,-4.8353,0.0,0.0,0.0,0.0,0.0,0.0,0.0,0.0,-4.6405,0.0,0.0,0.0,0.0,0.0,0.0,0.0,0.0,0.0,0.0,0.0,0.0,0.0,0.0,0.0,0.0,0.0,0.0,0.0,0.0,0.0,0.0,0.0,0.0,0.0,0.0,0.0,0.0,0.0,0.0,0.0,0.0,0.0,0.0,0.0,0.0,0.0,0.0,0.0,0.0,0.0,0.0,0.0,0.0,0.0,0.0,0.0,0.0,0.0,0.0,0.0,0.0,0.0,0.0,0.0,-4.7424,-5.1895,-5.5641,-5.8581,-6.0878,-6.1603,-6.0651,-5.8001,-5.4855,0.0,0.0,0.0,0.0,0.0,0.0,0.0,0.0,0.0,0.0,0.0,0.0,0.0,0.0,0.0,0.0,0.0,0.0,0.0,0.0,0.0,0.0,0.0,0.0,0.0,0.0,0.0,0.0,0.0,0.0,0.0,0.0,0.0,0.0,0.0,0.0,0.0,0.0,0.0,0.0,-4.6887,-4.7912,-4.9344,0.0,0.0,0.0,0.0,0.0,0.0,-4.578,-4.6025,0.0,0.0,0.0,0.0,0.0,0.0,0.0,0.0,0.0,0.0,0.0,0.0,0.0,0.0,0.0,0.0,0.0,0.0,0.0,0.0,0.0,0.0,0.0,0.0,0.0,0.0,0.0,0.0,0.0,0.0,0.0,0.0,0.0,0.0,0.0,0.0,0.0,0.0,0.0,0.0,0.0,0.0,0.0,0.0,0.0,0.0,0.0,0.0,0.0,0.0,0.0,0.0,0.0,0.0,0.0,-4.8355,-5.2619,-5.6304,-5.9347,-6.123,-6.1644,-6.0547,-5.7877,-5.471,0.0,0.0,0.0,0.0,0.0,0.0,0.0,0.0,0.0,0.0,0.0,0.0,0.0,0.0,0.0,0.0,0.0,0.0,0.0,0.0,0.0,0.0,0.0,0.0,0.0,0.0,0.0,0.0,0.0,0.0,0.0,0.0,0.0,0.0,0.0,0.0,0.0,0.0,0.0,0.0,0.0,-4.7698,-4.957,-4.8471,0.0,0.0,0.0,0.0,-4.6011,-4.5966,0.0,0.0,0.0,0.0,0.0,0.0,0.0,0.0,0.0,0.0,0.0,0.0,0.0,0.0,0.0,0.0,0.0,0.0,0.0,0.0,0.0,0.0,0.0,0.0,0.0,0.0,0.0,0.0,0.0,0.0,0.0,0.0,0.0,0.0,0.0,0.0,0.0,0.0,0.0,0.0,0.0,0.0,0.0,0.0,0.0,0.0,0.0,0.0,0.0,0.0,0.0,0.0,0.0,0.0,0.0,0.0,-4.8376,-5.322,-5.707,-5.9823,-6.1665,-6.1789,-6.0092,-5.738,-5.4234,0.0,0.0,0.0,0.0,0.0,0.0,0.0,0.0,0.0,0.0,0.0,0.0,0.0,0.0,0.0,0.0,0.0,0.0,0.0,0.0,0.0,0.0,0.0,0.0,0.0,0.0,0.0,0.0,0.0,0.0,0.0,0.0,0.0,0.0,0.0,0.0,0.0,0.0,0.0,0.0,0.0,-4.8539,-4.9762,-4.8564,-4.7264,0.0,0.0,-4.6788,-4.7044,-4.753,0.0,0.0,0.0,0.0,0.0,0.0,0.0,0.0,0.0,0.0,0.0,0.0,0.0,0.0,0.0,0.0,0.0,0.0,0.0,0.0,0.0,0.0,0.0,0.0,0.0,0.0,0.0,0.0,0.0,0.0,0.0,0.0,0.0,0.0,0.0,0.0,0.0,0.0,0.0,0.0,0.0,0.0,0.0,0.0,0.0,0.0,0.0,0.0,0.0,0.0,0.0,0.0,0.0,0.0,0.0,-4.4774,-4.9121,-5.384,-5.7608,-6.0299,-6.1893,-6.181,-6.003,-5.7318,-5.4048,0.0,0.0,0.0,0.0,0.0,0.0,0.0,0.0,0.0,0.0,0.0,0.0,0.0,0.0,0.0,0.0,0.0,0.0,0.0,0.0,0.0,0.0,0.0,0.0,0.0,0.0,0.0,0.0,0.0,0.0,0.0,0.0,0.0,0.0,0.0,0.0,0.0,0.0,0.0,0.0,0.0,0.0,-4.9642,-4.8961,0.0,0.0,0.0,-4.8195,-4.8662,0.0,0.0,0.0,0.0,0.0,0.0,0.0,0.0,0.0,0.0,0.0,0.0,0.0,0.0,0.0,0.0,0.0,0.0,0.0,0.0,0.0,0.0,0.0,0.0,0.0,0.0,0.0,0.0,0.0,0.0,0.0,0.0,0.0,0.0,0.0,0.0,0.0,0.0,0.0,0.0,0.0,0.0,0.0,0.0,0.0,0.0,0.0,0.0,0.0,0.0,0.0,0.0,0.0,0.0,0.0,0.0,0.0,-4.9866,-5.4399,-5.8063,-6.0775,-6.2038,-6.1872,-6.0175,-5.7484,0.0,0.0,0.0,0.0,0.0,0.0,0.0,0.0,0.0,0.0,0.0,0.0,0.0,0.0,0.0,0.0,0.0,0.0,0.0,0.0,0.0,0.0,0.0,0.0,0.0,0.0,0.0,-3.8241,0.0,0.0,0.0,0.0,0.0,0.0,0.0,0.0,0.0,0.0,0.0,0.0,0.0,0.0,-4.7918,-4.9549,-4.9977,-4.9885,0.0,0.0,-5.0032,-5.0387,-5.0141,-4.9764,0.0,0.0,0.0,0.0,0.0,0.0,0.0,0.0,0.0,0.0,0.0,0.0,0.0,0.0,0.0,0.0,0.0,0.0,0.0,0.0,0.0,0.0,0.0,0.0,0.0,0.0,0.0,0.0,0.0,0.0,0.0,0.0,0.0,0.0,0.0,0.0,0.0,0.0,0.0,0.0,0.0,0.0,0.0,0.0,0.0,0.0,0.0,0.0,0.0,0.0,0.0,0.0,0.0,0.0,0.0,-5.0342,-5.4875,-5.8519,-6.121,-6.2203,-6.2038,-6.0651,-5.796,-5.4793,0.0,0.0,0.0,0.0,0.0,0.0,0.0,0.0,0.0,0.0,0.0,0.0,0.0,0.0,0.0,0.0,0.0,0.0,0.0,0.0,0.0,0.0,0.0,0.0,0.0,0.0,0.0,0.0,0.0,0.0,0.0,0.0,0.0,0.0,0.0,0.0,0.0,0.0,0.0,0.0,0.0,-4.9454,-5.0102,-5.1519,-5.2123,0.0,0.0,-5.2226,-5.2247,-5.1501,-5.0497,-4.9238,0.0,0.0,0.0,0.0,0.0,0.0,0.0,0.0,0.0,0.0,0.0,0.0,0.0,0.0,0.0,0.0,0.0,0.0,0.0,0.0,0.0,0.0,0.0,0.0,0.0,0.0,0.0,0.0,0.0,0.0,0.0,0.0,0.0,0.0,0.0,0.0,0.0,0.0,0.0,0.0,0.0,0.0,0.0,0.0,0.0,0.0,0.0,0.0,0.0,0.0,0.0,0.0,0.0,-4.6285,-5.0798,-5.5062,-5.856,-6.123,-6.2224,-6.2183,-6.1106,-5.8415,-5.5248,0.0,0.0,0.0,0.0,0.0,0.0,0.0,0.0,0.0,0.0,0.0,0.0,0.0,0.0,0.0,0.0,0.0,0.0,0.0,0.0,0.0,0.0,0.0,0.0,0.0,0.0,0.0,0.0,-4.1533,-4.1728,-4.1297,0.0,0.0,0.0,0.0,0.0,0.0,0.0,0.0,0.0,0.0,-5.0837,-5.2434,-5.3351,0.0,0.0,-5.3692,-5.3361,-5.3282,-5.2329,-5.1099,-4.9613,-4.7014,0.0,0.0,0.0,0.0,0.0,0.0,0.0,0.0,0.0,0.0,0.0,0.0,0.0,0.0,0.0,0.0,0.0,0.0,0.0,0.0,0.0,0.0,0.0,0.0,0.0,0.0,0.0,0.0,0.0,0.0,0.0,0.0,0.0,0.0,0.0,0.0,0.0,0.0,0.0,0.0,0.0,0.0,0.0,0.0,0.0,0.0,0.0,0.0,0.0,0.0,0.0,0.0,-4.6678,-5.1087,-5.5289,-5.8705,-6.1292,-6.2224,-6.2327,-6.1499,-5.9015,-5.6055,0.0,0.0,0.0,0.0,0.0,0.0,0.0,0.0,0.0,0.0,0.0,0.0,0.0,0.0,0.0,0.0,0.0,0.0,0.0,0.0,0.0,0.0,0.0,0.0,0.0,0.0,0.0,0.0,-4.2164,-4.2188,-4.1656,0.0,0.0,0.0,0.0,0.0,0.0,0.0,0.0,0.0,0.0,-5.2771,-5.4369,-5.5216,-5.556,-5.5302,-5.4819,-5.411,-5.3468,-5.2392,-5.1162,-4.9484,0.0,0.0,0.0,0.0,0.0,0.0,0.0,0.0,0.0,0.0,0.0,0.0,0.0,0.0,0.0,0.0,0.0,0.0,0.0,0.0,0.0,0.0,0.0,0.0,0.0,0.0,0.0,0.0,0.0,0.0,-3.459,0.0,0.0,0.0,0.0,0.0,0.0,0.0,0.0,0.0,0.0,0.0,0.0,0.0,0.0,0.0,0.0,0.0,0.0,0.0,0.0,0.0,0.0,0.0,-5.1087,-5.5579,-5.9015,-6.1272,-6.2224,-6.2472,-6.1996,-5.9781,-5.7277,-5.4461,0.0,0.0,0.0,0.0,0.0,0.0,0.0,0.0,0.0,0.0,0.0,0.0,0.0,0.0,0.0,0.0,0.0,0.0,0.0,0.0,0.0,0.0,0.0,0.0,0.0,0.0,-4.1105,-4.1818,-4.2183,0.0,0.0,0.0,0.0,0.0,0.0,0.0,0.0,0.0,0.0,-5.3212,-5.5577,-5.5918,-5.7109,-5.7393,-5.5586,-5.5323,-5.4592,-5.2764,-5.175,-5.0508,0.0,0.0,0.0,0.0,0.0,0.0,0.0,0.0,0.0,0.0,0.0,0.0,0.0,0.0,0.0,0.0,0.0,0.0,0.0,0.0,0.0,0.0,0.0,0.0,0.0,0.0,0.0,-3.8561,-3.8507,0.0,0.0,0.0,0.0,0.0,0.0,0.0,0.0,0.0,0.0,0.0,-4.496,-4.5126,0.0,0.0,0.0,0.0,0.0,0.0,0.0,0.0,0.0,0.0,0.0,0.0,-4.7465,-5.1543,-5.5766,-5.9036,-6.1272,-6.2224,-6.2617,-6.2452,-6.0568,-5.738,-5.2847,0.0,0.0,0.0,0.0,0.0,0.0,0.0,0.0,0.0,0.0,0.0,0.0,0.0,0.0,0.0,0.0,0.0,0.0,0.0,0.0,0.0,0.0,0.0,0.0,0.0,-4.0439,0.0,0.0,0.0,0.0,0.0,0.0,0.0,0.0,0.0,0.0,0.0,-5.0419,-5.3107,-5.5566,-5.7408,-5.8241,-5.8252,-5.7779,0.0,0.0,0.0,0.0,0.0,0.0,0.0,0.0,0.0,0.0,0.0,0.0,0.0,0.0,-5.2188,-5.0801,-5.0406,-5.0494,-5.067,0.0,0.0,0.0,0.0,0.0,0.0,0.0,0.0,0.0,0.0,0.0,0.0,0.0,0.0,-4.1695,0.0,-4.0031,0.0,0.0,0.0,0.0,0.0,0.0,0.0,0.0,-4.4886,-4.6678,-4.8003,-4.8334,-4.8314,0.0,-4.6927,-4.4629,0.0,0.0,0.0,0.0,0.0,0.0,0.0,0.0,-4.8086,-5.2019,-5.6076,-5.9202,-6.1272,-6.2224,-6.2679,-6.2638,-6.0775,-5.7546,-5.2888,-4.9701,-4.674,0.0,0.0,0.0,0.0,0.0,0.0,0.0,0.0,0.0,0.0,0.0,0.0,0.0,0.0,0.0,0.0,0.0,0.0,0.0,0.0,0.0,0.0,0.0,-4.1405,0.0,0.0,0.0,0.0,0.0,0.0,0.0,0.0,0.0,-4.7483,-5.0049,-5.3048,-5.553,-5.7339,-5.8636,-5.9327,0.0,0.0,0.0,0.0,0.0,0.0,0.0,-5.1564,-5.0839,-5.0591,-5.058,-5.0659,-5.1788,-5.3251,-5.5229,0.0,0.0,-5.5236,-5.5036,-5.5421,-5.5767,-5.6068,-5.652,-5.7273,-5.7901,-5.8529,0.0,0.0,0.0,0.0,0.0,0.0,0.0,0.0,-4.5512,-4.533,0.0,-4.3028,0.0,0.0,0.0,0.0,0.0,-4.201,0.0,0.0,-4.8127,-4.9908,-5.1253,-5.2102,-5.2081,-5.1212,-4.9845,-4.85,-4.6989,-4.3118,0.0,0.0,0.0,0.0,0.0,0.0,-4.8873,-5.2495,-5.6511,-5.9471,-6.1292,-6.2203,-6.2638,-6.2576,-6.0506,-5.7898,-5.4772,-5.2454,-4.997,-4.7279,-4.4132,0.0,0.0,0.0,0.0,0.0,0.0,0.0,0.0,0.0,0.0,0.0,0.0,0.0,0.0,0.0,0.0,0.0,0.0,0.0,0.0,-4.091,0.0,0.0,0.0,0.0,0.0,0.0,0.0,0.0,0.0,0.0,-5.077,-5.303,-5.5346,-5.7172,0.0,0.0,0.0,0.0,-5.8978,-5.7042,-5.6322,-5.5555,-5.4195,-5.3571,-5.3137,-5.2702,0.0,0.0,-5.5031,-5.5788,-5.7026,-5.9195,-6.1209,-6.2046,-6.033,-5.9897,-6.0104,-6.1056,-6.1341,-6.1743,-6.2722,-6.3249,-6.3827,-5.1026,0.0,0.0,0.0,0.0,-4.6575,-4.741,-4.8138,-4.8841,-4.8687,-4.7894,-4.6596,0.0,0.0,0.0,0.0,0.0,0.0,-4.7155,-4.9121,-5.0756,-5.2578,-5.4482,-5.413,-5.413,-5.4441,-5.2806,-5.1626,-5.0818,-4.8086,-4.4877,-4.1338,0.0,0.0,0.0,0.0,-4.9638,-5.2971,-5.6366,-5.916,-6.1292,-6.1913,-6.2058,-6.1727,-6.0796,-5.9243,-5.7028,-5.5062,-5.2909,-5.0508,-4.7382,0.0,0.0,0.0,0.0,0.0,0.0,0.0,0.0,0.0,0.0,0.0,0.0,0.0,0.0,0.0,0.0,0.0,0.0,0.0,-3.967,-4.1961,-4.3403,0.0,0.0,0.0,0.0,0.0,0.0,0.0,0.0,0.0,-5.6068,-5.6671,-5.8052,0.0,0.0,-6.1247,-6.2006,-6.1346,-6.0477,-5.9502,-5.8242,0.0,-5.6542,-5.5586,-5.5165,-5.5372,-5.6035,-5.6759,-5.7539,-5.8421,-5.9562,-6.1403,-6.308,-6.4738,-6.5855,-6.5459,-6.5098,-6.5689,-6.5911,-6.6112,-6.6789,-6.7116,-6.7367,-5.5324,-5.1699,-4.9851,-4.8803,-4.8675,-4.981,-5.076,-5.1326,-5.2046,-5.1878,-5.0901,-4.9919,-4.849,-4.6907,-4.5982,0.0,0.0,0.0,-4.9845,-5.1294,-5.3033,-5.4668,-5.6076,-5.6159,-5.6242,-5.6345,-5.5124,-5.4192,-5.353,-5.1626,-4.9121,-4.6057,0.0,0.0,-4.436,-4.7734,-5.086,-5.3696,-5.6676,-5.914,-6.1044,-6.152,-6.1541,-6.1106,-6.0816,-5.9988,-5.8519,-5.7049,-5.5393,-5.3468,-5.0384,-4.7403,0.0,0.0,0.0,0.0,0.0,0.0,0.0,0.0,0.0,0.0,0.0,-3.4445,0.0,0.0,0.0,0.0,-3.729,-3.9184,-4.1586,-4.3354,0.0,0.0,0.0,0.0,0.0,0.0,0.0,-5.3306,-5.5691,-5.8077,-6.0362,-6.0964,-6.1667,-6.2998,-6.2887,-6.2907,-6.337,0.0,-6.2017,-6.1714,-6.0519,-5.9549,-5.92,-5.8473,-5.785,-5.8125,-5.8622,-5.9243,-5.9843,-6.0782,-6.2111,-6.3543,-6.5088,-6.6766,-6.9066,-6.8932,-6.8643,-6.902,-6.91,-6.93,-6.9803,-6.9928,-7.0079,-5.8933,-5.7836,-5.3914,-5.2389,-5.2333,-5.3214,-5.4019,-5.4772,-5.5207,-5.4875,-5.3923,-5.2681,-5.1357,-4.999,-4.9142,0.0,-4.8831,-5.0611,-5.1936,-5.2909,-5.5041,-5.6304,-5.6842,-5.8022,-5.8187,-5.738,-5.6904,-5.6242,-5.5372,-5.4048,-5.295,-5.1998,-4.8645,-4.6865,-4.6844,-4.9701,-5.2329,-5.4565,-5.7173,-5.9222,-6.0651,-6.1106,-6.1148,-6.0692,-6.0651,-6.0175,-5.9264,-5.8353,-5.7256,-5.5869,-5.2909,-4.999,-4.7279,0.0,0.0,0.0,0.0,0.0,0.0,0.0,0.0,0.0,0.0,0.0,0.0,0.0,0.0,0.0,-3.9698,0.0,-4.3499,-4.485,0.0,0.0,0.0,-4.9889,-5.1353,-5.3612,-5.5666,-5.7298,0.0,0.0,-6.3751,-6.5358,-6.586,-6.4404,-6.4643,-6.4729,-6.4446,-6.4235,-6.3876,-6.4004,-6.2855,-6.2096,-6.1726,-6.1071,-6.0553,-6.0551,-6.0713,-6.0961,-6.1686,-6.297,-6.4103,-6.5166,-6.6701,-6.8457,-6.9992,-7.0714,-7.1112,-7.1149,-7.1184,-7.1334,-7.1736,-7.1836,-7.1962,-6.032,-5.9409,-5.8108,-5.6767,-5.5488,-5.6375,-5.6623,-5.6635,-5.707,-5.6552,-5.5372,-5.5041,-5.3965,-5.235,-5.2143,-5.204,-5.2122,-5.3551,-5.471,-5.5641,-5.6863,-5.7856,-5.8643,-5.8643,-5.8684,-5.8746,-5.798,-5.7484,-5.7194,-5.589,-5.4938,-5.4317,-5.2826,-5.1191,-4.9576,-5.1253,-5.3116,-5.502,-5.6697,-5.8581,-6.0609,-6.1127,-6.1127,-6.0692,-6.034,-5.9719,-5.8808,-5.7877,-5.6925,-5.589,-5.3509,-5.1067,-4.8686,-4.5022,0.0,0.0,0.0,0.0,0.0,0.0,0.0,0.0,0.0,-3.5645,-3.6908,0.0,-3.7384,0.0,-4.085,-4.2962,-4.4421,-4.6334,0.0,0.0,-5.1319,-5.3485,-5.5778,-5.7747,-5.9583,-6.1266,-6.3149,-6.4781,-6.6036,-6.7618,-6.8673,-6.8673,-6.7815,-6.7434,-6.8016,-6.7779,-6.7392,-6.6937,-6.5711,-6.4566,-6.3533,-6.2353,-6.1159,-6.0883,-6.0961,-6.1396,-6.1955,-6.3096,-6.4274,-6.5623,-6.7029,-6.8399,-7.0116,-7.0609,-7.0835,-7.1567,-7.215,-7.2364,-7.2514,-7.2514,-7.2565,-6.123,-6.0568,-6.0092,-5.9202,-5.8125,-5.8415,-5.827,-5.7898,-5.8332,-5.7877,-5.6759,-5.6138,-5.5207,-5.411,-5.4296,-5.4379,-5.4482,-5.5786,-5.6676,-5.7215,-5.8105,-5.8808,-5.9285,-5.9243,-5.9243,-5.9285,-5.8767,-5.8415,-5.8187,-5.7463,-5.6759,-5.6076,-5.56,-5.4503,-5.293,-5.322,-5.4089,-5.5476,-5.7256,-5.8871,-6.0299,-6.0402,-6.032,-6.005,-5.9202,-5.8519,-5.8001,-5.6925,-5.6076,-5.5538,-5.3592,-5.1626,-4.9742,-4.6596,-4.3615,0.0,0.0,0.0,0.0,0.0,0.0,0.0,0.0,0.0,0.0,0.0,-3.9951,-4.1462,-4.3248,-4.494,-4.6615,-4.8361,-5.0095,-5.1827,-5.4487,-5.6971,-5.935,-6.163,-6.3394,-6.4906,-6.6488,-6.7744,-6.8396,-6.9652,-7.0656,-7.0958,-7.0472,-7.0004,-6.982,-6.9469,-6.8924,-6.8489,-6.7067,-6.5532,-6.4242,-6.2844,-6.181,-6.1407,-6.1402,-6.1437,-6.1686,-6.2351,-6.3569,-6.5001,-6.6243,-6.7507,-6.9228,-6.9585,-7.0075,-7.1003,-7.1772,-7.2229,-7.2601,-7.274,-7.274,-6.181,-6.1396,-6.0941,-6.0547,-6.0133,-5.9719,-5.9264,-5.8829,-5.9222,-5.8891,-5.8022,-5.678,-5.6014,-5.5662,-5.6035,-5.6221,-5.6304,-5.7525,-5.8105,-5.8146,-5.8995,-5.9388,-5.9409,-5.9802,-5.9781,-5.9388,-5.9388,-5.9181,-5.8788,-5.8726,-5.8291,-5.7504,-5.7318,-5.6842,-5.6055,-5.5207,-5.5248,-5.6138,-5.8167,-5.9471,-5.9968,-5.9533,-5.9264,-5.916,-5.7877,-5.7049,-5.6863,-5.5621,-5.4875,-5.471,-5.3178,-5.1708,-5.0363,-4.792,-4.5374,0.0,-4.1421,0.0,0.0,0.0,0.0,0.0,0.0,0.0,0.0,-4.1938,-4.3242,-4.5333,-4.6389,-4.7631,-4.9195,-5.0698,-5.241,-5.4617,-5.7332,-6.008,-6.249,-6.4997,-6.6887,-6.7993,-6.9551,-7.0455,-7.048,-7.1384,-7.2012,-7.1987,-7.2263,-7.1962,-7.0816,-7.0221,-6.9866,-6.9159,-6.7453,-6.5532,-6.3912,-6.2782,-6.2148,-6.1957,-6.1511,-6.1189,-6.1251,-6.1678,-6.2656,-6.4101,-6.4984,-6.6113,-6.7894,-6.8381,-6.8984,-7.0082,-7.0567,-7.1346,-7.247,-7.2801,-7.2726,-6.1976,-6.1872,-6.1417,-6.1168,-6.1085,-6.0982,-6.0485,-5.974,-5.9823,-5.9554,-5.9015,-5.8374,-5.8043,-5.798,-5.8063,-5.8105,-5.8125,-5.8746,-5.9036,-5.9057,-5.9595,-5.9864,-5.9864,-5.9947,-5.9947,-5.9864,-5.9864,-5.9823,-5.9719,-5.9347,-5.9078,-5.8871,-5.7773,-5.7152,-5.6945,0.0,0.0,0.0,-5.8332,-5.914,-5.9926,-5.9533,-5.9119,-5.8726,-5.7401,0.0,-5.5082,-5.4089,-5.322,-5.2474,-5.175,0.0,0.0,0.0,0.0,0.0,0.0,0.0,0.0,0.0,0.0,0.0,-4.5912,-4.5354,-4.3863,-4.5416,-4.701,-4.821,-4.9452,-5.0466,-5.1266,-5.3315,-5.5012,-5.6297,-5.9294,-6.2197,-6.4134,-6.6311,-6.818,-6.967,-7.0577,-7.1212,-7.1636,-7.2163,-7.2565,-7.2615,-7.2665,-7.2501,-7.1857,-7.1581,-7.0981,-6.9627,-6.7406,-6.5082,-6.2989,-6.2139,-6.1557,-6.1055,-6.0657,-6.0402,-6.0734,-6.122,-6.198,-6.3038,-6.4114,-6.515,-6.6032,-6.6803,-6.7867,-6.8984,-6.949,-7.0477,-7.2366,-7.3193,-7.3367,-6.2224,0.0,-6.1789,-6.1562,0.0,-6.1355,-6.1085,-6.0671,-6.0651,-6.0278,-5.9616,-5.916,-5.8829,-5.8622,-5.885,-5.8953,-5.8974,-5.9429,-5.9636,-5.9657,-5.9885,-5.9988,-5.9988,-5.9988,-5.9988,-5.9988,-5.9988,-5.9988,-5.9988,-5.9761,-5.9533,-5.9285,-5.8601,-5.8146,-5.7918,-5.7691,-5.7794,-5.825,-5.8705,-5.9285,-5.9947,-5.9533,-5.9078,-5.8581,0.0,0.0,0.0,0.0,0.0,0.0,0.0,0.0,0.0,0.0,0.0,-4.8045,-4.7154,-4.6658,-4.6678,-4.7072,-4.7734,-4.8645,-4.9949,-4.9763,-4.7486,-4.8997,-5.0342,-5.1046,-5.2143,-5.3075,-5.3758,-5.5388,-5.6868,-5.8296,-6.0505,-6.2662,-6.4927,-6.6607,-6.8131,-6.9774,-7.0669,-7.1443,-7.2311,-7.2751,-7.3268,-7.3519,-7.3569,-7.3252,-7.2428,-7.1995,-7.0811,-6.8456,-6.6659,-6.4792,-6.3141,-6.2047,-6.1612,-6.1219,-6.0595,-6.0071,-6.0299,-6.053,-6.1076,-6.2127,-6.2655,-6.3408,-6.4503,-6.541,-6.6414,-6.7457,-6.8255,-6.9258,-7.1234,-7.2224,-7.2961,-6.2472,-6.2162,-6.2141,-6.1934,-6.1582,-6.1582,-6.1582,-6.1582,0.0,0.0,0.0,-5.9699,-5.9285,-5.8891,-5.9264,-5.9429,-5.945,-5.9823,-5.9988,-5.9988,-5.9988,-5.9988,-5.9988,-5.9988,-5.9988,-5.9988,-5.9988,-5.9988,-5.9988,-5.9988,-5.9802,-5.945,-5.9347,-5.9119,-5.8746,-5.8726,-5.8767,-5.8871,-5.9222,-5.9636,-6.0092,-5.9657,-5.9202,-5.8726,-5.6966,-5.5579,-5.4668,-5.3054,-5.2122,-5.204,-5.1315,-5.1253,-5.1957,-5.1315,-5.0922,-5.088,-5.057,-5.0239,-4.9949,-5.0694,-5.1253,-5.1481,-5.3385,-5.3633,-5.1439,-5.2454,-5.3406,-5.3861,-5.4648,-5.5434,-5.6159,-5.703,-5.8387,-5.9948,-6.1181,-6.2833,-6.5011,-6.6569,-6.7923,-6.9527,-7.0688,-7.1634,-7.2851,-7.3311,-7.3895,-7.4272,-7.4322,-7.4079,-7.2975,-7.1827,-6.9889,-6.7312,-6.5961,-6.4728,-6.3485,-6.2253,-6.1612,-6.1426,-6.0595,-5.9988,-5.9988,-5.9988,-6.0343,-6.1096,-6.137,-6.1978,-6.3063,-6.3804,-6.4624,-6.5715,-6.6732,-6.7779,-6.938,-7.0721,-7.1878,-6.2638,-6.2597,-6.2597,-6.2555,-6.2493,-6.2493,-6.2493,-6.2431,-6.1686,-6.1065,-6.0589,-6.0527,-6.0237,-5.9802,-5.9864,-5.9906,-5.9885,-5.9968,-5.9988,0.0,-5.9988,-5.9988,-5.9988,-5.9988,-5.9988,-5.9988,-5.9988,-5.9988,-5.9988,-5.9988,-5.9947,-5.9864,-5.9492,-5.9264,-5.9202,-5.9202,-5.9388,-5.9781,-5.9843,-6.0113,-6.0568,-6.0133,-5.9678,-5.916,-5.7442,-5.6035,-5.5103,-5.411,-5.3385,-5.3013,-5.2868,-5.2868,-5.2971,-5.2888,-5.2785,-5.2785,-5.2743,-5.2847,-5.3157,-5.3654,-5.4461,-5.5621,-5.6718,-5.6531,-5.4751,-5.5434,-5.618,-5.6614,-5.7111,-5.7484,-5.7649,-5.8468,-5.9229,-5.96,-6.1276,-6.2771,-6.428,-6.6034,-6.7752,-6.9761,-7.0747,-7.1784,-7.3058,-7.3497,-7.3935,-7.4229,-7.4523,-7.4204,-7.3397,-7.1468,-6.9353,-6.7487,-6.6293,-6.5088,-6.3485,-6.2232,-6.1612,-6.099,-6.0386,-5.9988,-5.9988,-5.9988,-6.003,-6.0302,-6.0532,-6.0929,-6.1346,-6.2123,-6.3005,-6.3816,-6.4668,-6.5854,-6.7531,-6.8643,-7.0354,-6.2907,-6.27,-6.2679,-6.2679,-6.2679,-6.2679,-6.2679,-6.2638,-6.2245,-6.1831,-6.1375,-6.0899,-6.0568,-6.034,-6.0092,-5.9988,-5.9988,-5.9988,-5.9988,-6.0009,-6.0257,-6.0361,-6.0382,-6.0609,-6.0734,-6.0713,-6.0485,-6.0361,-6.0361,-6.0113,-5.9988,-5.9988,-5.9781,-5.9678,-5.9678,-5.9678,-5.9781,-5.9988,-5.9988,-6.0216,-6.0651,-6.0237,-5.9885,-5.9678,-5.8353,-5.7235,-5.6324,-5.5662,-5.5103,-5.4648,-5.4648,-5.4751,-5.5,-5.502,-5.5124,-5.5352,-5.5372,-5.5476,-5.5662,-5.6117,-5.6863,-5.796,-5.8664,-5.8808,-5.8229,-5.8084,-5.8125,-5.8353,-5.8995,-5.9409,-5.9429,-6.0032,-6.0511,-6.0929,-6.1726,-6.2797,-6.3859,-6.5018,-6.6549,-6.8393,-6.9608,-7.0931,-7.2614,-7.3454,-7.4192,-7.4809,-7.4905,-7.4655,-7.4068,-7.2618,-7.0588,-6.8527,-6.6877,-6.511,-6.3689,-6.2438,-6.1405,-6.099,-6.0386,-5.9988,-5.9988,-5.9988,-5.9988,-5.9988,-6.0198,-6.0386,-6.0782,-6.1369,-6.2062,-6.2818,-6.3559,-6.4866,-6.6135,-6.7985,-7.0531,-6.3176,-6.2845,-6.2721,-6.2679,-6.2679,-6.2679,-6.2679,-6.2679,-6.2679,-6.2493,-6.21,-6.1334,-6.092,-6.0796,-6.0464,-6.0299,-6.0299,-6.0299,-6.0299,-6.034,-6.0671,-6.0837,-6.0858,-6.1189,-6.1355,-6.1313,-6.0982,-6.0775,-6.0651,-6.032,-6.0092,-6.0009,-5.9988,-5.9988,-5.9988,-5.9988,-5.9988,-5.9988,-5.9988,-6.0216,-6.0651,-6.034,-6.0154,-6.0092,-5.9243,-5.8415,-5.7711,-5.7256,-5.6863,-5.6531,-5.649,-5.6656,-5.7008,-5.7132,-5.7339,-5.7649,-5.7691,-5.7732,-5.7856,-5.8167,-5.8788,-5.9678,-6.0092,-6.0444,-6.0713,-6.0278,-5.9864,-5.9864,-6.0382,-6.0775,-6.0796,-6.1065,-6.1548,-6.1975,-6.208,-6.2527,-6.3377,-6.4331,-6.5448,-6.6886,-6.8535,-7.0149,-7.1672,-7.3199,-7.4367,-7.5037,-7.5284,-7.5256,-7.4787,-7.375,-7.2027,-7.0007,-6.767,-6.5717,-6.4025,-6.2502,-6.1426,-6.0782,-6.0386,-5.9988,-5.9988,-5.9988,-5.9988,-5.9988,-5.9988,-6.0198,-6.0615,-6.0845,-6.1286,-6.1747,-6.2399,-6.3473,-6.5299,-6.7752,-7.0397,-6.3342,-6.3238,-6.2866,-6.2679,-6.2679,-6.2679,-6.2679,-6.2679,-6.2679,-6.2659,-6.2534,-6.212,-6.1665,-6.1313,-6.121,-6.1168,-6.1168,-6.121,-6.1189,-6.1189,-6.1272,-6.1292,-6.1292,-6.1334,-6.1355,-6.1375,-6.1313,-6.1106,-6.0775,-6.0651,-6.0402,-6.003,-5.9988,-5.9988,-5.9988,-5.9988,-5.9988,-5.9988,-5.9988,-6.0216,-6.0651,-6.0651,-6.063,-6.0609,-5.9719,-5.9202,-5.9078,-5.8664,-5.8415,-5.8353,-5.8353,-5.8374,-5.8457,-5.8808,-5.9057,-5.9098,-5.9098,-5.9285,-5.9678,-5.9761,-6.0175,-6.1044,-6.1148,-6.123,-6.1313,-6.1582,-6.1582,-6.1272,-6.123,-6.1313,-6.1292,-6.1355,-6.1437,-6.1479,-6.1963,-6.2192,-6.3075,-6.4252,-6.5775,-6.6818,-6.8204,-7.001,-7.1429,-7.245,-7.3534,-7.5037,-7.5559,-7.5879,-7.5656,-7.4491,-7.3353,-7.209,-6.9645,-6.6846,-6.5286,-6.3315,-6.1697,-6.1011,-6.0386,-5.9988,-5.9988,-5.9988,-5.9988,-5.9988,-5.9988,-5.9988,-5.9988,-6.005,-6.0281,-6.0553,-6.1222,-6.199,-6.4389,-6.6746,-6.9263,-6.3859,-6.3362,-6.3176,-6.2928,-6.27,-6.2679,-6.2679,-6.2679,-6.2679,-6.2679,-6.2659,-6.2493,-6.2162,-6.1748,-6.1458,-6.1355,-6.1355,-6.1355,-6.1355,-6.1375,-6.1624,-6.1748,-6.1769,-6.2017,-6.2141,-6.21,-6.1872,-6.1644,-6.1417,-6.0941,-6.0589,-6.0382,-6.0133,-5.9988,-5.9988,-5.9988,-5.9988,-5.9988,-5.9988,-6.0216,-6.063,-6.0692,-6.0796,-6.0982,-6.0444,-6.0113,-6.0113,-5.9926,-5.9843,-5.9843,-6.0092,-6.0237,-6.0216,-6.0402,-6.0506,-6.0506,-6.0506,-6.0589,-6.0775,-6.0796,-6.1065,-6.1706,-6.1748,-6.1851,-6.212,-6.2307,-6.2327,-6.2183,-6.212,-6.2141,-6.212,-6.2141,-6.2141,-6.2162,-6.2307,-6.241,-6.2845,-6.3665,-6.4637,-6.5477,-6.6951,-6.8453,-6.9918,-7.1571,-7.3024,-7.4236,-7.5061,-7.546,-7.5633,-7.4863,-7.4142,-7.3419,-7.0804,-6.812,-6.5987,-6.4055,-6.2325,-6.1095,-6.0386,-5.9988,-5.9988,-5.9988,-5.9988,-5.9988,-5.9988,-5.9988,-5.9988,-5.9988,-5.9988,-6.0198,-6.1198,-6.2416,-6.4458,-6.6321,-6.8539,-6.4356,-6.3756,-6.3487,-6.3114,-6.2679,-6.2679,-6.2679,-6.2679,-6.2679,-6.2679,-6.2679,-6.2679,-6.2514,-6.2203,-6.1851,-6.1706,-6.1706,-6.1706,-6.1706,-6.1748,-6.2058,-6.2203,-6.2245,-6.2514,-6.2679,-6.2638,-6.2369,-6.2162,-6.1955,-6.1272,-6.0796,-6.0651,-6.034,-6.0113,-6.0009,-5.9988,-5.9988,-5.9988,-5.9988,-6.0216,-6.063,-6.0796,-6.1023,-6.1272,-6.1044,-6.0858,-6.0858,-6.0858,-6.0858,-6.0878,-6.1168,-6.1355,-6.1355,-6.1458,-6.1541,-6.1541,-6.1541,-6.1541,-6.1541,-6.152,-6.1727,-6.2141,-6.2224,-6.2348,-6.2617,-6.2679,-6.2679,-6.2659,-6.2679,-6.2659,-6.2679,-6.2679,-6.2679,-6.2679,-6.2679,-6.2679,-6.2679,-6.3137,-6.3791,-6.4204,-6.5692,-6.6973,-6.8453,-7.0747,-7.2594,-7.3227,-7.4059,-7.4862,-7.4862,-7.4637,-7.4236,-7.4236,-7.1828,-6.9199,-6.6667,-6.4643,-6.2955,-6.1596,-6.0595,-6.0177,-5.9988,-5.9988,-5.9988,-5.9988,-5.9988,-5.9988,-5.9988,-5.9988,-5.9988,-6.0198,-6.099,-6.2416,-6.3645,-6.5492,-6.7654,-6.4708,-6.4522,-6.3714,-6.3114,-6.27,-6.2679,-6.2679,-6.2679,-6.2679,-6.2679,-6.2679,-6.2679,-6.2659,-6.2617,-6.2555,-6.2597,-6.2597,-6.2555,-6.2555,-6.2534,-6.2597,-6.2638,-6.2638,-6.2679,-6.2679,-6.2679,-6.2617,-6.241,-6.2058,-6.1562,-6.1106,-6.0713,-6.063,-6.0423,-6.005,-5.9988,-5.9988,-5.9988,-6.003,-6.0237,-6.0692,-6.1106,-6.1334,-6.1417,-6.1334,-6.1313,-6.1313,-6.1313,-6.1313,-6.1313,-6.1375,-6.1396,-6.1396,-6.1789,-6.1996,-6.2017,-6.1996,-6.1996,-6.1996,-6.1996,-6.2183,-6.2555,-6.2597,-6.2659,-6.2679,-6.2679,-6.2679,-6.2679,-6.2721,-6.2741,-6.2741,-6.27,-6.2679,-6.2679,-6.2679,-6.2679,-6.2679,-6.3137,-6.3573,-6.3791,-6.4637,-6.5906,-6.7632,-6.9918,-7.116,-7.1981,-7.3024,-7.3833,-7.4236,-7.4035,-7.3632,-7.343,-7.209,-7.0373,-6.8169,-6.58,-6.3663,-6.199,-6.1011,-6.0595,-6.0198,-5.9988,-5.9988,-5.9988,-5.9988,-5.9988,-5.9988,-5.9988,-5.9988,-6.0198,-6.0595,-6.1591,-6.2827,-6.4473,-6.6508,-6.4998,-6.4646,-6.3756,-6.328,-6.3114,-6.2824,-6.2679,-6.2679,-6.2679,-6.2679,-6.2679,-6.2679,-6.2679,-6.2679,-6.2679,-6.2679,-6.2679,-6.2679,-6.2679,-6.2679,-6.2679,-6.2679,-6.2679,-6.2679,-6.2679,-6.2679,-6.2679,-6.2597,-6.2431,-6.1996,-6.1562,-6.1106,-6.0816,-6.0444,-6.0071,-5.9988,-5.9988,-6.003,-6.0278,-6.0651,-6.1085,-6.1541,-6.1913,-6.2162,-6.1913,-6.1789,-6.1789,-6.1789,-6.1789,-6.1789,-6.2038,-6.2203,-6.2224,-6.2348,-6.2452,-6.2452,-6.2452,-6.2452,-6.2452,-6.2452,-6.2493,-6.2638,-6.2679,-6.27,-6.2679,-6.2679,-6.2679,-6.2741,-6.299,-6.3114,-6.3073,-6.2866,-6.2679,-6.2679,-6.2679,-6.27,-6.2679,-6.2919,-6.3137,-6.3116,-6.3987,-6.5047,-6.6399,-6.7821,-6.9292,-6.9918,-7.116,-7.239,-7.3227,-7.3227,-7.3227,-7.3227,-7.2594,-7.1153,-6.945,-6.6822,-6.4449,-6.2783,-6.1633,-6.099,-6.0595,-6.0198,-6.0198,-6.0071,-6.005,-5.9988,-5.9988,-5.9988,-5.9988,-5.9988,-6.0386,-6.1011,-6.221,-6.4033,-6.6144,-6.5143,-6.4667,-6.4066,-6.3714,-6.3549,-6.3093,-6.2907,-6.2886,-6.2741,-6.2679,-6.2679,-6.2679,-6.2679,-6.2679,-6.2679,-6.2679,-6.2679,-6.2679,-6.2679,-6.2679,-6.2679,-6.2679,-6.2679,-6.2679,-6.2679,-6.2679,-6.2679,-6.2679,-6.2659,-6.239,-6.1996,-6.1562,-6.1127,-6.0671,-6.0278,-6.0071,-5.9988,-6.0071,-6.0444,-6.0878,-6.1334,-6.181,-6.2245,-6.2576,-6.239,-6.2245,-6.2245,-6.2245,-6.2245,-6.2286,-6.2534,-6.2679,-6.2679,-6.2679,-6.2679,-6.2679,-6.2679,-6.2762,-6.2886,-6.2907,-6.2969,-6.3114,-6.3135,-6.3073,-6.2948,-6.3031,-6.3052,-6.3052,-6.3321,-6.359,-6.3549,-6.3321,-6.3073,-6.2948,-6.2907,-6.2845,-6.27,-6.2679,-6.2762,-6.3127,-6.3804,-6.4501,-6.526,-6.6684,-6.7687,-6.8279,-6.9639,-7.0954,-7.2005,-7.2414,-7.2821,-7.3024,-7.2438,-7.1153,-6.9659,-6.7575,-6.5587,-6.3707,-6.2339,-6.1676,-6.1095,-6.0657,-6.0302,-6.0154,-6.0133,-6.005,-6.0009,-6.0009,-5.9988,-6.0009,-6.0218,-6.0845,-6.2182,-6.3717,-6.5817,-6.5163,-6.477,-6.4729,-6.4418,-6.4025,-6.3569,-6.3362,-6.3259,-6.2886,-6.2741,-6.27,-6.2679,-6.2679,-6.2679,-6.2679,-6.2679,-6.2679,-6.2679,-6.2679,-6.2679,-6.2679,-6.2679,-6.2679,-6.2679,-6.2679,-6.2679,-6.2679,-6.2679,-6.2679,-6.2617,-6.239,-6.1996,-6.1562,-6.1127,-6.0692,-6.034,-6.0092,-6.0216,-6.0589,-6.0982,-6.1355,-6.1851,-6.2286,-6.2638,-6.2638,-6.2638,-6.2638,-6.2638,-6.2617,-6.2638,-6.2659,-6.2679,-6.2679,-6.2679,-6.2679,-6.2741,-6.2721,-6.2928,-6.33,-6.3362,-6.3569,-6.3818,-6.3983,-6.3756,-6.3487,-6.3714,-6.3776,-6.3528,-6.3776,-6.4066,-6.4066,-6.4066,-6.3859,-6.3445,-6.3321,-6.3135,-6.2845,-6.2721,-6.2866,-6.3218,-6.3783,-6.4455,-6.4907,-6.5838,-6.6863,-6.757,-6.8581,-6.9987,-7.1,-7.1595,-7.2209,-7.2414,-7.2005,-7.1019,-6.9868,-6.8514,-6.6683,-6.4863,-6.3717,-6.2816,-6.191,-6.1327,-6.1055,-6.0907,-6.0506,-6.0423,-6.0216,-6.0195,-6.0071,-6.0071,-6.0281,-6.0594,-6.1999,-6.3473,-6.525,-6.5329,-6.5163,-6.4853,-6.4646,-6.446,-6.4046,-6.3673,-6.3383,-6.3197,-6.299,-6.2721,-6.2679,-6.2679,-6.2679,-6.2679,-6.2679,-6.2679,-6.2679,-6.2679,-6.2679,-6.2679,-6.2679,-6.2679,-6.2679,-6.2679,-6.2679,-6.2679,-6.2679,-6.2679,-6.2679,-6.2472,-6.2079,-6.1893,-6.1582,-6.1168,-6.1003,-6.092,-6.0982,-6.1375,-6.1706,-6.1851,-6.2245,-6.2534,-6.2659,-6.2679,-6.2679,-6.2679,-6.2679,-6.2679,-6.27,-6.2679,-6.2679,-6.2679,-6.2679,-6.2824,-6.3114,-6.3155,-6.3362,-6.3756,-6.3839,-6.3901,-6.4046,-6.4087,-6.4004,-6.388,-6.3983,-6.4025,-6.3901,-6.4253,-6.4522,-6.4563,-6.4811,-6.4625,-6.3921,-6.3569,-6.3362,-6.3218,-6.3155,-6.3218,-6.3362,-6.3874,-6.4124,-6.445,-6.5213,-6.5945,-6.6538,-6.7592,-6.8671,-6.9848,-7.0587,-7.1,-7.1413,-7.1183,-7.0954,-7.0101,-6.9249,-6.8009,-6.6225,-6.507,-6.3826,-6.3063,-6.2062,-6.1769,-6.1261,-6.107,-6.0775,-6.0568,-6.0444,-6.0361,-6.0278,-6.0551,-6.0907,-6.1727,-6.3225,-6.505,-6.5412,-6.537,-6.5101,-6.4977,-6.4936,-6.4501,-6.4149,-6.3839,-6.3507,-6.3197,-6.2948,-6.2762,-6.2679,-6.2679,-6.2679,-6.2679,-6.2679,-6.2679,-6.2679,-6.2679,-6.2679,-6.2679,-6.2679,-6.2679,-6.2679,-6.2679,-6.2679,-6.2679,-6.2679,-6.2679,-6.2534,-6.2307,-6.212,-6.1913,-6.1603,-6.1417,-6.1355,-6.1417,-6.1789,-6.2038,-6.212,-6.2452,-6.2679,-6.27,-6.2845,-6.2928,-6.2948,-6.3093,-6.3114,-6.3011,-6.3093,-6.3197,-6.3197,-6.3218,-6.3342,-6.3549,-6.3652,-6.3818,-6.4232,-6.4315,-6.4397,-6.4522,-6.4563,-6.448,-6.4397,-6.4418,-6.4522,-6.4397,-6.4708,-6.4977,-6.5018,-6.5205,-6.5122,-6.4646,-6.417,-6.3818,-6.3694,-6.3632,-6.3735,-6.3901,-6.4149,-6.4356,-6.4726,-6.4826,-6.5349,-6.6116,-6.6864,-6.7896,-6.9004,-6.9871,-7.0449,-7.0817,-7.0794,-7.077,-7.0356,-6.994,-6.9318,-6.7824,-6.6521,-6.5358,-6.4186,-6.2886,-6.2296,-6.1637,-6.1272,-6.1251,-6.1085,-6.0961,-6.0878,-6.0775,-6.0692,-6.1407,-6.2125,-6.3016,-6.4763,-6.5412,-6.5412,-6.5412,-6.5391,-6.5329,-6.4936,-6.4708,-6.4542,-6.388,-6.3487,-6.3342,-6.3052,-6.2845,-6.2804,-6.2907,-6.2907,-6.2783,-6.2866,-6.2907,-6.2886,-6.2866,-6.2845,-6.27,-6.2679,-6.2679,-6.2679,-6.2679,-6.2679,-6.2679,-6.2679,-6.2679,-6.2597,-6.2286,-6.21,-6.2017,-6.1644,-6.152,-6.1624,-6.1913,-6.212,-6.2141,-6.2472,-6.2721,-6.2762,-6.3114,-6.3342,-6.3466,-6.3797,-6.3839,-6.3528,-6.3756,-6.3921,-6.4025,-6.4046,-6.3983,-6.4066,-6.4108,-6.4418,-6.4708,-6.4977,-6.5122,-6.5453,-6.5474,-6.5329,-6.5081,-6.5308,-6.537,-6.506,-6.5329,-6.5515,-6.5495,-6.5495,-6.5453,-6.535,-6.4832,-6.4439,-6.4108,-6.4066,-6.4232,-6.4542,-6.4749,-6.4894,-6.5225,-6.543,-6.5693,-6.6314,-6.6663,-6.7819,-6.8605,-6.9442,-6.994,-7.0334,-7.0473,-7.038,-7.0218,-7.0125,-6.9733,-6.8903,-6.7684,-6.6671,-6.5426,-6.4098,-6.2825,-6.2331,-6.1943,-6.1686,-6.1582,-6.1458,-6.1506,-6.1361,-6.1486,-6.2012,-6.265,-6.3697,-6.4766,-6.5412,-6.5412,-6.5412,-6.5412,-6.5391,-6.5267,-6.5039,-6.4729,-6.448,-6.4128,-6.3901,-6.3776,-6.3652,-6.3694,-6.3673,-6.3694,-6.3652,-6.3652,-6.3694,-6.3714,-6.3694,-6.328,-6.2804,-6.2679,-6.27,-6.27,-6.27,-6.2679,-6.2679,-6.2721,-6.2721,-6.2679,-6.2597,-6.2514,-6.2472,-6.2348,-6.2327,-6.2327,-6.2431,-6.2514,-6.2534,-6.2638,-6.2866,-6.3176,-6.3321,-6.359,-6.388,-6.4315,-6.4335,-6.3942,-6.3983,-6.4066,-6.4149,-6.4149,-6.4315,-6.4625,-6.4915,-6.5246,-6.5681,-6.6012,-6.6281,-6.6405,-6.6343,-6.6385,-6.6281,-6.6343,-6.6364,-6.6281,-6.6385,-6.626,-6.6012,-6.5929,-6.5805,-6.5432,-6.5122,-6.4667,-6.4315,-6.4356,-6.4604,-6.4729,-6.5039,-6.5246,-6.5329,-6.5536,-6.5534,-6.5939,-6.6515,-6.7298,-6.83,-6.8941,-6.9525,-6.9783,-7.0041,-7.0047,-7.0029,-7.0149,-6.9941,-6.9455,-6.8877,-6.8391,-6.6808,-6.5279,-6.4059,-6.33,-6.27,-6.2616,-6.2233,-6.2067,-6.2116,-6.2205,-6.278,-6.3247,-6.3782,-6.4574,-6.5431,-6.5412,-6.5412,-6.5412,-6.5412,-6.5412,-6.5412,-6.5267,-6.5018,-6.4791,-6.4584,-6.4335,-6.4128,-6.4066,-6.4066,-6.4066,-6.4066,-6.4066,-6.4066,-6.4046,-6.4046,-6.4025,-6.3735,-6.3321,-6.3114,-6.2969,-6.2928,-6.2783,-6.2804,-6.2948,-6.2969,-6.3073,-6.3218,-6.3073,-6.2969,-6.2948,-6.2762,-6.2679,-6.27,-6.2845,-6.2969,-6.2969,-6.3176,-6.3383,-6.3673,-6.3839,-6.4211,-6.4853,-6.537,-6.5225,-6.4604,-6.4522,-6.4729,-6.4915,-6.4915,-6.5122,-6.5577,-6.5867,-6.6136,-6.6364,-6.6674,-6.6778,-6.6799,-6.6799,-6.6799,-6.6757,-6.6799,-6.6799,-6.6757,-6.6799,-6.6654,-6.6467,-6.6405,-6.6281,-6.6074,-6.5764,-6.5412,-6.4977,-6.4998,-6.5122,-6.5267,-6.537,-6.5412,-6.5412,-6.5412,-6.5515,-6.5761,-6.6185,-6.7045,-6.7691,-6.8414,-6.9128,-6.9753,-7.0261,-7.0437,-7.0795,-7.0914,-7.1004,-7.0496,-7.0033,-6.9616,-6.8099,-6.6399,-6.5262,-6.4161,-6.3749,-6.351,-6.3517,-6.3585,-6.3522,-6.3695,-6.4188,-6.466,-6.5431,-6.6093,-6.6738,-6.5474,-6.5412,-6.5412,-6.5412,-6.5412,-6.5412,-6.5391,-6.5329,-6.5018,-6.4832,-6.4729,-6.4397,-6.4335,-6.419,-6.4377,-6.4253,-6.4253,-6.4335,-6.4294,-6.4315,-6.4315,-6.4232,-6.417,-6.3652,-6.3466,-6.3404,-6.3011,-6.3135,-6.3362,-6.3445,-6.3652,-6.3776,-6.359,-6.3466,-6.3404,-6.3093,-6.2866,-6.299,-6.328,-6.3445,-6.3487,-6.3756,-6.4004,-6.4335,-6.4832,-6.5329,-6.5971,-6.6405,-6.6178,-6.5018,-6.535,-6.5722,-6.6095,-6.6136,-6.6302,-6.6592,-6.6695,-6.6819,-6.6881,-6.6964,-6.7006,-6.7047,-6.7047,-6.6944,-6.7047,-6.7109,-6.7109,-6.7109,-6.6964,-6.6985,-6.6881,-6.684,-6.6716,-6.6633,-6.6674,-6.6571,-6.6281,-6.5846,-6.5702,-6.6012,-6.5702,-6.5536,-6.5432,-6.5412,-6.5619,-6.5722,-6.6213,-6.6761,-6.7461,-6.7996,-6.8964,-7.0159,-7.0603,-7.097,-7.1564,-7.1915,-7.1979,-7.1949,-7.1258,-7.0589,-6.9078,-6.7531,-6.6164,-6.5262,-6.5455,-6.5327,-6.5413,-6.5327,-6.552,-6.5887,-6.6855,-6.7003,-6.7363,-6.8167,-6.8913,-6.5743,-6.5412,-6.5412,-6.5412,-6.5412,-6.5412,-6.5412,-6.5412,-6.5308,-6.5225,-6.5246,-6.5143,-6.5081,-6.5081,-6.5039,-6.5122,-6.5039,-6.5039,-6.5122,-6.5122,-6.5122,-6.5122,-6.4936,-6.4315,-6.3942,-6.388,-6.3839,-6.3818,-6.3901,-6.3921,-6.3963,-6.4046,-6.4046,-6.3901,-6.388,-6.3756,-6.3756,-6.3776,-6.388,-6.3942,-6.3983,-6.4149,-6.4542,-6.5101,-6.5888,-6.6364,-6.6571,-6.6757,-6.6654,-6.6467,-6.6447,-6.6571,-6.6633,-6.6654,-6.6737,-6.6923,-6.7192,-6.7337,-6.7399,-6.7627,-6.7854,-6.7792,-6.7772,-6.7875,-6.7896,-6.7834,-6.7854,-6.7875,-6.7875,-6.7668,-6.7378,-6.7006,-6.6923,-6.6923,-6.6902,-6.6964,-6.7047,-6.6757,-6.6385,-6.6198,-6.6033,-6.5826,-6.5495,-6.5432,-6.5412,-6.5619,-6.6033,-6.6628,-6.6973,-6.7518,-6.8744,-7.0151,-7.108,-7.1475,-7.2665,-7.3199,-7.3418,-7.3385,-7.2877,-7.2393,-7.0867,-6.9681,-6.8792,-6.7978,-6.7353,-6.7319,-6.7674,-6.7954,-6.8359,-6.8864,-6.9302,-6.9806,-7.0282,-7.0797,-7.1099,-6.5971,-6.5722,-6.5495,-6.5412,-6.5412,-6.5412,-6.5412,-6.5412,-6.5412,-6.5412,-6.5412,-6.5412,-6.5412,-6.5412,-6.5412,-6.5412,-6.5412,-6.5412,-6.5412,-6.5391,-6.5391,-6.5412,-6.537,-6.4977,-6.4625,-6.4397,-6.4128,-6.417,-6.4315,-6.4397,-6.4501,-6.4646,-6.4501,-6.4377,-6.4315,-6.4232,-6.4046,-6.4149,-6.4501,-6.4708,-6.4729,-6.5163,-6.5474,-6.6053,-6.6737,-6.713,-6.713,-6.7358,-6.744,-6.744,-6.744,-6.7316,-6.7151,-6.713,-6.7213,-6.7461,-6.7627,-6.7813,-6.7916,-6.802,-6.8165,-6.8206,-6.8186,-6.8186,-6.8186,-6.8186,-6.8186,-6.8186,-6.8144,-6.8041,-6.7834,-6.7647,-6.7461,-6.744,-6.744,-6.7565,-6.7647,-6.7233,-6.684,-6.6633,-6.6385,-6.6074,-6.5805,-6.566,-6.5495,-6.5723,-6.5702,-6.6075,-6.6692,-6.7284,-6.8426,-6.9893,-7.1122,-7.2197,-7.3582,-7.4488,-7.5091,-7.4896,-7.4618,-7.4594,-7.3927,-7.2932,-7.1912,-7.1146,-7.0216,-7.0213,-7.0534,-7.098,-7.1214,-7.1564,-7.1892,-7.2641,-7.3037,-7.3218,-7.3538,-6.6219,-6.6178,-6.5722,-6.5557,-6.5619,-6.566,-6.5702,-6.566,-6.5619,-6.5681,-6.5536,-6.5515,-6.5557,-6.5432,-6.5412,-6.5412,-6.5412,-6.5412,-6.5412,-6.5412,-6.5412,-6.5412,-6.5391,-6.5308,-6.5122,-6.4811,-6.4542,-6.4563,-6.477,-6.4853,-6.4977,-6.5267,-6.5143,-6.5018,-6.4874,-6.4729,-6.4708,-6.4874,-6.535,-6.5639,-6.5681,-6.6281,-6.6633,-6.6902,-6.7316,-6.7585,-6.7668,-6.7875,-6.8123,-6.8186,-6.8186,-6.7979,-6.773,-6.7709,-6.7834,-6.8248,-6.8351,-6.8434,-6.8455,-6.8455,-6.8455,-6.8372,-6.8413,-6.8351,-6.8351,-6.833,-6.8289,-6.8206,-6.8186,-6.8186,-6.8165,-6.8061,-6.8082,-6.8103,-6.8144,-6.8186,-6.8041,-6.744,-6.7316,-6.7233,-6.6902,-6.655,-6.624,-6.6033,-6.5805,-6.5619,-6.5598,-6.5827,-6.6242,-6.7109,-6.8302,-6.976,-7.1174,-7.343,-7.5044,-7.5733,-7.6329,-7.6461,-7.6387,-7.6387,-7.6436,-7.5893,-7.492,-7.3777,-7.3104,-7.3246,-7.3341,-7.3622,-7.3855,-7.4064,-7.4464,-7.4961,-7.5258,-7.5638,-7.5977,-6.6695,-6.6654,-6.6198,-6.6198,-6.653,-6.655,-6.6509,-6.6571,-6.6488,-6.6343,-6.6012,-6.5971,-6.5743,-6.5515,-6.5412,-6.5412,-6.5412,-6.5412,-6.5412,-6.5412,-6.5412,-6.5412,-6.5412,-6.5412,-6.535,-6.5329,-6.5163,-6.5205,-6.5225,-6.5308,-6.537,-6.5474,-6.5722,-6.5826,-6.5929,-6.6116,-6.6074,-6.5991,-6.6343,-6.6488,-6.6654,-6.6881,-6.7213,-6.7502,-6.7896,-6.802,-6.8061,-6.8123,-6.8186,-6.8186,-6.8186,-6.8123,-6.8123,-6.8351,-6.86,-6.8703,-6.8993,-6.9096,-6.9117,-6.92,-6.9262,-6.9283,-6.9179,-6.9014,-6.8827,-6.8703,-6.8579,-6.831,-6.8227,-6.8206,-6.8186,-6.8186,-6.8186,-6.8186,-6.8186,-6.8186,-6.8123,-6.7979,-6.7709,-6.7585,-6.7316,-6.7068,-6.6737,-6.6488,-6.6302,-6.6219,-6.6219,-6.6471,-6.6932,-6.7495,-6.8507,-7.0113,-7.1664,-7.4095,-7.6696,-7.6933,-7.7391,-7.7596,-7.7777,-7.7777,-7.7926,-7.8506,-7.8019,-7.6235,-7.5553,-7.576,-7.5857,-7.6028,-7.6199,-7.6296,-7.6724,-7.7129,-7.7116,-7.7284,-7.7391,-6.7151,-6.7109,-6.6654,-6.6592,-6.6778,-6.6799,-6.6799,-6.6799,-6.6799,-6.6674,-6.6447,-6.6219,-6.5991,-6.5764,-6.5495,-6.5412,-6.5412,-6.5412,-6.5412,-6.5412,-6.5412,-6.5412,-6.5453,-6.5453,-6.5412,-6.5495,-6.5619,-6.5639,-6.5474,-6.5681,-6.5743,-6.5888,-6.624,-6.6467,-6.6488,-6.6612,-6.6819,-6.684,-6.7026,-6.7275,-6.7565,-6.7854,-6.831,-6.8475,-6.8455,-6.8517,-6.8475,-6.8248,-6.8186,-6.8186,-6.8186,-6.8186,-6.8351,-6.8744,-6.9076,-6.8972,-6.9283,-6.951,-6.949,-6.949,-6.9469,-6.9469,-6.951,-6.9407,-6.9241,-6.9138,-6.8951,-6.8662,-6.8496,-6.8413,-6.8206,-6.8186,-6.8186,-6.8186,-6.8186,-6.8186,-6.8186,-6.8186,-6.8041,-6.7813,-6.7544,-6.7337,-6.7192,-6.6985,-6.684,-6.6799,-6.684,-6.7094,-6.7369,-6.7834,-6.8522,-7.0285,-7.1805,-7.4113,-7.654,-7.7251,-7.7812,-7.8431,-7.8662,-7.8662,-7.8942,-7.9218,-7.8987,-7.825,-7.787,-7.749,-7.7895,-7.7886,-7.8317,-7.8441,-7.8391,-7.8367,-7.8624,-7.8756,-7.8812,-6.7544,-6.7585,-6.713,-6.6985,-6.7068,-6.7088,-6.7088,-6.7068,-6.7109,-6.7047,-6.6881,-6.6488,-6.6219,-6.6012,-6.566,-6.5412,-6.5432,-6.5495,-6.5598,-6.5639,-6.5743,-6.5743,-6.5722,-6.5702,-6.5784,-6.5909,-6.6053,-6.5991,-6.5764,-6.6033,-6.6219,-6.6364,-6.6716,-6.6944,-6.6964,-6.713,-6.7047,-6.7192,-6.742,-6.7854,-6.8393,-6.9034,-6.949,-6.9448,-6.9076,-6.8807,-6.8744,-6.8393,-6.8206,-6.8186,-6.8186,-6.8186,-6.833,-6.9014,-6.9303,-6.9117,-6.9469,-6.9717,-6.98,-6.9821,-6.9904,-6.9924,-6.9821,-6.9738,-6.9572,-6.949,-6.9324,-6.9055,-6.8827,-6.8703,-6.8413,-6.8248,-6.8186,-6.8186,-6.8186,-6.8186,-6.8186,-6.8186,-6.8186,-6.7979,-6.7772,-6.7689,-6.7627,-6.7565,-6.742,-6.7399,-6.742,-6.7399,-6.7613,-6.7811,-6.8718,-7.0475,-7.2188,-7.4199,-7.5881,-7.6914,-7.7534,-7.8317,-7.8756,-7.8756,-7.9037,-7.9369,-7.9087,-7.9037,-7.8987,-7.8681,-7.9344,-7.9394,-7.9162,-7.8931,-7.9369,-7.9369,-7.9137,-7.9263,-7.9495,-6.773,-6.8061,-6.7606,-6.7647,-6.7958,-6.7979,-6.7999,-6.7979,-6.7937,-6.7772,-6.7378,-6.6902,-6.6467,-6.6033,-6.5619,-6.5432,-6.5557,-6.5784,-6.5971,-6.6053,-6.6343,-6.6488,-6.6571,-6.6633,-6.6488,-6.6467,-6.6633,-6.6447,-6.6281,-6.655,-6.6716,-6.6819,-6.7151,-6.7399,-6.744,-6.7668,-6.802,-6.7999,-6.8061,-6.8351,-6.8807,-6.9324,-6.9552,-6.9469,-6.92,-6.8931,-6.8889,-6.8517,-6.8248,-6.8186,-6.8186,-6.8186,-6.833,-6.9014,-6.9386,-6.9676,-7.0131,-7.0711,-7.0607,-7.0545,-7.0545,-7.0525,-7.0587,-7.0463,-7.0173,-6.98,-6.9593,-6.9448,-6.9138,-6.8848,-6.8682,-6.8413,-6.8268,-6.8186,-6.8186,-6.8186,-6.8186,-6.8372,-6.8351,-6.8372,-6.8227,-6.8206,-6.8165,-6.8103,-6.8041,-6.802,-6.7999,-6.7937,-6.807,-6.825,-6.8615,-7.0391,-7.1762,-7.3809,-7.5279,-7.6287,-7.7442,-7.8347,-7.8789,-7.9205,-7.9538,-7.9821,-7.9595,-7.957,-7.9545,-7.952,-7.957,-7.9545,-7.9444,-7.9394,-7.9394,-7.9394,-7.9394,-7.9595,-7.9846,-6.7265,-6.8165,-6.7979,-6.7999,-6.8165,-6.8186,-6.8186,-6.8186,-6.8186,-6.8061,-6.7751,-6.7088,-6.6405,-6.5784,-6.5474,-6.5577,-6.5805,-6.6053,-6.6281,-6.6488,-6.6737,-6.684,-6.6778,-6.6799,-6.6799,-6.6923,-6.7026,-6.713,-6.7006,-6.7047,-6.7192,-6.7254,-6.7627,-6.7875,-6.7834,-6.8082,-6.8144,-6.831,-6.8662,-6.9158,-6.9593,-7.0007,-7.0256,-7.0235,-6.98,-6.9469,-6.9158,-6.8807,-6.8434,-6.8268,-6.8186,-6.8186,-6.8393,-6.8951,-6.949,-6.9593,-7.0359,-7.0814,-7.0856,-7.0877,-7.0877,-7.0877,-7.0877,-7.0752,-7.0545,-7.038,-7.009,-6.9883,-6.9738,-6.9407,-6.8993,-6.8682,-6.8434,-6.8289,-6.8268,-6.8227,-6.831,-6.8517,-6.862,-6.8662,-6.8724,-6.8724,-6.8641,-6.8434,-6.831,-6.8206,-6.8144,-6.8082,-6.8299,-6.8432,-6.925,-7.0279,-7.1664,-7.3021,-7.4527,-7.5803,-7.7078,-7.8265,-7.9349,-7.977,-8.0214,-8.0373,-8.0147,-8.0047,-8.0097,-8.0022,-7.9871,-7.9595,-7.9419,-7.9394,-7.9394,-7.9495,-7.962,-7.9871,-8.0122,-6.6711,-6.7688,-6.7927,-6.7927,-6.7927,-6.8186,-6.8186,-6.8186,-6.8186,-6.8123,-6.7772,-6.7026,-6.6157,-6.5619,-6.5577,-6.5805,-6.6095,-6.6343,-6.6633,-6.6902,-6.7088,-6.7192,-6.7254,-6.7213,-6.7213,-6.713,-6.7523,-6.7627,-6.7647,-6.7668,-6.7647,-6.7668,-6.7937,-6.8123,-6.8165,-6.8186,-6.8227,-6.8475,-6.9241,-6.9779,-7.0131,-7.0566,-7.0773,-7.069,-7.0421,-7.0028,-6.9676,-6.9241,-6.8807,-6.8475,-6.8393,-6.8372,-6.8351,-6.8972,-6.9448,-6.9697,-7.0359,-7.0856,-7.0877,-7.0877,-7.0877,-7.0877,-7.0877,-7.0856,-7.0835,-7.0856,-7.0794,-7.0359,-7.0152,-6.9779,-6.9345,-6.9055,-6.8682,-6.8496,-6.8413,-6.8372,-6.8413,-6.8765,-6.8993,-6.9055,-6.9138,-6.9262,-6.9117,-6.8807,-6.8579,-6.8393,-6.8289,-6.8227,-6.8444,-6.8703,-6.9182,-6.9971,-7.1057,-7.2274,-7.3674,-7.505,-7.6566,-7.8304,-7.9378,-8.018,-8.0715,-8.0876,-8.075,-8.07,-8.0675,-8.0549,-8.0424,-7.9896,-7.9394,-7.9394,-7.9444,-7.9721,-7.9921,-8.0223,-8.0549,-6.5749,-6.6451,-6.693,-6.7169,-6.7429,-6.7927,-6.8186,-6.7927,-6.8165,-6.7875,-6.7143,-6.6612,-6.5929,-6.5619,-6.5805,-6.6033,-6.6157,-6.7006,-6.7295,-6.7544,-6.7834,-6.7916,-6.7916,-6.7896,-6.7979,-6.7979,-6.802,-6.8041,-6.8123,-6.8123,-6.8144,-6.8165,-6.8206,-6.8186,-6.8227,-6.831,-6.8496,-6.8869,-6.9635,-7.0069,-7.0338,-7.0628,-7.0856,-7.0773,-7.0463,-7.0152,-7.009,-6.9676,-6.9241,-6.8827,-6.8807,-6.8662,-6.862,-6.9179,-6.9572,-6.9821,-7.038,-7.0814,-7.0877,-7.0877,-7.0877,-7.0877,-7.0877,-7.0877,-7.0877,-7.0877,-7.0814,-7.0732,-7.0463,-7.0214,-6.98,-6.9448,-6.9055,-6.8848,-6.8786,-6.8807,-6.891,-6.9221,-6.9428,-6.9448,-6.9593,-6.9779,-6.9717,-6.9428,-6.9055,-6.8848,-6.8662,-6.86,-6.8693,-6.8911,-6.9003,-6.9674,-7.048,-7.167,-7.2929,-7.4621,-7.6749,-7.8475,-7.9771,-8.0503,-8.1016,-8.1202,-8.1403,-8.1252,-8.1202,-8.1076,-8.0876,-8.0348,-7.9896,-7.9545,-7.9545,-7.9947,-8.0474,-8.0901,-8.1277,-6.4802,-6.5024,-6.5749,-6.621,-6.6691,-6.6951,-6.6951,-6.689,-6.6666,-6.6117,-6.57,-6.5565,-6.5176,-6.5201,-6.5678,-6.6281,-6.6571,-6.7171,-6.7585,-6.7875,-6.8103,-6.8186,-6.8186,-6.8186,-6.8165,-6.8186,-6.8186,-6.8372,-6.8579,-6.8537,-6.8807,-6.8786,-6.8496,-6.8434,-6.8475,-6.8641,-6.8869,-6.9283,-6.9842,-7.0276,-7.0628,-7.0732,-7.0877,-7.0835,-7.0773,-7.0421,-7.0193,-7.0028,-6.9655,-6.9365,-6.9262,-6.9096,-6.9014,-6.9552,-6.9821,-6.9924,-7.0545,-7.0814,-7.0877,-7.0877,-7.0877,-7.0877,-7.0877,-7.0877,-7.0877,-7.0877,-7.0877,-7.0794,-7.0711,-7.0504,-7.0111,-6.9862,-6.9635,-6.9365,-6.9241,-6.9241,-6.9407,-6.9697,-6.9883,-6.9924,-7.0173,-7.0442,-7.0297,-7.009,-6.9697,-6.9324,-6.9117,-6.8951,-6.9047,-6.8943,-6.9338,-6.9946,-7.0806,-7.2153,-7.3445,-7.508,-7.693,-7.8425,-7.9948,-8.0761,-8.1567,-8.2056,-8.2156,-8.1955,-8.1729,-8.1604,-8.1302,-8.0825,-8.0398,-8.0047,-8.0072,-8.0323,-8.0901,-8.1503,-8.1855,-6.4316,-6.4316,-6.4802,-6.5266,-6.597,-6.621,-6.621,-6.613,-6.5768,-6.5084,-6.4259,-6.4603,-6.4612,-6.472,-6.5612,-6.6215,-6.6648,-6.7399,-6.7834,-6.8061,-6.8165,-6.8186,-6.8186,-6.8186,-6.8186,-6.8186,-6.8227,-6.8393,-6.8786,-6.8827,-6.9158,-6.9262,-6.9014,-6.891,-6.8972,-6.92,-6.9386,-6.9738,-7.0152,-7.0483,-7.0835,-7.0877,-7.0877,-7.0877,-7.0835,-7.0711,-7.0504,-7.038,-7.0152,-6.9862,-6.9676,-6.9614,-6.9697,-6.9862,-7.0131,-7.0338,-7.0566,-7.0856,-7.0877,-7.0877,-7.0877,-7.0877,-7.0877,-7.0877,-7.0877,-7.0877,-7.0877,-7.0877,-7.0835,-7.0711,-7.0359,-7.0193,-7.0007,-6.9717,-6.9697,-6.9717,-6.9862,-7.009,-7.0256,-7.04,-7.0628,-7.0752,-7.067,-7.0442,-7.0028,-6.9635,-6.9345,-6.9241,-6.9221,-6.9379,-6.9536,-7.0151,-7.1171,-7.2557,-7.4213,-7.6131,-7.779,-7.9029,-8.0558,-8.1547,-8.2268,-8.2683,-8.2683,-8.2407,-8.2206,-8.2106,-8.183,-8.1478,-8.1001,-8.0549,-8.07,-8.0926,-8.1302,-8.1905,-8.2282,-6.4316,-6.4316,-6.4316,-6.4782,-6.5266,-6.599,-6.621,-6.591,-6.5509,-6.4827,-6.4025,-6.3877,-6.3675,-6.4007,-6.51,-6.5741,-6.6241,-6.7432,-6.8123,-6.7906,-6.8186,-6.8186,-6.8186,-6.8186,-6.8186,-6.8186,-6.8289,-6.8537,-6.891,-6.9055,-6.9469,-6.9862,-6.9717,-6.9428,-6.951,-6.9904,-7.0131,-7.0214,-7.0566,-7.0773,-7.0856,-7.0877,-7.0877,-7.0877,-7.0877,-7.0794,-7.0752,-7.0711,-7.0504,-7.0235,-7.0173,-7.0028,-6.98,-7.009,-7.0256,-7.0297,-7.0649,-7.0856,-7.0877,-7.0877,-7.0877,-7.0877,-7.0877,-7.0877,-7.0877,-7.0877,-7.0877,-7.0877,-7.0877,-7.0877,-7.067,-7.0483,-7.0276,-7.0193,-7.0173,-7.0193,-7.0338,-7.04,-7.0566,-7.0649,-7.0752,-7.0856,-7.0856,-7.0732,-7.0318,-6.9945,-6.9614,-6.9531,-6.9635,-6.9815,-6.9974,-7.0813,-7.1642,-7.3296,-7.4961,-7.6983,-7.8629,-7.9829,-8.0976,-8.2186,-8.2568,-8.2734,-8.2734,-8.2683,-8.2583,-8.2382,-8.2307,-8.2181,-8.1955,-8.1754,-8.1503,-8.1654,-8.1955,-8.2206,-8.2508,-6.4316,-6.4316,-6.4316,-6.4316,-6.4559,-6.4782,-6.5024,-6.4965,-6.455,-6.3898,-6.3187,-6.3125,-6.314,-6.3492,-6.444,-6.5138,-6.5536,-6.6741,-6.7429,-6.7668,-6.7927,-6.8186,-6.8186,-6.8186,-6.8186,-6.8268,-6.8434,-6.8827,-6.9303,-6.9469,-6.9986,-7.0421,-7.0359,-7.0049,-6.9779,-6.9924,-7.0173,-7.0256,-7.0587,-7.0877,-7.0877,-7.0877,-7.0897,-7.0897,-7.0918,-7.0959,-7.0959,-7.1001,-7.0877,-7.0711,-7.0711,-7.0587,-7.0421,-7.0649,-7.0628,-7.0649,-7.0877,-7.0856,-7.0877,-7.0877,-7.0877,-7.0877,-7.0877,-7.0877,-7.0877,-7.0877,-7.0877,-7.0877,-7.0877,-7.0877,-7.0794,-7.0752,-7.0649,-7.0649,-7.0649,-7.0649,-7.0711,-7.0752,-7.0814,-7.0814,-7.0877,-7.0877,-7.0877,-7.0877,-7.0545,-7.0463,-7.0214,-7.0235,-7.0338,-7.0355,-7.0433,-7.1498,-7.2549,-7.4208,-7.5922,-7.7722,-7.9472,-8.0975,-8.2054,-8.2827,-8.3135,-8.301,-8.2884,-8.2934,-8.2809,-8.2658,-8.2759,-8.2884,-8.316,-8.311,-8.2658,-8.2382,-8.2558,-8.2583,-8.2583,-6.4316,-6.4316,-6.4316,-6.4316,-6.4316,-6.4316,-6.4238,-6.4082,-6.3789,-6.3262,-6.2912,-6.2913,-6.293,-6.293,-6.3816,-6.4667,-6.4767,-6.6503,-6.7169,-6.7408,-6.7927,-6.8186,-6.8186,-6.8206,-6.831,-6.8434,-6.8724,-6.9096,-6.9717,-7.0028,-7.04,-7.0711,-7.0856,-7.0525,-7.0235,-7.0338,-7.0463,-7.0545,-7.0773,-7.0877,-7.0939,-7.1021,-7.1146,-7.1187,-7.127,-7.1373,-7.1353,-7.1332,-7.1332,-7.1311,-7.1311,-7.1311,-7.1311,-7.1187,-7.1146,-7.1104,-7.0939,-7.0918,-7.0877,-7.0877,-7.0877,-7.0877,-7.0877,-7.0877,-7.0877,-7.0877,-7.0877,-7.0877,-7.0877,-7.0877,-7.0877,-7.0877,-7.0877,-7.0856,-7.0856,-7.0856,-7.0856,-7.0877,-7.0877,-7.0877,-7.0877,-7.0877,-7.0877,-7.0877,-7.0773,-7.0814,-7.0835,-7.0877,-7.0877,-7.0854,-7.085,-7.1721,-7.2804,-7.4308,-7.6278,-7.8256,-7.9971,-8.1856,-8.2721,-8.357,-8.3738,-8.3638,-8.3412,-8.3236,-8.3361,-8.3437,-8.3412,-8.3562,-8.3788,-8.3763,-8.3462,-8.3261,-8.3236,-8.316,-8.3085,-6.4316,-6.4316,-6.4316,-6.4316,-6.4316,-6.4316,-6.4101,-6.375,-6.373,-6.3476,-6.3027,-6.2617,-6.2618,-6.2677,-6.3543,-6.3958,-6.4393,-6.6067,-6.6829,-6.7429,-6.7927,-6.7947,-6.8206,-6.8248,-6.8475,-6.8724,-6.9055,-6.951,-7.0111,-7.0297,-7.0545,-7.0773,-7.0877,-7.0732,-7.0711,-7.0711,-7.0752,-7.0773,-7.0814,-7.0939,-7.1063,-7.1311,-7.1477,-7.1601,-7.1808,-7.1953,-7.1994,-7.2015,-7.2056,-7.2077,-7.2119,-7.216,-7.2056,-7.1808,-7.1663,-7.1477,-7.1166,-7.1021,-7.0959,-7.098,-7.0877,-7.0877,-7.0877,-7.0877,-7.0877,-7.0877,-7.0877,-7.0877,-7.0877,-7.0877,-7.0877,-7.0877,-7.0877,-7.0877,-7.0877,-7.0877,-7.0877,-7.0877,-7.0877,-7.0877,-7.0877,-7.0877,-7.0877,-7.0877,-7.0918,-7.0877,-7.0877,-7.0877,-7.0877,-7.0877,-7.0937,-7.1675,-7.3034,-7.418,-7.6178,-7.8302,-8.0083,-8.1764,-8.3018,-8.3656,-8.3851,-8.4215,-8.3939,-8.3864,-8.4115,-8.4215,-8.4165,-8.4215,-8.4366,-8.429,-8.4315,-8.4014,-8.3939,-8.3914,-8.3889,-6.4316,-6.4316,-6.4316,-6.4316,-6.4316,-6.4316,-6.4238,-6.414,-6.4121,-6.3887,-6.3476,-6.3027,-6.2656,-6.2422,-6.3069,-6.3226,-6.4056,-6.523,-6.609,-6.693,-6.7668,-6.7947,-6.8289,-6.8475,-6.8703,-6.9055,-6.9448,-6.9862,-7.0193,-7.0442,-7.067,-7.0856,-7.0877,-7.0877,-7.0877,-7.0877,-7.0877,-7.0877,-7.0877,-7.1042,-7.1249,-7.1518,-7.1746,-7.2036,-7.2222,-7.2346,-7.2367,-7.2346,-7.2326,-7.2284,-7.2263,-7.2243,-7.2201,-7.2098,-7.2036,-7.1994,-7.1663,-7.1353,-7.1311,-7.1063,-7.0877,-7.0877,-7.0877,-7.0877,-7.0877,-7.0877,-7.0877,-7.0877,-7.0877,-7.0877,-7.0877,-7.0877,-7.0877,-7.0877,-7.0877,-7.0877,-7.0877,-7.0877,-7.0877,-7.0897,-7.0897,-7.0939,-7.0918,-7.0959,-7.1001,-7.0918,-7.0877,-7.0877,-7.0877,-7.0877,-7.1124,-7.1617,-7.2558,-7.3891,-7.6059,-7.8036,-7.9884,-8.1406,-8.266,-8.376,-8.4154,-8.4251,-8.4221,-8.4441,-8.4642,-8.4767,-8.4843,-8.4918,-8.4968,-8.537,-8.542,-8.4968,-8.4642,-8.4617,-8.4567,-6.4316,-6.4316,-6.4316,-6.4316,-6.4316,-6.4316,-6.4316,-6.4316,-6.4316,-6.4082,-6.3652,-6.3203,-6.2793,-6.248,-6.2812,-6.3047,-6.3344,-6.483,-6.597,-6.6451,-6.719,-6.8092,-6.8257,-6.8744,-6.9055,-6.9428,-6.9842,-7.0214,-7.0442,-7.0649,-7.0877,-7.0856,-7.0877,-7.0877,-7.0877,-7.0877,-7.0877,-7.0877,-7.0939,-7.1166,-7.1435,-7.1746,-7.2098,-7.2429,-7.2595,-7.2719,-7.274,-7.274,-7.274,-7.276,-7.2781,-7.2781,-7.2719,-7.2657,-7.2346,-7.2222,-7.1787,-7.156,-7.1435,-7.1104,-7.0939,-7.0877,-7.0877,-7.0877,-7.0877,-7.0877,-7.0877,-7.0877,-7.0877,-7.0877,-7.0877,-7.0877,-7.0877,-7.0877,-7.0877,-7.0877,-7.0877,-7.0877,-7.0897,-7.0918,-7.0939,-7.1001,-7.1042,-7.1084,-7.1042,-7.0939,-7.0877,-7.0877,-7.0877,-7.0877,-7.0877,-7.1371,-7.2334,-7.327,-7.545,-7.7363,-7.8926,-8.0721,-8.2465,-8.3405,-8.423,-8.4875,-8.4973,-8.5119,-8.5094,-8.5244,-8.537,-8.547,-8.5571,-8.5897,-8.6023,-8.5671,-8.532,-8.5295,-8.5194,-6.4316,-6.4316,-6.4316,-6.4316,-6.4316,-6.4316,-6.4316,-6.4297,-6.4258,-6.4043,-6.3652,-6.3223,-6.2793,-6.2519,-6.2812,-6.3008,-6.352,-6.4609,-6.5749,-6.6231,-6.6691,-6.7593,-6.8202,-6.869,-6.886,-6.9659,-7.0297,-7.0258,-7.0752,-7.0877,-7.0877,-7.0877,-7.0877,-7.0877,-7.0877,-7.0877,-7.0877,-7.0877,-7.0939,-7.1125,-7.1622,-7.2036,-7.247,-7.2947,-7.3278,-7.3526,-7.3547,-7.3568,-7.3609,-7.3588,-7.3568,-7.3505,-7.3361,-7.3174,-7.2781,-7.2408,-7.2015,-7.1787,-7.156,-7.1187,-7.0939,-7.0877,-7.0877,-7.0877,-7.0877,-7.0877,-7.0877,-7.0877,-7.0877,-7.0877,-7.0877,-7.0897,-7.0897,-7.1021,-7.1104,-7.1228,-7.1332,-7.1353,-7.1353,-7.1394,-7.1456,-7.1456,-7.1208,-7.1249,-7.1166,-7.098,-7.0877,-7.0877,-7.0877,-7.0877,-7.0877,-7.1124,-7.1864,-7.2845,-7.4021,-7.593,-7.7838,-7.9675,-8.174,-8.3343,-8.4328,-8.5126,-8.5973,-8.5747,-8.5521,-8.5722,-8.5872,-8.5847,-8.5822,-8.5948,-8.6073,-8.6098,-8.6023,-8.5948,-8.5747,-6.4316,-6.4316,-6.4316,-6.4316,-6.4316,-6.4316,-6.4316,-6.4277,-6.3965,-6.3789,-6.3613,-6.3203,-6.2754,-6.2422,-6.2812,-6.3027,-6.3461,-6.4349,-6.5187,-6.5749,-6.621,-6.6995,-6.74,-6.7967,-6.8435,-6.9375,-6.9743,-7.0217,-7.0588,-7.0877,-7.0877,-7.0877,-7.0877,-7.0877,-7.0877,-7.0877,-7.0877,-7.0877,-7.0918,-7.127,-7.187,-7.2181,-7.2553,-7.3133,-7.3588,-7.3609,-7.3609,-7.3609,-7.3609,-7.3609,-7.3609,-7.3588,-7.3588,-7.3485,-7.3402,-7.3154,-7.247,-7.2098,-7.1787,-7.1332,-7.0939,-7.0877,-7.0877,-7.0877,-7.0877,-7.0877,-7.0877,-7.0877,-7.0877,-7.0877,-7.0877,-7.0897,-7.098,-7.1187,-7.1373,-7.158,-7.1787,-7.1829,-7.1829,-7.1891,-7.1974,-7.1808,-7.1539,-7.1373,-7.1249,-7.1104,-7.0939,-7.0877,-7.0877,-7.0877,-7.0877,-7.1124,-7.1617,-7.2355,-7.3313,-7.4506,-7.6648,-7.8783,-8.1095,-8.2731,-8.4147,-8.53,-8.5998,-8.5998,-8.5948,-8.5998,-8.5998,-8.5998,-8.5998,-8.6123,-8.6299,-8.6425,-8.6575,-8.655,-8.6299,-6.4043,-6.4062,-6.4238,-6.4316,-6.4316,-6.4316,-6.4219,-6.4004,-6.3769,-6.3457,-6.3105,-6.2812,-6.25,-6.2265,-6.2734,-6.3027,-6.3183,-6.4167,-6.4945,-6.5266,-6.5587,-6.6451,-6.7055,-6.7438,-6.8228,-6.892,-6.968,-7.0112,-7.0381,-7.0877,-7.0877,-7.0877,-7.0877,-7.0877,-7.0877,-7.0877,-7.0877,-7.0877,-7.0877,-7.127,-7.1932,-7.2181,-7.2533,-7.3133,-7.3485,-7.3547,-7.3609,-7.3609,-7.3609,-7.3609,-7.3609,-7.3609,-7.3609,-7.3588,-7.3588,-7.3319,-7.2802,-7.2222,-7.1974,-7.1498,-7.0918,-7.0877,-7.0877,-7.0877,-7.0877,-7.0877,-7.0877,-7.0877,-7.0877,-7.0877,-7.0877,-7.0897,-7.1125,-7.1332,-7.1477,-7.1663,-7.1891,-7.2056,-7.2056,-7.2077,-7.2139,-7.2139,-7.1912,-7.1787,-7.158,-7.1021,-7.0877,-7.0877,-7.0877,-7.0877,-7.0877,-7.0877,-7.1371,-7.1885,-7.2355,-7.38,-7.5712,-7.7815,-8.0189,-8.2526,-8.4599,-8.53,-8.5998,-8.5998,-8.5998,-8.5998,-8.5998,-8.5998,-8.6249,-8.6425,-8.6625,-8.6801,-8.6952,-8.7103,-8.6977,-6.3633,-6.375,-6.414,-6.4277,-6.4238,-6.4219,-6.3984,-6.3633,-6.3515,-6.3086,-6.248,-6.2344,-6.2031,-6.2129,-6.2519,-6.2832,-6.3242,-6.4049,-6.4605,-6.5024,-6.5024,-6.5782,-6.6463,-6.7333,-6.7854,-6.8544,-6.9325,-6.9615,-7.0112,-7.0381,-7.0629,-7.0877,-7.0877,-7.0877,-7.0877,-7.0877,-7.0877,-7.0877,-7.0918,-7.1084,-7.1518,-7.1974,-7.247,-7.2926,-7.334,-7.3588,-7.3609,-7.3609,-7.3609,-7.3609,-7.3609,-7.3609,-7.3609,-7.3609,-7.3609,-7.3381,-7.274,-7.2326,-7.2036,-7.1394,-7.1042,-7.0877,-7.0877,-7.0877,-7.0877,-7.0877,-7.0877,-7.0877,-7.0877,-7.0877,-7.0877,-7.0918,-7.1187,-7.1539,-7.1684,-7.1953,-7.2222,-7.2429,-7.245,-7.2429,-7.247,-7.2512,-7.2326,-7.2201,-7.1767,-7.1187,-7.0897,-7.0877,-7.0877,-7.0877,-7.0877,-7.0877,-7.1124,-7.1371,-7.1864,-7.3069,-7.4748,-7.7125,-7.9488,-8.2272,-8.4599,-8.555,-8.6023,-8.5998,-8.5998,-8.5998,-8.5998,-8.5998,-8.6299,-8.655,-8.6952,-8.7153,-8.7329,-8.7504,-8.7655,-6.3359,-6.3711,-6.414,-6.4121,-6.3828,-6.3808,-6.3555,-6.3144,-6.2773,-6.25,-6.2305,-6.1973,-6.1758,-6.1738,-6.2226,-6.2637,-6.3125,-6.3652,-6.4023,-6.45,-6.454,-6.5108,-6.5864,-6.6407,-6.6881,-6.7816,-6.8886,-6.9365,-6.9615,-6.9864,-7.0381,-7.0877,-7.0877,-7.0877,-7.0877,-7.0877,-7.0877,-7.0877,-7.0877,-7.098,-7.1208,-7.1725,-7.2408,-7.2905,-7.3361,-7.3526,-7.3609,-7.3609,-7.3609,-7.3609,-7.3609,-7.3609,-7.3609,-7.3609,-7.3568,-7.3319,-7.2657,-7.2284,-7.1891,-7.1311,-7.0959,-7.0877,-7.0877,-7.0877,-7.0877,-7.0877,-7.0877,-7.0877,-7.0877,-7.0877,-7.0877,-7.0877,-7.1084,-7.1684,-7.2015,-7.2615,-7.305,-7.3154,-7.3195,-7.3195,-7.3195,-7.3029,-7.2698,-7.245,-7.2015,-7.1498,-7.1063,-7.1021,-7.0877,-7.0877,-7.0897,-7.0877,-7.0877,-7.1371,-7.1864,-7.26,-7.4043,-7.6409,-7.9018,-8.2042,-8.4373,-8.555,-8.5774,-8.5998,-8.5998,-8.5998,-8.5998,-8.5998,-8.6148,-8.645,-8.7128,-8.7529,-8.7705,-8.7856,-8.8006]}]]